     2              OBSERVATION DATA                        RINEX VERSION / TYPE
DAT2RIN 1.01d Dan Johnson 12SEP96 4:32:26 GMT               PGM / RUN BY / DATE
Mojave '96 team Central Washington U                        OBSERVER / AGENCY
14855 TRIMBLE 4000SSI Nav 7.12 Sig 3.04                     REC # / TYPE / VERS
UW-06 TRIMBLE CHOKE                                         ANT # / TYPE
OVRO                                                        MARKER NAME
 -2410423.0000 -4477803.0000  3838687.0000                  APPROX POSITION XYZ
        0.5000        0.0000        0.0000                  ANTENNA: DELTA H/E/N
     1     1     0                                          WAVELENGTH FACT L1/2
     5    L1    C1    P1    L2    P2                        # / TYPES OF OBSERV
    30                                                      INTERVAL
                                                            COMMENT
PANGA GPS Data Analysis Center                              COMMENT
Department of Geology                                       COMMENT
Central Washington University                               COMMENT
Ellensburg, WA 98926                                        COMMENT
                                                            COMMENT
http://www.panga.cwu.edu                                    COMMENT
ftp://panga.cwu.edu                                         COMMENT
                                                            COMMENT
  1996     9     6     0     0   30.000000                  TIME OF FIRST OBS
  1996     9     6    22    55    0.000000                  TIME OF LAST OBS
    25                                                      # OF SATELLITES
           1   602   603     0   597   597                  PRN / # OF OBS
           2   839   839     0   836   836                  PRN / # OF OBS
           3   912   912     0   901   901                  PRN / # OF OBS
           4   799   801     0   786   786                  PRN / # OF OBS
           5   715   716     0   712   712                  PRN / # OF OBS
           6   778   778     0   772   772                  PRN / # OF OBS
           7   733   734     0   726   726                  PRN / # OF OBS
           9   873   873     0   862   862                  PRN / # OF OBS
          10   894   895     0   880   880                  PRN / # OF OBS
          14   610   610     0   610   610                  PRN / # OF OBS
          15   757   757     0   741   741                  PRN / # OF OBS
          16   899   900     0   882   882                  PRN / # OF OBS
          17   843   844     0   841   841                  PRN / # OF OBS
          18   761   762     0   756   756                  PRN / # OF OBS
          19   842   842     0   836   836                  PRN / # OF OBS
          21   718   718     0   715   715                  PRN / # OF OBS
          22   408   408     0   403   403                  PRN / # OF OBS
          23   788   789     0   786   786                  PRN / # OF OBS
          24   689   689     0   683   683                  PRN / # OF OBS
          25   520   522     0   518   518                  PRN / # OF OBS
          26   937   937     0   928   928                  PRN / # OF OBS
          27   810   811     0   808   808                  PRN / # OF OBS
          28   626     2   629   627   627                  PRN / # OF OBS
          29   752   752     0   752   752                  PRN / # OF OBS
          31   855   855     0   845   845                  PRN / # OF OBS
                                                            END OF HEADER
 96  9  6  0  0 30.0000000  0  6  1 14 15 21 25 29
   9608789.08810  22349858.88300                   7742853.19850  22349863.48840
  -3168588.37810  23282585.34400                  -2398333.68050  23282591.16840
  -8110941.42210  20859399.88300                    634438.23350  20859404.94540
  21969922.75510  23094607.28900                   6729773.58150  23094612.80940
  -8870917.88810  20860555.55500                  -6781042.37550  20860559.34040
  -1951524.51610  23478649.02300                  -1452464.99950  23478653.43040
 96  9  6  0  1  0.0000000  0  6  1 14 15 21 25 29
   9735540.49300  22373978.64800                   7841620.50340  22373983.94540
  -3198126.48100  23276964.66400                  -2421350.35240  23276970.03140
  -8077270.54600  20865807.53900                    660675.27940  20865812.35540
  22104091.07600  23120138.71900                   6834320.30040  23120143.94540
  -8840648.71200  20866315.54700                  -6757455.99540  20866319.43840
  -1969395.10900  23475248.53900                  -1466390.08140  23475252.94540
 96  9  6  0  1 30.0000000  0  6  1 14 15 21 25 29
   9862480.05500  22398134.83600                   7940534.45140  22398139.94540
  -3227564.25800  23271362.32000                  -2444288.84840  23271367.58240
  -8042918.61000  20872344.17200                    687443.02240  20872348.96540
  22238544.87500  23145724.56300                   6939089.45740  23145730.55140
  -8809788.04700  20872188.03900                  -6733408.70640  20872191.80140
  -1987048.29200  23471889.34400                  -1480145.76240  23471893.38740
 96  9  6  0  2  0.0000000  0  6  1 14 15 21 25 29
   9989574.60700  22422320.01600                   8039569.14540  22422324.68040
  -3256922.56800  23265775.82000                  -2467165.42040  23265781.36340
  -8007913.62100  20879005.64100                    714719.63440  20879010.49240
  22373242.53400  23171357.32800                   7044048.63540  23171362.87140
  -8778364.67500  20878167.73400                  -6708922.94840  20878171.49640
  -2004481.76300  23468571.72700                  -1493730.24440  23468576.76640
 96  9  6  0  2 30.0000000  0  6  1 14 15 21 25 29
  10116833.67300  22446536.68000                   8138732.03940  22446541.60240
  -3286197.46900  23260204.89800                  -2489977.00440  23260209.87940
  -7972241.98800  20885793.58600                    742515.71640  20885798.32040
  22508190.22100  23197036.51600                   7149202.65240  23197041.95340
  -8746369.19100  20884256.21100                  -6683991.38940  20884259.89140
  -2021659.97500  23465302.92200                  -1507115.81440  23465307.64540
 96  9  6  0  3  0.0000000  0  6  1 14 15 21 25 29
  10244259.15000  22470785.10200                   8238024.61240  22470789.70740
  -3315405.58900  23254647.02300                  -2512736.54640  23254651.17240
  -7935891.42400  20892710.77300                    770840.82440  20892715.75440
  22643409.38700  23222768.00000                   7254568.19940  23222772.66440
  -8713777.26700  20890458.28100                  -6658595.07540  20890461.87940
  -2038563.67100  23462085.48400                  -1520287.49040  23462090.46540
 96  9  6  0  3 30.0000000  0  6  1 14 15 21 25 29
  10371840.56700  22495063.04700                   8337438.68440  22495067.86340
  -3344540.98100  23249102.83600                  -2535439.40440  23249107.43040
  -7898858.43700  20899758.03100                    799697.69640  20899762.83640
  22778920.05100  23248555.12500                   7360160.90340  23248560.91440
  -8680582.94900  20896775.07000                  -6632729.36040  20896778.68040
  -2055195.77900  23458920.94500                  -1533247.52440  23458926.46540
 96  9  6  0  4  0.0000000  0  6  1 14 15 21 25 29
  10499560.74900  22519367.22700                   8436960.88640  22519371.65640
  -3373603.66800  23243572.10900                  -2558085.61840  23243577.17240
  -7861146.92200  20906934.60200                    829083.29340  20906939.24240
  22914720.42500  23274397.29700                   7465979.32440  23274402.14840
  -8646794.53000  20903204.76600                  -6606400.71540  20903208.36340
  -2071575.58400  23455803.73400                  -1546010.96740  23455807.97740
 96  9  6  0  4 30.0000000  0  6  1 14 15 21 25 29
  10627424.13800  22543698.80500                   8536594.68440  22543703.91440
  -3402587.81600  23238056.68000                  -2580670.65840  23238061.54340
  -7822754.24300  20914240.29700                    858999.66440  20914245.13740
  23050825.30700  23300296.08600                   7572035.03640  23300302.15640
  -8612400.58400  20909749.55500                  -6579600.22440  20909753.22340
  -2087713.23400  23452733.07800                  -1558585.71640  23452737.80140
 96  9  6  0  5  0.0000000  0  6  1 14 15 21 25 29
  10755434.63800  22568058.12500                   8636343.10240  22568062.89540
  -3431479.45100  23232558.60200                  -2603183.59840  23232563.31340
  -7783681.02700  20921675.68800                    889446.32840  20921680.59840
  23187234.40100  23326255.01600                   7678327.78140  23326260.35940
  -8577396.78700  20916410.64800                  -6552324.53040  20916414.39840
  -2103621.26200  23449705.64800                  -1570981.56340  23449710.10240
 96  9  6  0  5 30.0000000  0  6  1 14 15 21 25 29
  10883584.58600  22592444.32800                   8736200.19340  22592449.13340
  -3460252.65600  23227083.11700                  -2625604.25040  23227088.34440
  -7743932.81300  20929239.18800                    920418.96040  20929244.23840
  23323937.42500  23352268.51600                   7784849.57940  23352274.78540
  -8541801.12100  20923184.08600                  -6524587.63540  20923187.83640
  -2119304.98900  23446721.10900                  -1583202.60340  23446725.79740
 96  9  6  0  6  0.0000000  0  6  1 14 15 21 25 29
  11011855.85500  22616853.85900                   8836151.81140  22616859.00440
  -3488909.09100  23221629.87500                  -2647933.87940  23221634.69140
  -7703520.98000  20936929.44500                    951908.69540  20936934.25040
  23460913.21600  23378333.52300                   7891583.91840  23378338.41040
  -8505626.14500  20930068.18800                  -6496399.33340  20930071.93840
  -2134767.58900  23443778.74200                  -1595251.33340  23443784.43840
 96  9  6  0  6 30.0000000  0  6  1 14 15 21 25 29
  11140254.52800  22641287.32000                   8936202.70340  22641291.98440
  -3517455.19300  23216198.07800                  -2670177.58040  23216203.30540
  -7662448.14700  20944745.42200                    983913.49140  20944750.41440
  23598157.38900  23404450.46100                   7998527.39940  23404454.57440
  -8468879.37000  20937060.89800                  -6467765.47940  20937064.52040
  -2150001.73000  23440879.75000                  -1607122.04840  23440884.87140
 96  9  6  0  7  0.0000000  0  6  1 14 15 21 25 29
  11268777.84500  22665744.75800                   9036350.72740  22665749.27040
  -3545883.17600  23210788.05500                  -2692329.23340  23210793.64540
  -7620707.45800  20952688.64800                   1016438.70840  20952693.33640
  23735673.98600  23430619.04700                   8105683.12740  23430624.71940
  -8431565.74100  20944161.34400                  -6438689.91340  20944164.84840
  -2165004.64700  23438024.74200                  -1618812.59140  23438029.46540
 96  9  6  0  7 30.0000000  0  6  1 14 15 21 25 29
  11397402.20000  22690221.03900                   9136577.48040  22690225.97340
  -3574219.59100  23205396.20300                  -2714409.52540  23205401.37140
  -7578313.10500  20960755.76600                   1049473.26140  20960760.43040
  23873461.18600  23456839.39800                   8213049.75040  23456845.04740
  -8393708.88800  20951365.21900                  -6409191.05640  20951368.85240
  -2179788.60700  23435211.32000                  -1630332.52140  23435215.84440
 96  9  6  0  8  0.0000000  0  6  1 14 15 21 25 29
  11526136.76500  22714718.01600                   9236890.11940  22714722.73840
  -3602482.96800  23200017.93000                  -2736432.91340  23200022.73440
  -7535265.03600  20968947.50000                   1083017.20840  20968952.42240
  24011526.57400  23483112.05500                   8320633.14840  23483116.97740
  -8355313.80200  20958671.50000                  -6379272.79640  20958675.18040
  -2194361.38500  23432437.82800                  -1641687.89340  23432442.27040
 96  9  6  0  8 30.0000000  0  6  1 14 15 21 25 29
  11654998.20300  22739239.68800                   9337301.60940  22739245.06640
  -3630658.78500  23194656.11700                  -2758388.07440  23194660.68840
  -7491552.10500  20977265.78900                   1117079.22440  20977270.73440
  24149880.37900  23509440.70300                   8428441.25940  23509445.33240
  -8316369.09200  20966082.64800                  -6348926.26740  20966086.17640
  -2208719.45400  23429705.61700                  -1652875.93940  23429710.03540
 96  9  6  0  9  0.0000000  0  6  1 14 15 21 25 29
  11783973.99100  22763783.30500                   9437802.20540  22763787.92240
  -3658744.90600  23189311.47700                  -2780273.32240  23189316.64540
  -7447182.65800  20985709.07000                   1151652.81540  20985714.09840
  24288517.05600  23535821.23400                   8536469.81740  23535827.64540
  -8276868.04200  20973599.33600                  -6318146.20940  20973602.89840
  -2222880.81000  23427011.10200                  -1663910.70540  23427015.69540
 96  9  6  0  9 30.0000000  0  6  1 14 15 21 25 29
  11913049.63700  22788345.54700                   9538380.60840  22788350.50440
  -3686763.55400  23183979.18000                  -2802106.02340  23183983.98440
  -7402171.88900  20994274.35900                   1186726.13940  20994279.15240
  24427409.88900  23562252.11700                   8644697.92040  23562258.71540
  -8236809.85100  20981222.04700                  -6286932.03240  20981225.65640
  -2236862.64400  23424350.40600                  -1674805.59140  23424355.23440
 96  9  6  0 10  0.0000000  0  6  1 14 15 21 25 29
  12042227.08100  22812927.18000                   9639038.34240  22812931.69140
  -3714700.63600  23178663.25800                  -2823875.16140  23178668.28540
  -7356517.79200  21002961.85900                   1222300.75340  21002966.96940
  24566543.42100  23588728.99200                   8753113.60740  23588734.62940
  -8196176.96400  20988954.20300                  -6255270.03140  20988957.95340
  -2250669.68400  23421723.02300                  -1685564.26140  23421727.37140
 96  9  6  0 10 30.0010000  0  6  1 14 15 21 25 29
  12171477.08200  22837522.34100                   9739752.61440  22837527.00540
  -3742566.37400  23173360.12200                  -2845588.70240  23173365.85340
  -7310233.84200  21011769.34900                   1258366.16540  21011774.61040
  24705897.80700  23615247.38800                   8861701.40440  23615253.44640
  -8154967.98700  20996796.29400                  -6223159.12940  20996799.82140
  -2264322.15600  23419124.67700                  -1696202.48440  23419128.61440
 96  9  6  0 11  0.0010000  0  6  1 14 15 21 25 29
  12300791.18900  22862130.32500                   9840516.82640  22862134.94240
  -3770360.65600  23168071.16100                  -2867246.56340  23168076.89240
  -7263313.39300  21020698.17700                   1294927.54140  21020703.38040
  24845479.92700  23641808.64600                   8970466.66140  23641814.47040
  -8113180.80200  21004747.94200                  -6190597.67440  21004751.51740
  -2277817.48100  23416556.78600                  -1706718.28740  23416562.29440
 96  9  6  0 11 30.0010000  0  6  1 14 15 21 25 29
  12430180.41300  22886752.29400                   9941339.58140  22886756.85340
  -3798083.66400  23162796.07500                  -2888848.88640  23162800.96240
  -7215744.29500  21029750.34100                   1331994.36440  21029755.35640
  24985299.46500  23668415.41900                   9079416.87440  23668419.05240
  -8070829.19400  21012807.34900                  -6157596.41640  21012810.77140
  -2291147.97100  23414020.02800                  -1717105.62440  23414023.80240
 96  9  6  0 12  0.0010000  0  6  1 14 15 21 25 29
  12559623.55200  22911384.56000                  10042204.34840  22911389.32940
  -3825758.62400  23157529.81700                  -2910413.75740  23157534.32940
  -7167546.96600  21038922.07500                   1369550.72640  21038926.96240
  25125345.20000  23695065.68500                   9188543.41640  23695072.47040
  -8027958.17700  21020965.44200                  -6124190.41940  21020968.92340
  -2304331.72700  23411511.03600                  -1727378.61540  23411516.23940
 96  9  6  0 12 30.0010000  0  6  1 14 15 21 25 29
  12689134.97000  22936029.69200                  10143122.31140  22936034.84940
  -3853384.25200  23152272.74700                  -2931940.19840  23152277.00140
  -7118711.68800  21048215.10600                   1407604.18040  21048219.98140
  25265632.64100  23721761.38000                   9297858.25640  23721767.40340
  -7984570.42500  21029221.81700                  -6090381.77540  21029225.35640
  -2317347.99200  23409034.41900                  -1737521.11340  23409039.50540
 96  9  6  0 13  0.0010000  0  6  1 14 15 21 25 29
  12818713.85400  22960687.52100                  10244092.84340  22960692.37240
  -3880955.63800  23147026.01300                  -2953424.38740  23147031.06340
  -7069241.92200  21057628.75500                   1446152.04340  21057633.80640
  25406159.42700  23748502.07500                   9407359.63240  23748507.95840
  -7940672.59500  21037575.04400                  -6056175.66740  21037578.57140
  -2330196.84400  23406589.17700                  -1747533.14840  23406593.46640
 96  9  6  0 13 30.0010000  0  6  1 14 15 21 25 29
  12948365.31100  22985359.42700                  10345119.94440  22985364.33740
  -3908460.60200  23141791.73900                  -2974856.80140  23141796.32140
  -7019137.55400  21067163.40300                   1485194.40140  21067168.58340
  25546913.08900  23775287.77100                   9517037.76540  23775292.85640
  -7896246.96400  21046029.15300                  -6021558.28340  21046032.85640
  -2342866.91200  23404178.31700                  -1757405.88340  23404182.54840
 96  9  6  0 14  0.0010000  0  6  1 14 15 21 25 29
  13078086.72800  23010044.63000                  10446201.54740  23010049.36440
  -3935891.28900  23136571.77100                  -2996231.32340  23136577.48940
  -6968402.50400  21076817.88800                   1524728.20040  21076822.98540
  25687895.71300  23802115.38800                   9626894.26840  23802120.57940
  -7851270.10700  21054587.91900                  -5986511.37440  21054591.54040
  -2355347.52400  23401803.10600                  -1767130.99540  23401807.54840
 96  9  6  0 14 30.0010000  0  6  1 14 15 21 25 29
  13207875.62200  23034742.87200                  10547335.73040  23034747.45440
  -3963231.84000  23131369.16100                  -3017535.64440  23131374.86840
  -6917036.34800  21086592.84900                   1564753.77340  21086597.63040
  25829098.73700  23828985.11400                   9736922.58140  23828990.10640
  -7805718.28100  21063256.09900                  -5951016.43740  21063259.68540
  -2367642.45800  23399463.62200                  -1776711.41940  23399468.43840
 96  9  6  0 15  0.0010000  0  6  1 14 15 21 25 29
  13337732.65600  23059454.02100                  10648523.00640  23059458.33340
  -3990490.20100  23126182.31000                  -3038775.88740  23126187.46640
  -6865038.78000  21096487.65300                   1605271.35140  21096492.37640
  25970521.35200  23855897.30200                   9847121.95540  23855903.06740
  -7759592.31800  21072033.68500                  -5915074.11440  21072037.04840
  -2379757.72700  23397157.81700                  -1786151.83640  23397162.17740
 96  9  6  0 15 30.0010000  0  6  1 14 15 21 25 29
  13467670.41400  23084180.43500                  10749773.18540  23084185.11040
  -4017689.24000  23121006.28600                  -3059969.93840  23121011.41940
  -6812415.25800  21106501.49700                   1646276.68340  21106506.48940
  26112158.40400  23882849.49700                   9957488.47240  23882854.82940
  -7712911.23400  21080916.69200                  -5878699.24040  21080920.39640
  -2391684.61400  23394888.45800                  -1795445.47240  23394892.99340
 96  9  6  0 16  0.0010000  0  6  1 14 15 21 25 29
  13597696.88900  23108923.34900                  10851092.50340  23108927.77840
  -4044840.08300  23115839.67700                  -3081126.40240  23115844.86840
  -6759161.99200  21116635.25500                   1687772.72440  21116640.10640
  26254018.31600  23909845.72400                  10068028.60540  23909849.80240
  -7665694.70700  21089901.54400                  -5841907.13340  21089905.20040
  -2403426.11000  23392654.20000                  -1804594.65240  23392658.45440
 96  9  6  0 16 30.0010000  0  6  1 14 15 21 25 29
  13727806.83700  23133682.68500                  10952476.85240  23133687.79440
  -4071955.00800  23110679.63800                  -3102254.89740  23110683.96240
  -6705279.93600  21126888.66100                   1729758.72840  21126893.66540
  26396080.79300  23936878.52100                  10178726.58240  23936884.52140
  -7617967.67300  21098983.55200                  -5804717.22840  21098987.29040
  -2414997.15600  23390452.13000                  -1813611.00040  23390456.59540
 96  9  6  0 17  0.0010000  0  6  1 14 15 21 25 29
  13857983.21600  23158454.17700                  11053912.97740  23158458.95840
  -4099056.58200  23105522.56000                  -3123373.00040  23105527.49340
  -6650786.87500  21137258.48100                   1772220.84240  21137263.33340
  26538329.91600  23963947.79400                  10289569.98940  23963954.11040
  -7569772.79700  21108154.98100                  -5767162.77640  21108158.63840
  -2426405.99600  23388281.13000                  -1822500.97640  23388286.06340
 96  9  6  0 17 30.0010000  0  6  1 14 15 21 25 29
  13988234.40900  23183240.12200                  11155407.39040  23183245.05640
  -4126100.12000  23100375.84900                  -3144445.86640  23100381.01740
  -6595664.77300  21147747.79400                   1815173.12540  21147752.76340
  26680772.74400  23991053.95000                  10400564.34640  23991059.91540
  -7521086.80400  21117419.71600                  -5729225.62440  21117423.26740
  -2437643.18900  23386142.59900                  -1831257.18340  23386147.50940
 96  9  6  0 18  0.0010000  0  6  1 14 15 21 25 29
  14118537.26400  23208036.17700                  11256942.04640  23208040.77140
  -4153050.40500  23095247.95800                  -3165446.06640  23095252.70440
  -6539906.32400  21158358.32500                   1858621.25240  21158363.18840
  26823411.83300  24018196.80200                  10511711.66340  24018203.73140
  -7471892.56700  21126781.11400                  -5690892.45140  21126784.74740
  -2448723.80300  23384033.75500                  -1839891.40440  23384038.16140
 96  9  6  0 18 30.0010000  0  6  1 14 15 21 25 29
  14248864.87900  23232836.95000                  11358496.02240  23232841.74340
  -4179898.09700  23090138.89600                  -3186366.32740  23090143.56040
  -6483527.72700  21169086.58300                   1902552.61640  21169091.63440
  26966232.81900  24045375.36400                  10623000.64240  24045381.14240
  -7422184.50500  21136240.24700                  -5652158.89140  21136243.64640
  -2459658.75400  23381952.75500                  -1848412.10540  23381957.72440
 96  9  6  0 19  0.0010000  0  6  1 14 15 21 25 29
  14379235.83400  23257645.15300                  11460083.75440  23257650.40340
  -4206612.47800  23085055.40300                  -3207182.71640  23085059.55240
  -6426513.76000  21179936.16100                   1946979.07040  21179941.17740
  27109279.49700  24072596.02100                  10734465.54040  24072601.28240
  -7371939.96300  21145801.48900                  -5613007.29240  21145805.12240
  -2470425.97100  23379904.06700                  -1856802.10040  23379908.77840
 96  9  6  0 19 30.0010000  0  6  1 14 15 21 25 29
  14509636.54000  23282459.73100                  11561694.66240  23282464.73540
  -4233201.61200  23079995.69200                  -3227901.50040  23080000.47440
  -6368870.95900  21190905.36400                   1991895.52440  21190910.29840
  27252549.82600  24099860.05200                  10846104.70640  24099863.82540
  -7321139.47300  21155468.49700                  -5573422.48440  21155472.09540
  -2481041.09000  23377884.20800                  -1865073.60540  23377888.54440
 96  9  6  0 20  0.0010000  0  6  1 14 15 21 25 29
  14640052.46500  23307277.10600                  11663317.44940  23307282.16940
  -4259698.36100  23074953.28600                  -3248548.31040  23074958.20840
  -6310611.03700  21201991.52800                   2037292.85540  21201996.56740
  27396048.50000  24127166.80200                  10957921.81140  24127174.21240
  -7269805.86300  21165236.95000                  -5533422.27140  21165240.51340
  -2491500.53700  23375893.70000                  -1873223.78040  23375897.35640
 96  9  6  0 20 30.0010000  0  6  1 14 15 21 25 29
  14770504.53500  23332101.43500                  11764968.38640  23332106.82540
  -4286122.49700  23069924.67700                  -3269138.52940  23069930.14940
  -6251729.95700  21213196.49700                   2083174.20640  21213201.54840
  27539786.06300  24154518.23900                  11069925.03740  24154524.34540
  -7217937.81600  21175107.16900                  -5493005.60240  21175110.69640
  -2501785.64400  23373936.40300                  -1881238.13040  23373940.50540
 96  9  6  0 21  0.0010000  0  6  1 14 15 21 25 29
  14900999.70200  23356934.32500                  11866652.90440  23356938.83740
  -4312488.38700  23064907.48100                  -3289683.35740  23064912.47440
  -6192224.53600  21224519.87200                   2129542.05740  21224524.93540
  27683753.47800  24181915.32500                  11182107.41140  24181920.54040
  -7165536.38300  21185078.80200                  -5452173.31540  21185082.39940
  -2511896.32400  23372012.47400                  -1889116.55640  23372016.56340
 96  9  6  0 21 30.0010000  0  6  1 14 15 21 25 29
  15031539.84100  23381775.19200                  11968372.47940  23381780.51340
  -4338799.46200  23059901.07500                  -3310185.47340  23059906.22040
  -6132094.91700  21235962.31000                   2176396.29940  21235967.18540
  27827924.20900  24209349.51300                  11294448.17640  24209354.41140
  -7112594.61800  21195153.12200                  -5410919.98540  21195156.77840
  -2521845.25300  23370119.67700                  -1896868.93440  23370124.24740
 96  9  6  0 22  0.0010000  0  6  1 14 15 21 25 29
  15162135.57500  23406626.59100                  12070135.36440  23406631.64240
  -4365044.44900  23054906.73100                  -3330636.09940  23054911.81740
  -6071337.34800  21247524.06700                   2223739.84440  21247528.86040
  27972295.85700  24236822.86400                  11406945.55040  24236828.94640
  -7059120.40800  21205328.92700                  -5369251.77240  21205332.56040
  -2531631.13300  23368257.43500                  -1904494.26740  23368262.35640
 96  9  6  0 22 30.0010000  0  6  1 14 15 21 25 29
  15292801.59000  23431491.22400                  12171953.01940  23431495.93540
  -4391213.59100  23049926.80200                  -3351027.62540  23049932.02840
  -6009951.62100  21259205.50500                   2271572.87140  21259210.33340
  28116857.14700  24264332.06700                  11519590.64540  24264338.79440
  -7005099.40700  21215608.92700                  -5327157.48040  21215612.36040
  -2541265.29000  23366423.86400                  -1912001.36340  23366428.06040
 96  9  6  0 23  0.0010000  0  6  1 14 15 21 25 29
  15423529.86300  23456368.30200                  12273819.18640  23456373.36440
  -4417310.64400  23044960.61400                  -3371362.97540  23044966.14640
  -5947944.94700  21271004.93500                   2319889.74440  21271009.81040
  28261595.40700  24291873.88800                  11632373.64440  24291880.43840
  -6950544.74600  21225990.31000                  -5284647.35840  21225993.80240
  -2550765.49100  23364615.86400                  -1919404.09740  23364619.66140
 96  9  6  0 23 30.0010000  0  6  1 14 15 21 25 29
  15554297.89300  23481252.74700                  12375716.33340  23481257.28240
  -4443345.11200  23040006.13000                  -3391649.56940  23040011.53240
  -5885334.44300  21282919.36400                   2368677.14040  21282924.41540
  28406515.65700  24319452.16100                  11745298.47640  24319458.02140
  -6895492.07900  21236466.33300                  -5241749.17440  21236469.82540
  -2560139.32600  23362832.34900                  -1926708.35940  23362836.90740
 96  9  6  0 24  0.0010000  0  6  1 14 15 21 25 29
  15685128.38200  23506148.99700                  12477662.13740  23506153.82540
  -4469289.55500  23035069.16100                  -3411865.99040  23035074.41140
  -5822091.92100  21294953.97400                   2417957.02140  21294958.96640
  28551651.71600  24347070.62200                  11858391.43540  24347076.79840
  -6839914.31600  21247042.55200                  -5198441.82540  21247045.95040
  -2569334.03700  23361082.53600                  -1933873.03840  23361087.66940
 96  9  6  0 24 30.0010000  0  6  1 14 15 21 25 29
  15816006.04600  23531054.07500                  12579644.70540  23531057.89640
  -4495143.74100  23030149.16900                  -3432012.09540  23030154.09140
  -5758224.91500  21307107.74700                   2467723.51140  21307112.63440
  28696985.32800  24374727.41100                  11971638.37640  24374731.81740
  -6783823.50400  21257716.49700                  -5154734.69440  21257719.84940
  -2578338.18600  23359369.01300                  -1940889.22240  23359373.47840
 96  9  6  0 25  0.0020000  0  6  1 14 15 21 25 29
  15946912.23400  23555964.47900                  12681649.50540  23555970.38540
  -4520896.41700  23025249.47900                  -3452079.10640  23025254.29540
  -5693734.77900  21319379.32200                   2517975.55940  21319384.15040
  28842518.30100  24402421.54900                  12085040.63040  24402425.66240
  -6727225.73400  21268486.65800                  -5110632.53940  21268489.95140
  -2587150.26900  23357691.90800                  -1947755.74340  23357696.46740
 96  9  6  0 25 30.0020000  0  6  1 14 15 21 25 29
  16077832.30900  23580877.87700                  12783665.11540  23580882.70540
  -4546526.00500  23020372.01800                  -3472050.20340  23020376.44740
  -5628627.15800  21331768.95500                   2568708.75840  21331773.90040
  28988237.19300  24430150.25200                  12198587.76440  24430154.68240
  -6670110.88300  21279355.10400                  -5066127.46040  21279358.51440
  -2595760.11800  23356053.53300                  -1954464.68940  23356058.38540
 96  9  6  0 26  0.0020000  0  6  1 14 15 21 25 29
  16208768.61700  23605793.92400                  12885693.38440  23605799.29140
  -4572044.84900  23015516.11900                  -3491935.00440  23015520.65440
  -5562905.28900  21344275.45500                   2619920.58640  21344280.42440
  29134120.95300  24457911.36100                  12312263.38840  24457918.32640
  -6612466.52200  21290324.40000                  -5021209.77140  21290328.02140
  -2604188.90700  23354449.62700                  -1961032.55440  23354454.33840
 96  9  6  0 26 30.0020000  0  6  1 14 15 21 25 29
  16339737.63500  23630716.78300                  12987747.14540  23630721.91640
  -4597450.48900  23010681.43900                  -3511731.58740  23010686.09240
  -5496559.25600  21356900.71300                   2671618.78840  21356905.76440
  29280193.72600  24485708.40000                  12426086.22140  24485711.14340
  -6554286.30800  21301395.76800                  -4975874.53340  21301399.38940
  -2612448.50500  23352878.15800                  -1967468.57540  23352882.04940
 96  9  6  0 27  0.0020000  0  6  1 14 15 21 25 29
  16470755.77100  23655648.71300                  13089839.18240  23655653.88140
  -4622762.82800  23005864.70500                  -3531455.47040  23005868.90040
  -5429586.10000  21369645.42400                   2723805.64940  21369650.20540
  29426475.30900  24513544.34600                  12540071.84640  24513548.78740
  -6495563.31900  21312570.30700                  -4930116.35940  21312573.84640
  -2620560.96500  23351334.11900                  -1973789.92840  23351338.49040
 96  9  6  0 27 30.0020000  0  6  1 14 15 21 25 29
  16601834.68700  23680592.15800                  13191978.56140  23680597.11540
  -4648002.50900  23001061.47900                  -3551122.74440  23001065.86140
  -5361987.27300  21382509.04100                   2776480.05040  21382513.96340
  29572969.96300  24541421.68200                  12654223.50940  24541427.76440
  -6436304.09900  21323847.08000                  -4883940.34140  21323850.53740
  -2628530.36700  23349817.58800                  -1979999.82640  23349822.31140
 96  9  6  0 28  0.0020000  0  6  1 14 15 21 25 29
  16732960.54300  23705544.76000                  13294154.53140  23705549.48240
  -4673187.95500  22996268.94700                  -3570747.74840  22996274.13940
  -5293772.52900  21395489.86100                   2829634.38040  21395494.67840
  29719669.29900  24569337.04900                  12768534.59940  24569342.87340
  -6376524.19400  21335222.93900                  -4837358.59940  21335226.46740
  -2636375.43600  23348324.90000                  -1986112.83240  23348329.37740
 96  9  6  0 28 30.0020000  0  6  1 14 15 21 25 29
  16864129.54300  23730505.43200                  13396364.11440  23730510.65840
  -4698301.11200  22991489.65800                  -3590316.43040  22991494.59240
  -5224936.95000  21408588.62700                   2883272.48040  21408593.78340
  29866591.02600  24597296.00200                  12883018.98040  24597301.35740
  -6316222.37900  21346697.79900                  -4790370.16640  21346701.22140
  -2644080.08800  23346858.53300                  -1992116.42440  23346862.55340
 96  9  6  0 29  0.0020000  0  6  1 14 15 21 25 29
  16995324.05900  23755470.73600                  13498593.58440  23755476.65440
  -4723313.41800  22986730.16600                  -3609806.52140  22986735.52140
  -5155477.97800  21421806.40800                   2937396.34140  21421811.35440
  30013728.01800  24625294.90000                  12997671.14140  24625303.15440
  -6255392.03900  21358273.55700                  -4742969.90440  21358277.02540
  -2651630.42000  23345421.48600                  -1997999.76640  23345425.41240
 96  9  6  0 29 30.0020000  0  6  1 14 15 21 25 29
  17126516.97500  23780435.90000                  13600821.81040  23780440.96340
  -4748210.41700  22981992.70500                  -3629206.76640  22981997.68640
  -5085409.81000  21435140.15800                   2991994.90040  21435145.09240
  30161057.39500  24653330.93200                  13112473.17340  24653335.59640
  -6194049.31500  21369946.57200                  -4695170.37940  21369949.97140
  -2659023.43700  23344014.61100                  -2003760.53040  23344018.93640
 96  9  6  0 30  0.0020000  0  6  1 14 15 21 25 29
  17257709.90400  23805401.30700                  13703050.03040  23805405.65440
  -4772973.26600  22977279.89300                  -3648502.48840  22977285.22540
  -5014726.54500  21448590.82200                   3047072.75640  21448595.53340
  30308577.64000  24681403.54900                  13227423.97940  24681408.26040
  -6132189.41000  21381718.13500                  -4646967.85340  21381721.42840
  -2666256.87800  23342638.15000                  -2009396.94940  23342643.20140
 96  9  6  0 30 30.0020000  0  6  1 14 15 21 25 29
  17388913.33700  23830368.61100                  13805286.46240  23830373.40440
  -4797603.85900  22972593.05700                  -3667695.14340  22972598.43640
  -4943432.69100  21462157.57200                   3102626.39740  21462162.36540
  30456282.75300  24709510.63500                  13342518.80840  24709515.13540
  -6069824.38700  21393585.77500                  -4598371.73340  21393589.26840
  -2673334.35700  23341291.53300                  -2014911.85340  23341295.44740
 96  9  6  0 31  0.0020000  0  6  1 14 15 21 25 29
  17520151.54300  23855342.43200                  13907549.96840  23855346.42840
  -4822101.31500  22967931.18900                  -3686784.05140  22967936.48640
  -4871519.58600  21475841.73600                   3158662.56840  21475846.63540
  30604165.52700  24737652.05700                  13457752.05940  24737658.44340
  -6006946.43000  21405551.08000                  -4549375.92540  21405554.60740
  -2680245.81400  23339976.18200                  -2020297.36740  23339980.62340
 96  9  6  0 31 30.0020000  0  6  1 14 15 21 25 29
  17651447.49900  23880327.40800                  14009858.47740  23880332.13140
  -4846476.88200  22963292.84600                  -3705777.98440  22963297.47540
  -4798986.34800  21489644.59600                   3215181.95940  21489649.67040
  30752217.42600  24765825.26800                  13573117.16140  24765831.19740
  -5943557.33000  21417613.61900                  -4499981.81940  21417617.07640
  -2686997.95300  23338691.35400                  -2025558.74940  23338696.34640
 96  9  6  0 32  0.0020000  0  6  1 14 15 21 25 29
  17782816.10200  23905325.61100                  14112223.58940  23905330.12340
  -4870735.45900  22958676.62700                  -3724680.75640  22958681.19740
  -4725827.48500  21503566.37700                   3272188.84840  21503571.29940
  30900440.89800  24794032.23600                  13688615.91040  24794037.79140
  -5879648.27800  21429774.91600                  -4450182.55940  21429778.32640
  -2693584.30300  23337438.23600                  -2030690.94340  23337442.93640
 96  9  6  0 32 30.0020000  0  6  1 14 15 21 25 29
  17914239.31900  23930334.13500                  14214631.28540  23930338.82240
  -4894887.83700  22954080.97900                  -3743500.78340  22954085.39640
  -4652057.08100  21517604.43200                   3329672.27140  21517609.35440
  31048822.79300  24822266.86100                  13804238.10640  24822274.06140
  -5815230.59900  21442033.40000                  -4399986.96440  21442036.90440
  -2700000.02900  23336217.21300                  -2035690.19840  23336221.56140
 96  9  6  0 33  0.0020000  0  6  1 14 15 21 25 29
  18045687.21400  23955348.43900                  14317058.18740  23955352.99840
  -4918940.76900  22949503.61100                  -3762243.30540  22949507.70140
  -4577685.54300  21531756.72900                   3387624.10640  21531761.60440
  31197355.53700  24850531.53300                  13919977.88540  24850538.53340
  -5750320.14900  21454385.26000                  -4349407.39440  21454388.72940
  -2706251.66900  23335027.53300                  -2040561.57640  23335031.72940
 96  9  6  0 33 30.0020000  0  6  1 14 15 21 25 29
  18177160.25400  23980367.08800                  14419504.69640  23980372.60740
  -4942869.81400  22944950.31400                  -3780889.31940  22944954.67440
  -4502703.29600  21546025.22900                   3446051.81840  21546030.37340
  31346062.36800  24878830.07200                  14035853.29340  24878836.04940
  -5684909.77500  21466832.47900                  -4298438.27240  21466836.04140
  -2712338.05300  23333869.32200                  -2045304.19140  23333873.38940
 96  9  6  0 34  0.0020000  0  6  1 14 15 21 25 29
  18308635.86100  24005386.19700                  14521953.18440  24005390.96740
  -4966673.69300  22940420.68200                  -3799437.77740  22940425.58040
  -4427111.39100  21560410.06400                   3504954.58540  21560415.09240
  31494958.76400  24907163.91600                  14151876.29440  24907167.46740
  -5618997.63700  21479375.24400                  -4247078.16540  21479378.71340
  -2718242.14000  23332746.02500                  -2049904.78040  23332750.31440
 96  9  6  0 34 30.0020000  0  6  1 14 15 21 25 29
  18440102.21000  24030403.43200                  14624394.45840  24030408.02540
  -4990343.34800  22935916.18200                  -3817881.65540  22935920.47140
  -4350905.87900  21574911.66600                   3564335.48840  21574916.60040
  31644060.33900  24935538.20500                  14268059.32140  24935543.63140
  -5552573.13300  21492015.45500                  -4195318.81240  21492018.86540
  -2723964.77400  23331657.03300                  -2054363.94740  23331661.51040
 96  9  6  0 35  0.0020000  0  6  1 14 15 21 25 29
  18571564.85100  24055419.66600                  14726832.86640  24055423.24040
  -5013888.93800  22931435.53300                  -3836228.84640  22931440.30340
  -4274088.65800  21589529.46300                   3624193.05740  21589534.42040
  31793362.82200  24963949.05700                  14384398.81940  24963962.73640
  -5485632.52700  21504753.91600                  -4143157.29940  21504757.31440
  -2729529.58200  23330597.85400                  -2058700.14340  23330601.89640
 96  9  6  0 35 30.0020000  0  6  1 14 15 21 25 29
  18703045.12400  24080439.76000                  14829285.00040  24080444.36540
  -5037300.19500  22926980.01000                  -3854471.37240  22926985.01440
  -4196650.18800  21604265.58800                   3684534.70840  21604270.62740
  31942870.96300  24992398.85400                  14500898.64640  24992409.35740
  -5418148.09800  21517595.79900                  -4090572.02840  21517599.25640
  -2734926.42900  23329571.06400                  -2062905.45540  23329575.63540
 96  9  6  0 36  0.0020000  0  6  1 14 15 21 25 29
  18834541.03600  24105462.58000                  14931749.29940  24105468.15840
  -5060602.56600  22922546.19700                  -3872629.05940  22922551.09640
  -4118600.52300  21619117.72100                   3745352.60740  21619122.70140
  32092568.83200  25020885.33000                  14617546.25540  25020892.88140
  -5350123.56800  21530540.54100                  -4037565.90740  21530543.86940
  -2740155.91400  23328575.96300                  -2066980.37840  23328579.83040
 96  9  6  0 36 30.0020000  0  6  1 14 15 21 25 29
  18966080.12300  24130493.65800                  15034247.27440  24130498.74440
  -5083795.27800  22918132.67400                  -3890701.29340  22918137.52540
  -4039941.05200  21634086.25200                   3806645.68640  21634091.26840
  32242442.40500  25049405.36100                  14734330.79440  25049413.59240
  -5281573.07000  21543584.98600                  -3984149.93740  21543588.56140
  -2745238.06500  23327608.81400                  -2070940.48640  23327612.84640
 96  9  6  0 37  0.0020000  0  6  1 14 15 21 25 29
  19097673.87600  24155535.14300                  15136787.80440  24155540.68640
  -5106875.26700  22913740.75200                  -3908685.69440  22913745.65040
  -3960674.91900  21649170.32200                   3868411.48440  21649175.06840
  32392477.26700  25077956.00200                  14851240.94640  25077962.37740
  -5212513.57400  21556726.84600                  -3930337.34440  21556730.37340
  -2750178.33600  23326668.54900                  -2074790.02640  23326672.85040
 96  9  6  0 37 30.0020000  0  6  1 14 15 21 25 29
  19229319.84800  24180586.24400                  15239369.06940  24180590.55740
  -5129822.50000  22909373.87700                  -3926566.63740  22909378.96340
  -3880799.55500  21664370.13500                   3930652.02040  21664375.09240
  32542678.36100  25106539.89300                  14968280.71840  25106543.52540
  -5142949.45000  21569964.42400                  -3876131.52540  21569967.96340
  -2754958.10400  23325759.15800                  -2078514.49540  23325763.40040
 96  9  6  0 38  0.0020000  0  6  1 14 15 21 25 29
  19361010.32900  24205646.83000                  15341984.99840  24205652.17440
  -5152630.18400  22905033.93200                  -3944338.85040  22905038.40840
  -3800315.57400  21679685.61900                   3993366.79740  21679690.33040
  32693047.02100  25135153.90800                  15085451.03640  25135157.62340
  -5072896.15000  21583294.99400                  -3821544.54240  21583298.54540
  -2759574.88600  23324880.34600                  -2082111.96140  23324884.67040
 96  9  6  0 38 30.0020000  0  6  1 14 15 21 25 29
  19492724.44400  24230710.83800                  15444619.35640  24230714.95140
  -5175278.53500  22900724.09600                  -3961986.90240  22900729.21740
  -3719232.77300  21695115.32200                   4056548.18340  21695120.05740
  32843571.31600  25163798.87700                  15202742.62240  25163811.24440
  -5002367.89900  21596715.93200                  -3766587.46640  21596719.37740
  -2764047.78000  23324029.47100                  -2085597.29840  23324033.43240
 96  9  6  0 39  0.0020000  0  6  1 14 15 21 25 29
  19624459.43300  24255778.63500                  15547269.97940  24255783.10040
  -5197746.73800  22896448.37700                  -3979494.57840  22896453.49840
  -3637538.39000  21710661.29100                   4120206.12740  21710666.27140
  32994269.82200  25192474.31400                  15320169.96940  25192478.15840
  -4931330.09500  21610234.26800                  -3711233.33240  21610237.67840
  -2768342.85600  23323211.78300                  -2088944.08940  23323215.93240
 96  9  6  0 39 30.0030000  0  6  1 14 15 21 25 29
  19756212.10100  24280850.41300                  15649934.36040  24280855.45240
  -5220049.99200  22892203.96800                  -3996873.72940  22892209.00740
  -3555233.17800  21726323.23300                   4184340.04440  21726327.88640
  33145151.96800  25221185.28800                  15437740.40840  25221194.72640
  -4859776.51900  21623850.46000                  -3655477.30740  21623853.84740
  -2772451.56000  23322430.05400                  -2092145.66540  23322434.12040
 96  9  6  0 40  0.0030000  0  6  1 14 15 21 25 29
  19887975.00000  24305924.69400                  15752606.70740  24305928.84340
  -5242196.23800  22887990.14700                  -4014130.52240  22887995.04640
  -3472320.48000  21742101.09300                   4248947.33240  21742105.95640
  33296208.22200  25249930.70200                  15555446.56540  25249938.20640
  -4787707.74300  21637564.55400                  -3599319.81740  21637568.03440
  -2776377.18100  23321682.99900                  -2095204.55140  23321687.38240
 96  9  6  0 40 30.0030000  0  6  1 14 15 21 25 29
  20019746.40500  24331000.49100                  15855285.69840  24331005.31940
  -5264198.87100  22883802.92900                  -4031275.42340  22883808.31940
  -3388803.19200  21757993.88200                   4314025.72240  21757999.01540
  33447439.91100  25278707.53000                  15673289.33240  25278713.56540
  -4715118.56800  21651377.85800                  -3542756.82840  21651381.38640
  -2780125.77500  23320969.44400                  -2098125.50740  23320973.28840
 96  9  6  0 41  0.0030000  0  6  1 14 15 21 25 29
  20151510.79400  24356073.38200                  15957959.21240  24356077.39040
  -5286082.76600  22879638.75700                  -4048327.80740  22879643.53840
  -3304684.79000  21774001.21800                   4379572.51140  21774006.16340
  33598851.02600  25307522.32700                  15791271.88840  25307528.28040
  -4642019.19600  21665288.28800                  -3485796.28840  21665291.76940
  -2783697.23500  23320289.78800                  -2100908.44040  23320293.96040
 96  9  6  0 41 30.0030000  0  6  1 14 15 21 25 29
  20283267.18500  24381146.10100                  16060626.51540  24381151.62040
  -5307848.91200  22875496.81900                  -4065288.41840  22875501.63640
  -3219965.05200  21790122.83500                   4445587.87340  21790127.81540
  33750442.11700  25336369.49900                  15909394.76740  25336377.94040
  -4568429.56300  21679291.73300                  -3428453.71740  21679295.31940
  -2787112.52700  23319640.06200                  -2103569.68640  23319644.08140
 96  9  6  0 42  0.0030000  0  6  1 14 15 21 25 29
  20415021.52900  24406218.75700                  16163292.21140  24406223.93740
  -5329473.91500  22871381.81200                  -4082139.05740  22871386.32340
  -3134640.09200  21806359.57700                   4512074.83740  21806364.64040
  33902214.43200  25365251.50700                  16027658.87340  25365257.96440
  -4494348.37800  21693389.18700                  -3370728.12140  21693392.62040
  -2790383.93800  23319017.81200                  -2106118.81040  23319021.56240
 96  9  6  0 42 30.0030000  0  5  1 14 15 25 29
  20546792.27300  24431293.81900                  16265970.67240  24431298.91740
  -5350932.70900  22867298.28800                  -4098860.18740  22867302.57740
  -3048701.58500  21822713.16300                   4579039.89140  21822718.07340
  -4419767.03100  21707581.22600                  -3312612.79540  21707584.77640
  -2793497.52300  23318425.13200                  -2108544.96540  23318428.83540
 96  9  6  0 43  0.0030000  0  5  1 14 15 25 29
  20678577.16100  24456371.49900                  16368660.17140  24456375.72940
  -5372234.79200  22863244.64000                  -4115459.20240  22863249.17540
  -2962168.76000  21839180.01500                   4646468.05040  21839184.80840
  -4344705.98900  21721865.23300                  -3254123.67540  21721868.64440
  -2796458.90600  23317861.49100                  -2110852.50640  23317865.48740
 96  9  6  0 43 30.0030000  0  5  1 14 15 25 29
  20810401.27200  24481456.62400                  16471380.22840  24481461.24140
  -5393371.62600  22859222.42900                  -4131929.45840  22859226.70640
  -2875039.26900  21855759.99100                   4714361.14240  21855764.99540
  -4269144.61800  21736243.97600                  -3195244.68940  21736247.50340
  -2799259.04500  23317328.58500                  -2113034.40940  23317332.79240
 96  9  6  0 44  0.0030000  0  5  1 14 15 25 29
  20942271.78000  24506551.06200                  16574136.44540  24506556.03040
  -5414330.80900  22855233.91300                  -4148261.28140  22855238.39040
  -2787310.63700  21872454.25700                   4782721.09540  21872459.23740
  -4193070.10200  21750720.47600                  -3135965.84040  21750723.92140
  -2801882.58600  23316829.53800                  -2115078.69840  23316833.67540
 96  9  6  0 44 30.0030000  0  5  1 14 15 25 29
  21074184.26500  24531652.73300                  16676925.37240  24531657.81940
  -5435119.02500  22851278.16300                  -4164459.88740  22851282.30040
  -2698982.88100  21889262.48300                   4851547.89840  21889267.37040
  -4116480.49200  21765294.78800                  -3076285.63240  21765298.18740
  -2804311.47800  23316367.22600                  -2116971.32640  23316371.22240
 96  9  6  0 45  0.0030000  0  5  1 14 15 25 29
  21206127.20400  24556760.64700                  16779738.01840  24556765.86240
  -5455742.42600  22847353.52200                  -4180530.06440  22847357.91740
  -2610055.88400  21906184.94400                   4920841.64740  21906189.83140
  -4039369.29600  21779968.87400                  -3016198.98640  21779972.27240
  -2806553.31400  23315940.61600                  -2118718.18440  23315944.69440
 96  9  6  0 45 30.0030000  0  5  1 14 15 25 29
  21338101.59400  24581874.98300                  16882575.16540  24581879.19040
  -5476177.19500  22843465.24100                  -4196453.25440  22843469.84740
  -2520521.04900  21923222.66300                   4990609.03340  21923227.47940
  -3961732.74800  21794742.45200                  -2955702.97940  21794745.80440
  -2808622.61900  23315547.06900                  -2120330.61240  23315550.83140
 96  9  6  0 46  0.0030000  0  5  1 14 15 25 29
  21470093.47400  24606991.96000                  16985425.95640  24606997.16340
  -5496427.65600  22839611.64700                  -4212232.82140  22839615.90140
  -2430390.34100  21940373.99900                   5060840.74140  21940378.72240
  -3883598.38100  21809611.13200                  -2894819.05840  21809614.54240
  -2810518.74700  23315185.80400                  -2121808.09240  23315189.65940
 96  9  6  0 46 30.0030000  0  5  1 14 15 25 29
  21602108.90600  24632113.93700                  17088295.10640  24632118.90540
  -5516494.31500  22835792.96000                  -4227869.16640  22835797.21440
  -2339659.83600  21957639.71000                   5131539.81740  21957644.59740
  -3804967.84000  21824573.91300                  -2833548.50940  21824577.27640
  -2812231.08900  23314860.24900                  -2123142.35440  23314864.18740
 96  9  6  0 47  0.0030000  0  5  1 14 15 25 29
  21734154.84300  24657241.64700                  17191187.98640  24657248.22240
  -5536364.16900  22832011.89000                  -4243352.16540  22832016.33140
  -2248331.23200  21975018.86600                   5202704.94340  21975023.42540
  -3725846.43500  21839630.22600                  -2771895.47040  21839633.71840
  -2813770.48500  23314567.12400                  -2124341.86340  23314571.35440
 96  9  6  0 47 30.0030000  0  5  1 14 15 25 29
  21866236.40300  24682375.39700                  17294108.66040  24682380.55440
  -5556040.36200  22828267.62400                  -4258684.26140  22828272.31240
  -2156415.78100  21992509.83500                   5274327.35440  21992514.56940
  -3646252.90300  21854776.56900                  -2709874.54540  21854780.06240
  -2815130.82300  23314308.22600                  -2125401.84840  23314312.43340
 96  9  6  0 48  0.0030000  0  5  1 14 15 25 29
  21998373.41300  24707520.43700                  17397072.55740  24707525.73340
  -5575518.78800  22824560.89000                  -4273862.25540  22824565.37840
  -2063890.56900  22010116.78800                   5346424.90540  22010121.53440
  -3566154.73500  21870018.78800                  -2647460.38940  21870022.29240
  -2816274.22300  23314090.82700                  -2126292.78340  23314094.94040
 96  9  6  0 48 30.0030000  0  6  1 14 15 22 25 29
  22130542.15300  24732671.92100                  17500061.12640  24732676.98340
  -5594804.52500  22820890.85100                  -4288890.09140  22820895.33940
  -1970771.06500  22027836.76500                   5418985.54540  22027841.95640
    -32108.19910  25500861.99100
  -3485553.80300  21885356.39700                  -2584654.47140  21885359.91340
  -2817243.45300  23313906.31900                  -2127048.00340  23313910.17540
 96  9  6  0 49  0.0030000  0  6  1 14 15 22 25 29
  22262742.90500  24757828.74100                  17603074.64040  24757834.94040
  -5613898.47800  22817257.35800                  -4303768.49040  22817261.98740
  -1877053.18200  22045670.64700                   5492012.44140  22045675.93340
    -74024.88300  25492884.89700
  -3404430.54800  21900793.64700                  -2521441.55540  21900796.96440
  -2818038.33700  23313755.12400                  -2127667.37640  23313759.24940
 96  9  6  0 49 30.0030000  0  6  1 14 15 22 25 29
  22394975.70200  24782991.82700                  17706113.12840  24782997.82740
  -5632806.25900  22813659.40500                  -4318501.81640  22813663.97640
  -1782729.10600  22063619.86600                   5565511.70440  22063624.95240
   -115955.27400  25484905.45200                     -7624.24850  25484912.96840
  -3322771.38400  21916333.06900                  -2457811.04240  21916336.30440
  -2818645.06400  23313639.53000                  -2128140.12140  23313644.07740
 96  9  6  0 50  0.0030000  0  6  1 14 15 22 25 29
  22527215.55300  24808156.28800                  17809157.17940  24808161.43340
  -5651537.02300  22810095.24900                  -4333097.21340  22810099.77240
  -1687816.30000  22081681.21800                   5639469.71940  22081686.43340
   -157909.91000  25476922.69400                    -40316.15940  25476927.20640
  -3240593.32800  21931971.14700                  -2393776.19640  21931974.41740
  -2819102.03500  23313552.54600                  -2128496.18140  23313556.71840
 96  9  6  0 50 30.0030000  0  6  1 14 15 22 25 29
  22659478.07800  24833325.36600                  17912218.85440  24833330.78040
  -5670060.88300  22806570.22600                  -4347531.38240  22806574.87840
  -1592301.42800  22099857.32700                   5713896.87340  22099862.36640
   -199875.52800  25468936.28000                    -73016.48240  25468943.73740
  -3157886.31300  21947709.53000                  -2329329.17740  21947712.64740
  -2819389.68400  23313497.76500                  -2128720.30840  23313501.77240
 96  9  6  0 51  0.0030000  0  6  1 14 15 22 25 29
  22791764.47400  24858498.19400                  18015299.12440  24858501.87440
  -5688392.26600  22803081.86600                  -4361815.57240  22803086.35440
  -1496192.29100  22118146.24100                   5788787.08540  22118151.12840
   -241861.50800  25460947.81900                   -105732.75340  25460956.47240
  -3074669.36500  21963545.04600                  -2264484.80940  21963548.49140
  -2819491.28600  23313478.88200                  -2128799.45440  23313482.57340
 96  9  6  0 51 30.0030000  0  6  1 14 15 22 25 29
  22924091.66100  24883679.21800                  18118411.18040  24883683.41340
  -5706502.81500  22799635.32700                  -4375927.68740  22799639.99140
  -1399478.26000  22136550.27200                   5864148.65240  22136555.49940
   -283873.94700  25452953.25700                   -138469.68840  25452960.08940
  -2990947.66000  21979476.89700                  -2199247.12240  21979480.31940
  -2819397.54200  23313496.42900                  -2128726.38740  23313499.88640
 96  9  6  0 52  0.0030000  0  6  1 14 15 22 25 29
  23056452.32800  24908866.58500                  18221549.32840  24908871.10840
  -5724379.94800  22796233.42900                  -4389857.91340  22796238.15140
  -1302167.71500  22155067.92900                   5939975.03540  22155072.83940
   -325923.46200  25444951.47600                   -171235.40140  25444956.36240
  -2906739.28500  21995501.11600                  -2133630.21540  21995504.71440
  -2819110.48000  23313550.87400                  -2128502.68840  23313554.71840
 96  9  6  0 52 30.0030000  0  6  1 14 15 22 25 29
  23188838.04800  24934059.16300                  18324706.99940  24934063.71040
  -5742030.39400  22792874.52200                  -4403611.50640  22792879.38640
  -1204268.22600  22173697.47600                   6016260.33340  22173702.42140
   -368006.06500  25436943.37400                   -204026.99340  25436948.16740
  -2822055.56000  22011616.08500                  -2067642.90440  22011619.67140
  -2818617.38700  23313644.79600                  -2128118.44840  23313648.82740
 96  9  6  0 53  0.0030000  0  6  1 14 15 22 25 29
  23321257.25700  24959257.78000                  18427890.74940  24959262.53840
  -5759447.30500  22789560.70200                  -4417183.12240  22789565.23740
  -1105777.88300  22192439.75700                   6093006.03440  22192444.66740
   -410111.80900  25428930.29600                   -236836.59740  25428935.67540
  -2736897.15300  22027821.20200                  -2001285.71040  22027824.57740
  -2817928.95700  23313775.93700                  -2127581.98740  23313779.99140
 96  9  6  0 53 30.0030000  0  6  1 14 15 22 25 29
  23453711.90800  24984462.87400                  18531102.11240  24984469.74540
  -5776618.19500  22786292.93700                  -4430563.02940  22786297.42540
  -1006700.86900  22211293.64700                   6170208.88740  22211298.49940
   -452225.43400  25420915.06900                   -269652.38640  25420921.78440
  -2651260.91800  22044117.21800                  -1934556.17640  22044120.65140
  -2817057.06000  23313941.38200                  -2126902.57540  23313945.43740
 96  9  6  0 54  0.0040000  0  6  1 14 15 22 25 29
  23586195.38500  25009673.71500                  18634335.99740  25009678.78940
  -5793557.72900  22783069.66800                  -4443762.66540  22783074.29740
   -907046.83200  22230257.16000                   6247861.36340  22230261.82440
   -494342.70800  25412899.91000                   -302470.92840  25412904.44540
  -2565149.63400  22060503.73000                  -1867456.48540  22060507.31640
  -2816005.51200  23314141.77700                  -2126083.16740  23314145.71540
 96  9  6  0 54 30.0040000  0  6  1 14 15 22 25 29
  23718720.41500  25034892.20700                  18737602.20040  25034896.66040
  -5810264.26700  22779890.33200                  -4456780.74440  22779895.07840
   -806811.75000  22249331.20700                   6325966.59840  22249335.76640
   -536453.71200  25404887.28500                   -335284.64840  25404893.59040
  -2478534.83900  22076985.93400                  -1799964.44640  22076989.27340
  -2814762.69000  23314378.30900                  -2125114.72640  23314381.97740
 96  9  6  0 55  0.0040000  0  6  1 14 15 22 25 29
  23851307.61700  25060122.82400                  18840916.87340  25060128.12140
  -5826724.92900  22776757.96500                  -4469607.22640  22776762.38340
   -705979.09500  22268519.19100                   6404537.47840  22268524.02040
   -578540.32500  25396878.09000                   -368079.36140  25396883.94940
  -2391389.16800  22093568.96500                  -1732058.73240  22093572.49240
  -2813324.25100  23314652.09000                  -2123993.84440  23314655.95740
 96  9  6  0 55 30.0040000  0  6  1 14 15 22 25 29
  23983932.34900  25085360.61300                  18944260.77740  25085366.21540
  -5842950.85400  22773670.26200                  -4482250.79940  22773674.66840
   -604565.71200  22287817.19900                   6483560.87140  22287822.00440
   -620620.76200  25388871.10500                   -400869.29540  25388875.81640
  -2303731.32500  22110249.96500                  -1663753.93040  22110253.45740
  -2811689.08900  23314963.05900                  -2122719.67440  23314966.91440
 96  9  6  0 56  0.0040000  0  6  1 14 15 22 25 29
  24116573.62100  25110601.09000                  19047617.61240  25110606.93740
  -5858951.55600  22770625.58200                  -4494718.87940  22770630.34040
   -502581.39000  22307224.33200                   6563029.14840  22307229.24240
   -662716.61200  25380860.87100                   -433671.17940  25380867.03540
  -2215576.23700  22127025.09800                  -1595061.66140  22127028.50840
  -2809866.79100  23315310.07400                  -2121299.68040  23315314.18740
 96  9  6  0 56 30.0040000  0  6  1 14 15 22 25 29
  24249235.59100  25135845.83200                  19150990.51140  25135851.89140
  -5874715.06200  22767625.95700                  -4507002.11540  22767630.49240
   -400024.69700  22326739.98800                   6642943.43540  22326745.34440
   -704810.93900  25372850.19900                   -466471.84440  25372856.25840
  -2126926.10300  22143895.01200                  -1525983.63940  22143898.16440
  -2807865.52500  23315690.41800                  -2119740.23040  23315694.06240
 96  9  6  0 57  0.0040000  0  6  1 14 15 22 25 29
  24381920.83100  25161095.35500                  19254381.57340  25161101.55540
  -5890218.70600  22764675.62100                  -4519082.87040  22764679.91040
   -296887.51900  22346366.43400                   6723310.04340  22346371.71940
   -746882.63800  25364844.45700                   -499254.99940  25364851.02040
  -2037795.24400  22160856.12100                  -1456531.02540  22160859.35540
  -2805673.58000  23316107.59000                  -2118032.21140  23316111.68040
 96  9  6  0 57 30.0040000  0  6  1 14 15 22 25 29
  24514623.36700  25186347.77700                  19357786.13640  25186352.25440
  -5905473.32700  22761772.68400                  -4530969.57940  22761777.30140
   -193179.94800  22366101.44900                   6804121.11840  22366106.57040
   -788950.67600  25356838.11300                   -532035.24140  25356844.74640
  -1948206.00100  22177904.20700                  -1386721.23240  22177907.66440
  -2803299.43700  23316559.58200                  -2116182.21340  23316563.21540
 96  9  6  0 58  0.0040000  0  6  1 14 15 22 25 29
  24647347.86400  25211605.17600                  19461207.76040  25211608.38740
  -5920490.16100  22758915.02000                  -4542671.01140  22758919.76640
    -88899.81800  22385945.38700                   6885378.33640  22385950.44940
   -831004.25200  25348836.33200                   -564804.22340  25348841.59440
  -1858149.64400  22195041.44100                  -1316547.46240  22195044.68740
  -2800746.86600  23317045.30100                  -2114193.18040  23317049.10940
 96  9  6  0 58 30.0040000  0  6  1 14 15 22 25 29
  24780091.03700  25236865.33200                  19564643.96140  25236870.13740
  -5935272.32000  22756102.07400                  -4554189.56740  22756106.64540
     15949.85700  22405897.77700                   6967079.36040  22405902.38340
   -873041.24000  25340837.21500                   -597560.21040  25340843.27340
  -1767628.44700  22212266.94900                  -1246011.46540  22212270.39540
  -2798015.53200  23317565.36300                  -2112064.85840  23317569.17240
 96  9  6  0 59  0.0040000  0  6  1 14 15 22 25 29
  24912840.42000  25262125.87100                  19668085.04740  25262130.60540
  -5949835.37600  22753330.81600                  -4565537.39940  22753335.18740
    121367.74700  22425957.96500                   7049223.15040  22425962.80540
   -915070.00400  25332839.08200                   -630309.84940  25332845.65640
  -1676646.87300  22229579.92600                  -1175116.73940  22229583.39540
  -2795100.06700  23318119.91800                  -2109793.05040  23318123.62140
 96  9  6  0 59 30.0040000  0  6  1 14 15 22 25 29
  25045592.68500  25287388.54300                  19771528.30940  25287393.60540
  -5964190.45500  22750599.43400                  -4576723.16640  22750603.75840
    227346.92000  22446125.44100                   7131804.29840  22446130.19940
   -957096.40500  25324841.02700                   -663057.62140  25324847.18040
  -1585197.56100  22246982.19900                  -1103857.54340  22246985.36340
  -2792019.81800  23318706.09800                  -2107392.84040  23318709.84840
 96  9  6  1  0  0.0040000  0  6  1 14 15 22 25 29
  25178349.01700  25312650.57400                  19874974.79940  25312655.02740
  -5978321.64800  22747910.10500                  -4587734.48140  22747914.50040
    333894.16000  22466400.47300                   7214828.10040  22466405.17240
   -999103.34500  25316847.27000                   -695790.21140  25316853.94940
  -1493258.15900  22264478.06600                  -1032216.45140  22264481.27740
  -2788758.69700  23319326.67600                  -2104851.68840  23319330.46140
 96  9  6  1  0 30.0040000  0  6  1 14 15 22 25 29
  25311124.89400  25337917.74600                  19978436.51140  25337924.09840
  -5992219.80600  22745265.35500                  -4598564.21140  22745269.72740
    441001.82900  22486782.55900                   7298288.59840  22486787.63340
  -1041097.66300  25308856.57400                   -728513.03240  25308863.16040
  -1400822.70300  22282068.05900                   -960188.83540  22282071.27040
  -2785314.19300  23319981.91000                  -2102167.64240  23319985.94140
 96  9  6  1  1  0.0040000  0  6  1 14 15 22 25 29
  25443944.02700  25363191.66800                  20081931.89040  25363197.21140
  -6005879.39400  22742665.98800                  -4609208.03740  22742670.54740
    548668.93400  22507270.73000                   7382185.01940  22507275.54740
  -1083078.03000  25300868.16000                   -761224.96040  25300874.33640
  -1307878.95600  22299754.55100                   -887765.14340  22299757.80940
  -2781679.63500  23320673.70700                  -2099335.50740  23320677.42240
 96  9  6  1  1 30.0040000  0  6  1 14 15 22 25 29
  25576841.64000  25388481.56600                  20185488.42340  25388486.55940
  -6019274.00500  22740117.25400                  -4619645.39540  22740121.69540
    656908.12100  22527867.96500                   7466527.22440  22527873.02740
  -1125031.42500  25292883.91800                   -793915.84540  25292892.00840
  -1214409.48100  22317541.13700                   -814931.79940  22317544.50040
  -2777839.04900  23321404.75400                  -2096342.83540  23321408.51640
 96  9  6  1  2  0.0040000  0  6  1 14 15 22 25 29
  25709815.62700  25413786.41800                  20289104.48940  25413790.07440
  -6032398.96900  22737619.51200                  -4629872.63340  22737623.76640
    765708.61500  22548572.19100                   7551306.80340  22548576.98440
  -1166962.25100  25284905.03500                   -826589.22140  25284909.80540
  -1120442.97100  22335422.25400                   -741711.15240  22335425.68740
  -2773787.28800  23322175.60500                  -2093185.61840  23322179.10940
 96  9  6  1  2 30.0040000  0  6  1 14 15 22 25 29
  25842880.39300  25439107.28500                  20392791.31340  25439110.90640
  -6045235.61100  22735176.84000                  -4639875.20540  22735181.31640
    875073.02500  22569383.48000                   7636525.80940  22569388.35540
  -1208860.97500  25276931.62100                   -859237.48240  25276936.87140
  -1025992.93300  22353395.48800                   -668113.72840  22353398.87540
  -2769536.72300  23322984.44900                  -2089873.48040  23322987.95340
 96  9  6  1  3  0.0040000  0  6  1 14 15 22 25 29
  25976002.34300  25464439.20700                  20496522.69240  25464444.18740
  -6057785.16700  22732788.62900                  -4649654.08040  22732793.01240
    984996.31600  22590301.13700                   7722180.29740  22590306.01240
  -1250716.94300  25268967.05100                   -891852.49340  25268973.32040
   -931094.30800  22371454.37900                   -594166.76040  22371457.61340
  -2765103.07600  23323827.97300                  -2086418.68140  23323831.66440
 96  9  6  1  3 30.0040000  0  6  1 14 15 22 25 29
  26109151.07000  25489776.19100                  20600274.90440  25489781.79340
  -6070049.46900  22730454.84000                  -4659210.67640  22730459.51640
   1095468.81700  22611323.55900                   7808262.74040  22611328.44540
  -1292520.17800  25261011.87100                   -924426.38140  25261017.07440
   -835760.42700  22389595.77700                   -519880.62240  22389599.02340
  -2760500.96700  23324703.61300                  -2082832.60240  23324707.32840
 96  9  6  1  4  0.0040000  0  6  1 14 15 22 25 29
  26242326.69200  25515119.75400                  20704048.10640  25515125.71940
  -6082005.19900  22728179.66000                  -4668526.82340  22728183.99640
   1206496.04500  22632451.16000                   7894777.44240  22632456.21140
  -1334257.04700  25253069.66800                   -956948.58640  25253076.69140
   -739973.91800  22407823.20700                   -445241.79840  22407826.55940
  -2755720.88000  23325613.33200                  -2079107.85240  23325617.29340
 96  9  6  1  4 30.0040000  0  6  1 14 15 22 25 29
  26375520.42800  25540465.59000                  20807835.38740  25540472.27040
  -6093659.48900  22725961.97300                  -4677608.08440  22725966.47340
   1318080.60100  22653685.06600                   7981726.42340  22653690.10540
  -1375920.68200  25245141.31600                   -989413.72040  25245146.26240
   -643712.31500  22426141.30900                   -370232.76140  22426144.66040
  -2750764.80200  23326556.51200                  -2075245.96640  23326560.01640
 96  9  6  1  5  0.0040000  0  6  1 14 15 22 25 29
  26508726.81100  25565813.62900                  20911632.56040  25565818.34040
  -6105034.10600  22723797.79300                  -4686471.42140  22723802.25840
   1430217.55700  22675024.09000                   8069105.85040  22675029.03540
  -1417503.37400  25237228.39500                  -1021815.76140  25237234.61740
   -546971.65700  22444550.34000                   -294850.43940  22444553.60940
  -2745616.39100  23327536.19900                  -2071234.20340  23327539.99640
 96  9  6  1  5 30.0040000  0  6  1 14 15 22 25 29
  26641952.65800  25591165.55100                  21015444.88840  25591170.27340
  -6116123.05300  22721687.49600                  -4695112.15340  22721691.85540
   1542900.29100  22696467.16000                   8156910.55640  22696471.85940
  -1459019.23900  25229328.33200                  -1054165.72840  25229334.30940
   -449744.79800  22463052.10500                   -219089.26240  22463055.37540
  -2740271.44900  23328553.55900                  -2067069.29540  23328557.08640
 96  9  6  1  6  0.0040000  0  6  1 14 15 22 25 29
  26775204.41400  25616522.54300                  21119277.39740  25616528.66040
  -6126928.98500  22719631.02000                  -4703532.36240  22719635.36740
   1656131.96700  22718014.08200                   8245143.00740  22718018.98040
  -1500465.59700  25221441.49600                  -1086461.56940  25221446.69940
   -352039.68300  22481644.66000                   -142955.41540  22481647.87140
  -2734710.65600  23329611.26200                  -2062736.19840  23329615.28140
 96  9  6  1  6 30.0040000  0  6  1 14 15 22 25 29
  26908472.08800  25641882.16800                  21223122.30440  25641887.93440
  -6137462.54600  22717626.54300                  -4711740.32540  22717631.16040
   1769913.22800  22739666.06600                   8333803.70940  22739671.21140
  -1541834.75800  25213569.38700                  -1118697.23540  25213574.56640
   -253876.64500  22500324.54300                    -66464.74440  22500328.07040
  -2728924.65100  23330712.65200                  -2058227.59940  23330716.44940
 96  9  6  1  7  0.0040000  0  6  1 14 15 22 25 29
  27041760.73800  25667246.26200                  21326983.56540  25667251.44140
  -6147712.16700  22715676.17600                  -4719727.03240  22715680.58240
   1884245.50400  22761422.76200                   8422893.77040  22761427.69540
  -1583120.26800  25205712.76200                  -1150867.70340  25205717.54340
   -155261.45400  22519090.37900                     10378.25840  22519093.80140
  -2722902.55400  23331858.55900                  -2053535.05240  23331862.25040
 96  9  6  1  7 30.0040000  0  6  1 14 15 22 25 29
  27175057.36800  25692612.19100                  21430851.03640  25692616.04740
  -6157679.25100  22713779.32400                  -4727493.58740  22713783.77740
   1999118.16200  22783282.06600                   8512404.90940  22783287.28140
  -1624329.03100  25197871.20700                  -1182978.39640  25197877.84040
    -56195.84500  22537942.09000                     87572.23040  22537945.40640
  -2716661.92900  23333046.09800                  -2048672.21940  23333050.05940
 96  9  6  1  8  0.0050000  0  6  1 14 15 22 25 29
  27308370.16200  25717981.08700                  21534731.09440  25717988.31040
  -6167369.97800  22711935.45400                  -4735044.79540  22711939.87240
   2114535.65500  22805245.69600                   8602340.59940  22805250.81740
  -1665446.21000  25190046.07900                  -1215017.67540  25190053.11440
     43333.39800  22556881.67300                    165127.47840  22556885.06040
  -2710208.93900  23334273.85300                  -2043643.89140  23334277.55640
 96  9  6  1  8 30.0050000  0  6  1 14 15 22 25 29
  27441708.38300  25743354.32900                  21638630.99640  25743359.34540
  -6176762.76200  22710147.91500                  -4742363.84040  22710152.48540
   2230496.66300  22827312.49300                   8692699.80240  22827317.25140
  -1706456.14300  25182242.61800                  -1246973.44340  25182248.05640
    143341.03900  22575912.66500                    243055.50340  22575915.94640
  -2703554.76500  23335540.17300                  -2038458.81040  23335543.98140
 96  9  6  1  9  0.0050000  0  6  1 14 15 22 25 29
  27575087.71600  25768735.46200                  21742562.91540  25768740.66540
  -6185861.93300  22708416.39200                  -4749454.09740  22708421.06740
   2346993.75300  22849481.06300                   8783476.72940  22849485.98540
  -1747351.66600  25174460.21200                  -1278840.01440  25174467.95040
    243840.06100  22595036.78200                    321366.42440  22595040.15740
  -2696717.40100  23336841.56300                  -2033130.97940  23336845.37240
 96  9  6  1  9 30.0050000  0  6  1 14 15 22 25 29
  27708515.56900  25794125.55600                  21846532.64340  25794131.04040
  -6194661.14400  22706742.07100                  -4756310.62040  22706746.38440
   2464022.94500  22871750.92300                   8874668.28440  22871755.89240
  -1788133.29900  25166699.61000                  -1310617.87340  25166706.27840
    344823.20500  22614253.25100                    400054.57740  22614256.68540
  -2689698.82000  23338176.86800                  -2027661.94940  23338180.47840
 96  9  6  1 10  0.0050000  0  6  1 14 15 22 25 29
  27841997.48900  25819526.65700                  21950544.48640  25819530.29040
  -6203149.33700  22705126.89200                  -4762924.79940  22705131.05240
   2581583.85000  22894122.11800                   8966274.15240  22894127.33340
  -1828808.80000  25158959.95400                  -1342313.02740  25158966.10640
    446276.62800  22633559.16500                    479109.18540  22633562.75140
  -2682485.41300  23339549.47800                  -2022041.10640  23339553.34540
 96  9  6  1 10 30.0050000  0  6  1 14 15 22 25 29
  27975552.35200  25844941.00100                  22054613.19840  25844947.29440
  -6211313.80900  22703573.25900                  -4769286.71340  22703577.60640
   2699680.41500  22916594.96200                   9058297.42940  22916600.27040
  -1869367.74400  25151241.68800                  -1373917.35240  25151247.85340
    548189.04600  22652952.44600                    558521.45140  22652955.95040
  -2675062.32000  23340962.18800                  -2016256.85940  23340965.72840
 96  9  6  1 11  0.0050000  0  6  1 14 15 22 25 29
  28109167.27200  25870367.57900                  22158728.69740  25870372.50140
  -6219161.55400  22702079.71200                  -4775401.83240  22702084.24740
   2818303.88100  22939168.37600                   9150731.27240  22939173.41540
  -1909816.97100  25143544.20400                  -1405436.19040  25143548.41140
    650532.62600  22672427.81300                    638269.68840  22672431.38840
  -2667425.26300  23342415.25100                  -2010305.89140  23342419.15340
 96  9  6  1 11 30.0050000  0  6  1 14 15 22 25 29
  28242831.76500  25895802.54000                  22262882.78040  25895809.66940
  -6226673.73300  22700650.38400                  -4781255.47540  22700654.91940
   2937456.17500  22961842.34500                   9243577.17840  22961847.64240
  -1950168.62400  25135865.17300                  -1436878.97940  25135870.85640
    753301.36700  22691984.33700                    718349.21740  22691987.85340
  -2659576.28900  23343908.99300                  -2004189.79940  23343913.01340
 96  9  6  1 12  0.0050000  0  6  1 14 15 22 25 29
  28376541.03500  25921246.24300                  22367071.77940  25921251.30640
  -6233846.66200  22699285.14200                  -4786844.76940  22699289.59540
   3057133.39200  22984616.22000                   9336832.13640  22984621.07140
  -1990409.26200  25128207.82100                  -1468235.28140  25128212.68540
    856494.55400  22711621.36800                    798759.48740  22711624.77840
  -2651530.74600  23345440.11000                  -1997920.53640  23345443.63840
 96  9  6  1 12 30.0050000  0  6  1 14 15 22 25 29
  28510284.48300  25946697.38400                  22471287.46040  25946702.69240
  -6240683.38300  22697984.30600                  -4792172.07840  22697988.75940
   3177328.21900  23007488.80600                   9430490.41040  23007493.64540
  -2030530.15000  25120572.73500                  -1499498.29940  25120578.85340
    960115.26900  22731339.61000                    879502.89540  22731343.31340
  -2643309.08500  23347004.79000                  -1991514.03240  23347008.21240
 96  9  6  1 13  0.0050000  0  6  1 14 15 22 25 29
  28644060.33400  25972154.33700                  22575528.35740  25972160.20840
  -6247175.18000  22696748.97800                  -4797230.61540  22696753.44240
   3298050.05600  23030461.22800                   9524559.35040  23030466.17340
  -2070526.75500  25112961.39900                  -1530664.42640  25112968.00940
   1064199.86000  22751146.07900                    960607.75240  22751149.44240
  -2634905.04500  23348603.94600                  -1984965.42940  23348607.54440
 96  9  6  1 13 30.0050000  0  6  1 14 15 22 25 29
  28777859.11800  25997614.79800                  22679787.11340  25997619.95440
  -6253336.87900  22695576.64200                  -4802031.92940  22695580.96640
   3419286.71800  23053531.74300                   9619029.44740  23053536.71240
  -2110399.27200  25105373.97000                  -1561733.90440  25105378.43540
   1168753.96800  22771042.25900                   1042078.47840  22771045.55240
  -2626329.30400  23350235.61800                  -1978283.02740  23350239.41540
 96  9  6  1 14  0.0050000  0  6  1 14 15 22 25 29
  28911699.32300  26023084.77400                  22784078.14940  26023091.26740
  -6259180.87200  22694464.53200                  -4806585.69140  22694468.78640
   3541042.23000  23076701.21200                   9713903.84540  23076705.86440
  -2150123.54500  25097815.66500                  -1592687.81740  25097821.17340
   1273784.48400  22791028.89200                   1123920.42740  22791032.25540
  -2617555.11600  23351905.49300                  -1971445.98740  23351909.19640
 96  9  6  1 14 30.0050000  0  6  1 14 15 22 25 29
  29045566.74500  26048558.64900                  22888390.38740  26048564.26340
  -6264725.16600  22693409.40700                  -4810905.91240  22693413.45040
   3663304.30800  23099966.84500                   9809172.97340  23099971.62640
  -2189719.07900  25090280.21200                  -1623541.43540  25090285.64940
   1379285.33400  22811105.03200                   1206128.87440  22811108.48940
  -2608578.01200  23353613.73500                  -1964450.82940  23353617.52040
 96  9  6  1 15  0.0050000  0  6  1 14 15 22 25 29
  29179471.42500  26074039.95400                  22992731.67740  26074045.11040
  -6269964.28500  22692412.33700                  -4814988.33440  22692416.47440
   3786069.53600  23123328.34500                   9904834.16540  23123333.44240
  -2229181.35600  25082770.93100                  -1654291.22840  25082776.98940
   1485245.22200  22831268.47800                   1288695.01040  22831271.78240
  -2599381.47100  23355363.56300                  -1957284.68540  23355367.27840
 96  9  6  1 15 30.0050000  0  6  1 14 15 22 25 29
  29313422.86300  26099529.90700                  23097109.40040  26099533.56340
  -6274881.84600  22691476.50900                  -4818820.19740  22691480.82140
   3909340.41300  23146785.94600                  10000889.37240  23146790.83340
  -2268497.88300  25075289.54800                  -1684927.44740  25075294.35340
   1591645.56800  22851516.01700                   1371604.36640  22851519.29840
  -2589950.57200  23357158.43100                  -1949935.92440  23357162.08740
 96  9  6  1 16  0.0050000  0  6  1 14 15 22 25 29
  29447426.09300  26125029.74300                  23201527.49640  26125036.38840
  -6279460.50300  22690605.24300                  -4822387.97440  22690609.54440
   4033123.49500  23170341.04000                  10097343.68840  23170346.14940
  -2307676.71900  25067833.39200                  -1715456.37040  25067837.30640
   1698492.05000  22871848.15700                   1454861.35440  22871851.60340
  -2580281.29100  23358998.28200                  -1942401.40740  23359002.19640
 96  9  6  1 16 30.0050000  0  6  1 14 15 22 25 29
  29581467.74900  26150537.11000                  23305975.48040  26150543.20440
  -6283694.79600  22689799.61800                  -4825687.42240  22689804.06040
   4157404.49800  23193991.10300                  10194185.99640  23193996.07140
  -2346738.05400  25060400.27400                  -1745893.72740  25060405.87640
   1805771.03900  22892262.53200                   1538455.36040  22892266.04840
  -2570402.56200  23360878.43800                  -1934703.69240  23360882.15340
 96  9  6  1 17  0.0050000  0  6  1 14 15 22 25 29
  29715542.46500  26176050.82900                  23410449.26940  26176054.38040
  -6287589.09800  22689058.56300                  -4828721.93440  22689063.00540
   4282178.35600  23217734.67300                  10291412.34340  23217739.51340
  -2385672.21300  25052991.36800                  -1776232.00240  25052997.15740
   1913470.95300  22912757.47000                   1622377.35840  22912760.73940
  -2560330.29300  23362795.00900                  -1926855.16040  23362798.75940
 96  9  6  1 17 30.0050000  0  6  1 14 15 22 25 29
  29849653.51000  26201571.73500                  23514951.37440  26201578.13440
  -6291135.13500  22688383.74300                  -4831485.07240  22688388.09140
   4407455.64200  23241574.11000                  10389030.98540  23241578.95040
  -2424468.45600  25045608.65700                  -1806462.80040  25045614.95040
   2021606.17000  22933334.65700                   1706638.56240  22933338.05640
  -2550070.68400  23364747.18100                  -1918860.64340  23364750.73140
 96  9  6  1 18  0.0050000  0  6  1 14 15 22 25 29
  29983792.50200  26227097.45400                  23619475.21740  26227103.09140
  -6294336.57700  22687774.40700                  -4833979.69840  22687778.83740
   4533228.29900  23265508.15700                  10487035.62640  23265513.18540
  -2463122.44800  25038253.11000                  -1836582.72140  25038257.81040
   2130172.29300  22953994.11800                   1791235.52740  22953997.62240
  -2539638.22800  23366732.46200                  -1910731.44340  23366735.87240
 96  9  6  1 18 30.0050000  0  6  1 14 15 22 25 29
  30117962.29700  26252629.24300                  23724023.06540  26252634.72840
  -6297189.93600  22687231.55600                  -4836203.09140  22687235.70440
   4659490.94300  23289535.10300                  10585422.06440  23289539.96640
  -2501608.57800  25030929.50100                  -1866571.90440  25030935.17340
   2239163.46200  22974734.65700                   1876163.70240  22974737.92740
  -2529030.65700  23368751.11000                  -1902465.78440  23368754.73140
 96  9  6  1 19  0.0050000  0  6  1 14 15 22 25 29
  30252155.97700  26278165.56300                  23828589.53940  26278171.07140
  -6299701.09000  22686753.57100                  -4838159.82440  22686757.88440
   4786239.80800  23313654.45400                  10684187.38940  23313659.55240
  -2539928.77100  25023637.49300                  -1896431.76340  25023642.53240
   2348575.76600  22995554.93800                   1961420.03540  22995558.13840
  -2518240.23100  23370804.40700                  -1894057.65240  23370808.11040
 96  9  6  1 19 30.0050000  0  6  1 14 15 22 25 29
  30386379.85000  26303707.37600                  23933179.64840  26303711.24340
  -6301860.96900  22686342.79000                  -4839842.83840  22686346.98540
   4913470.17000  23337865.63400                  10783327.90340  23337870.66140
  -2578086.67700  25016376.41500                  -1926165.14640  25016381.17340
   2458414.86800  23016456.67300                   2047008.93940  23016460.06040
  -2507260.38400  23372893.77400                  -1885501.91340  23372897.33740
 96  9  6  1 20  0.0050000  0  6  1 14 15 22 25 29
  30520637.89900  26329256.37600                  24037796.21740  26329257.87640
  -6303655.20800  22686001.18800                  -4841240.94440  22686005.54840
   5041183.83600  23362168.79800                  10882845.02040  23362174.31740
  -2616066.74000  25009149.08700                  -1955759.96340  25009154.95840
   2568690.24900  23037441.36000                   2132937.79740  23037444.58340
  -2496075.31600  23375022.26700                  -1876786.25540  23375025.98140
 96  9  6  1 20 30.0050000  0  6  1 14 15 22 25 29
  30654941.26100  26354813.05600                  24142448.15740  26354819.93840
  -6305085.53600  22685728.88400                  -4842355.47340  22685733.19640
   5169385.13400  23386564.74300                  10982742.10840  23386569.91140
  -2653863.22700  25001955.54000                  -1985211.72740  25001960.09940
   2679404.02000  23058509.81300                   2219208.26240  23058512.87240
  -2484673.25000  23377192.18100                  -1867901.51440  23377195.81340
 96  9  6  1 21  0.0050000  0  6  1 14 15 22 25 29
  30789276.30200  26380376.56300                  24247124.83840  26380375.57940
  -6306170.84600  22685522.35300                  -4843201.16840  22685526.75940
   5298059.03600  23411050.73500                  11083007.45140  23411055.89240
  -2691490.23800  24994796.06300                  -2014531.45740  24994799.87240
   2790536.39100  23079657.57100                   2305804.90340  23079660.66540
  -2473065.68800  23379400.86000                  -1858856.64940  23379404.39940
 96  9  6  1 21 30.0050000  0  6  1 14 15 22 25 29
  30923656.04700  26405948.17300                  24351836.32140  26405953.52840
  -6306885.15800  22685386.39200                  -4843757.77040  22685390.70440
   5427216.79900  23435628.64200                  11183649.83140  23435633.54040
  -2728910.18800  24987675.78200                  -2043689.81040  24987681.58340
   2902099.42200  23100887.26700                   2392737.13140  23100890.36040
  -2461240.37400  23381651.04800                  -1849642.09940  23381654.57540
 96  9  6  1 22  0.0050000  0  6  1 14 15 22 25 29
  31058076.43000  26431527.02400                  24456579.48640  26431532.98940
  -6307238.13000  22685319.33700                  -4844032.81140  22685323.68540
   5556854.66300  23460298.10300                  11284666.31140  23460302.89540
  -2766117.88700  24980595.60300                  -2072682.79840  24980600.70040
   3014075.57300  23122195.54000                   2479991.26640  23122198.91540
  -2449189.98200  23383944.17300                  -1840252.17340  23383947.84140
 96  9  6  1 22 30.0060000  0  6  1 14 15 22 25 29
  31192549.96600  26457116.66200                  24561364.02540  26457122.97840
  -6307235.53100  22685319.74000                  -4844030.77540  22685324.12340
   5686971.02900  23485058.36500                  11386055.66240  23485063.20540
  -2803120.70300  24973553.37300                  -2101516.12140  24973558.09640
   3126456.33100  23143580.62300                   2567560.67740  23143584.13940
  -2436917.53900  23386279.31800                  -1830689.22040  23386282.82240
 96  9  6  1 23  0.0060000  0  6  1 14 15 22 25 29
  31327077.96000  26482716.17800                  24666191.00940  26482718.85040
  -6306852.57000  22685392.73200                  -4843732.35940  22685396.82240
   5817560.01800  23509908.41200                  11487813.29240  23509913.61540
  -2839905.96200  24966553.55300                  -2130179.93640  24966559.58840
   3239244.06400  23165043.47500                   2655447.21740  23165046.82640
  -2424420.02000  23388657.47500                  -1820950.86840  23388661.03740
 96  9  6  1 23 30.0060000  0  6  1 14 15 22 25 29
  31461652.56100  26508324.74000                  24771054.32140  26508328.05740
  -6306093.12300  22685537.32600                  -4843140.58940  22685541.46340
   5948608.59300  23534846.29500                  11589929.02940  23534851.24040
  -2876494.57200  24959590.81100                  -2158690.54040  24959596.35340
   3352421.95100  23186580.81100                   2743637.76540  23186584.26840
  -2411719.79800  23391074.31100                  -1811054.58440  23391077.83840
 96  9  6  1 24  0.0060000  0  6  1 14 15 22 25 29
  31596286.06200  26533943.31800                  24875963.51540  26533946.93940
  -6304950.57200  22685754.80300                  -4842250.28040  22685759.30340
   6080126.14400  23559873.24000                  11692410.21440  23559878.06840
  -2912885.80300  24952665.96700                  -2187047.26940  24952671.58040
   3465992.33200  23208192.36500                   2832134.16040  23208195.60040
  -2398797.16900  23393533.31800                  -1800984.98540  23393536.90440
 96  9  6  1 24 30.0060000  0  6  1 14 15 22 25 29
  31730978.97200  26559576.35000                  24980918.99340  26559583.13540
  -6303404.03500  22686049.02900                  -4841045.18740  22686053.41240
   6212108.38000  23584988.60700                  11795253.48540  23584993.55340
  -2949077.75200  24945778.58400                  -2215248.75340  24945783.09640
   3579968.53800  23229881.40400                   2920946.78740  23229884.47540
  -2385666.08900  23396032.38100                  -1790752.96540  23396035.90840
 96  9  6  1 25  0.0060000  0  5  1 14 15 25 29
  31865725.98600  26585218.06100                  25085916.60640  26585222.86540
  -6301454.12000  22686420.00600                  -4839525.77240  22686424.16640
   6344557.72600  23610192.53700                  11898460.73640  23610197.72840
   3694359.64400  23251649.32600                   3010082.70640  23251652.45540
  -2372319.33400  23398572.15400                  -1780352.87640  23398575.71740
 96  9  6  1 25 30.0060000  0  4 14 15 25 29
  -6299122.85400  22686863.88900                  -4837709.21240  22686868.10740
   6477460.70400  23635483.45900                  12002021.46040  23635488.51040
   3809158.99400  23273495.09200                   3099536.73540  23273498.25640
  -2358757.08000  23401152.96700                  -1769784.87640  23401156.37740
 96  9  6  1 26  0.0060000  0  4 14 15 25 29
  -6296407.61400  22687380.43600                  -4835593.43540  22687384.76040
   6610820.16800  23660861.10000                  12105937.90440  23660866.23240
   3924384.45200  23295421.43600                   3189322.79740  23295424.70540
  -2344969.29300  23403776.76400                  -1759041.13140  23403780.13940
 96  9  6  1 26 30.0060000  0  4 14 15 25 29
  -6293304.39500  22687970.97500                  -4833175.33940  22687975.27540
   6744640.97600  23686326.35000                  12210213.82440  23686331.14340
   4040053.67700  23317432.63100                   3279454.65340  23317435.88940
  -2330960.59200  23406442.58400                  -1748125.24940  23406445.99440
 96  9  6  1 27  0.0060000  0  4 14 15 25 29
  -6289824.50000  22688632.92000                  -4830463.73640  22688637.32640
   6878921.61400  23711879.01400                  12314848.06140  23711884.25240
   4156144.49400  23339523.87300                   3369915.02140  23339527.23640
  -2316728.12500  23409150.47500                  -1737035.00440  23409154.26040
 96  9  6  1 27 30.0060000  0  4 14 15 25 29
  -6285932.36700  22689373.72500                  -4827430.90440  22689377.99040
   7013673.36300  23737521.70900                  12419849.39340  23737526.71340
   4272669.03700  23361698.07600                   3460713.35940  23361701.27540
  -2302263.83400  23411902.95900                  -1725764.11740  23411906.38140
 96  9  6  1 28  0.0060000  0  4 14 15 25 29
  -6281639.10900  22690190.77900                  -4824085.50640  22690195.18640
   7148868.65900  23763248.00600                  12525196.34940  23763253.08040
   4389587.16000  23383946.96700                   3551818.38340  23383950.16640
  -2287601.99400  23414693.24000                  -1714339.29940  23414696.81440
 96  9  6  1 28 30.0060000  0  4 14 15 25 29
  -6276934.29000  22691086.04500                  -4820419.41340  22691090.38140
   7284506.77600  23789059.43600                  12630888.35940  23789064.27540
   4506892.80900  23406269.22500                   3643225.37140  23406272.65840
  -2272741.49200  23417521.33400                  -1702759.68140  23417524.75640
 96  9  6  1 29  0.0060000  0  4 14 15 25 29
  -6271783.91700  22692065.81800                  -4816406.13440  22692070.18940
   7420601.74200  23814957.71700                  12736936.35640  23814962.60340
   4624601.06400  23428668.44300                   3734946.08040  23428671.92440
  -2257665.31500  23420389.78700                  -1691012.00640  23420393.25640
 96  9  6  1 29 30.0060000  0  4 14 15 25 29
  -6266182.12300  22693131.95100                  -4812041.09840  22693136.27540
   7557156.17400  23840943.02900                  12843342.37440  23840947.99840
   4742726.56000  23451147.06100                   3826991.91340  23451150.31840
  -2242371.37000  23423299.95900                  -1679094.63040  23423303.49840
 96  9  6  1 30  0.0060000  0  4 14 15 25 29
  -6260157.49600  22694278.56800                  -4807346.58640  22694282.75240
   7694152.88900  23867012.70900                  12950093.02440  23867017.80740
   4861254.81600  23473702.31100                   3919351.58240  23473705.73240
  -2226873.00400  23426249.44300                  -1667017.97540  23426253.02940
 96  9  6  1 30 30.0060000  0  4 14 15 25 29
  -6253714.37100  22695504.71700                  -4802325.96440  22695508.83040
   7831594.02600  23893166.79500                  13057189.99140  23893171.76440
   4980193.70500  23496335.35700                   4012031.23240  23496338.82640
  -2211162.20500  23429239.35000                  -1654775.79040  23429242.88940
 96  9  6  1 31  0.0060000  0  4 14 15 25 29
  -6246862.64500  22696808.26400                  -4796986.95440  22696812.45940
   7969471.92000  23919403.82600                  13164627.27640  23919409.13540
   5099535.00300  23519045.20100                   4105024.44240  23519048.60040
  -2195227.38900  23432271.77900                  -1642359.03840  23432275.24840
 96  9  6  1 31 30.0060000  0  4 14 15 25 29
  -6239604.19000  22698189.95900                  -4791331.01640  22698194.11940
   8107789.44100  23945725.06800                  13272407.11940  23945730.49440
   5219279.54900  23541831.81800                   4198331.87140  23541835.28740
  -2179047.57500  23435350.53700                  -1629751.38640  23435353.78340
 96  9  6  1 32  0.0060000  0  4 14 15 25 29
  -6231924.45600  22699651.20900                  -4785346.81040  22699655.27540
   8246553.33100  23972131.17800                  13380534.79040  23972135.99440
   5339434.11800  23564696.67000                   4291958.79640  23564700.17440
  -2162599.49100  23438480.50600                  -1616934.69540  23438483.85740
 96  9  6  1 32 30.0060000  0  4 14 15 25 29
  -6223821.73100  22701193.15400                  -4779032.99640  22701197.45540
   8385756.79700  23998620.67000                  13489004.98540  23998625.36940
   5459984.56700  23587636.59200                   4385894.20240  23587639.85040
  -2145887.50400  23441660.47500                  -1603912.36340  23441663.96740
 96  9  6  1 33  0.0060000  0  4 14 15 25 29
  -6215291.39600  22702816.17800                  -4772385.97540  22702820.46740
   8525396.22400  24025193.24800                  13597814.90240  24025198.14640
   5580933.43000  23610652.54500                   4480140.06640  23610656.03740
  -2128916.50100  23444889.99800                  -1590688.20240  23444893.49040
 96  9  6  1 33 30.0060000  0  4 14 15 25 29
  -6206325.49000  22704522.52900                  -4765399.55240  22704526.77140
   8665464.96300  24051847.41200                  13706959.33940  24051852.61540
   5702269.48500  23633741.92000                   4574687.63140  23633745.34240
  -2111717.03400  23448162.85000                  -1577286.01040  23448166.36540
 96  9  6  1 34  0.0060000  0  4 14 15 25 29
  -6196915.56700  22706313.22500                  -4758067.13540  22706317.54940
   8805953.81200  24078581.49000                  13816431.14040  24078587.03340
   5823985.48900  23656903.70900                   4669531.26240  23656907.24840
  -2094307.23200  23451475.79500                  -1563719.92740  23451479.21740
 96  9  6  1 34 30.0060000  0  4 14 15 25 29
  -6187053.76500  22708189.77900                  -4750382.60840  22708194.13940
   8946864.53400  24105396.10000                  13926231.66740  24105401.52540
   5946093.54000  23680140.01400                   4764680.38740  23680143.43640
  -2076695.75900  23454827.42000                  -1549996.69640  23454830.67840
 96  9  6  1 35  0.0060000  0  4 14 15 25 29
  -6176731.73500  22710154.09200                  -4742339.46340  22710158.27540
   9088196.43800  24132290.80300                  14036360.38240  24132295.87740
   6068600.96700  23703452.68600                   4860140.71140  23703456.09640
  -2058888.99100  23458215.88900                  -1536121.28740  23458219.22840
 96  9  6  1 35 30.0060000  0  4 14 15 25 29
  -6165939.86500  22712207.49000                  -4733930.21540  22712211.68640
   9229951.56000  24159265.70100                  14146818.88240  24159270.85740
   6191517.30900  23726842.93600                   4955919.67240  23726846.31140
  -2040887.87800  23461641.21700                  -1522094.43840  23461644.36940
 96  9  6  1 36  0.0070000  0  4 14 15 25 29
  -6154688.34500  22714348.62800                  -4725162.79040  22714352.87040
   9372134.85200  24186321.91700                  14257611.01940  24186327.03840
   6314863.88700  23750314.71400                   5052033.87740  23750318.14740
  -2022679.11800  23465106.30800                  -1507905.78240  23465109.60140
 96  9  6  1 36 30.0070000  0  5 14 15 18 25 29
  -6142996.17100  22716573.62800                  -4716052.00240  22716577.80040
   9514723.70000  24213456.01100                  14368719.18240  24213461.56540
     -4373.03210  26782991.47900
   6438612.08000  23773863.36200                   5148461.02940  23773866.58540
  -2004275.72900  23468608.05800                  -1493565.47540  23468611.46840
 96  9  6  1 37  0.0070000  0  5 14 15 18 25 29
  -6130855.38800  22718884.01900                  -4706591.65040  22718888.27240
   9657716.69900  24240666.67500                  14480142.25340  24240671.83140
    -30546.65500  26778010.29200
   6562742.59400  23797484.69800                   5245186.09940  23797488.09740
  -1985657.65500  23472151.36200                  -1479057.87840  23472154.93640
 96  9  6  1 37 30.0070000  0  5 14 15 18 25 29
  -6118265.55600  22721279.80000                  -4696781.38640  22721284.12440
   9801111.45300  24267953.69800                  14591878.38540  24267958.58540
    -56622.69600  26773048.01100
   6687243.83200  23821176.53400                   5342200.04140  23821179.64040
  -1966790.90700  23475741.51100                  -1464356.51040  23475745.01540
 96  9  6  1 38  0.0070000  0  5 14 15 18 25 29
  -6105208.94800  22723764.42500                  -4686607.40840  22723768.66740
   9944911.96800  24295318.35400                  14703930.70540  24295323.42940
    -82621.74400  26768099.22900                    -12824.41350  26768107.10840
   6812094.27200  23844934.62000                   5439486.08540  23844937.79640
  -1947649.84700  23479383.98700                  -1449441.38940  23479387.47940
 96  9  6  1 38 30.0070000  0  5 14 15 18 25 29
  -6091677.72100  22726339.13600                  -4676063.59240  22726343.28440
  10089110.11100  24322758.53400                  14816292.84740  24322763.92540
   -108550.57400  26763166.36200                    -33028.65140  26763172.52640
   6937275.11200  23868755.70600                   5537029.58540  23868758.90540
  -1928218.59500  23483081.58900                  -1434300.15240  23483084.98740
 96  9  6  1 39  0.0070000  0  5 14 15 18 25 29
  -6077659.78000  22729006.88600                  -4665140.52140  22729010.99940
  10233709.37000  24350274.91700                  14928967.55040  24350280.17940
   -134399.73100  26758247.30800                    -53170.81440  26758255.43340
   7062807.01300  23892643.62800                   5634846.64040  23892646.89740
  -1908480.16600  23486837.53400                  -1418919.54840  23486841.01540
 96  9  6  1 39 30.0070000  0  5 14 15 18 25 29
  -6063169.34100  22731764.43300                  -4653849.26740  22731768.46440
  10378698.28900  24377865.15100                  15041945.88440  24377870.65940
   -160176.60000  26753340.69800                    -73256.65740  26753347.30840
   7188695.99300  23916599.79200                   5732941.94440  23916603.48340
  -1888469.91600  23490645.48700                  -1403327.14140  23490648.75740
 96  9  6  1 40  0.0070000  0  5 14 15 18 25 29
  -6048196.18800  22734613.65100                  -4642181.87340  22734617.56540
  10524084.70500  24405531.33900                  15155233.96540  24405536.92940
   -185849.67500  26748455.48700                    -93261.60040  26748456.40140
   7314966.36100  23940628.12800                   5831334.42640  23940631.35140
  -1868208.55500  23494501.11200                  -1387539.05840  23494504.37040
 96  9  6  1 40 30.0070000  0  5 14 15 18 25 29
  -6032755.28900  22737551.91700                  -4630150.00640  22737555.87840
  10669863.86300  24433272.09700                  15268828.07940  24433276.98340
   -211392.21700  26743594.79200                   -113164.89040  26743599.63240
   7441636.37300  23964732.46400                   5930038.32240  23964735.92140
  -1847711.32100  23498401.49500                  -1371567.18540  23498404.89440
 96  9  6  1 41  0.0070000  0  5 14 15 18 25 29
  -6016857.96400  22740576.94800                  -4617762.48540  22740581.26140
  10816023.93000  24461085.47900                  15382718.99740  24461090.90540
   -236809.27200  26738757.58100                   -132970.34940  26738759.11640
   7568689.50900  23988909.93300                   6029040.75540  23988913.43640
  -1827021.12900  23502338.77600                  -1355444.94940  23502342.06940
 96  9  6  1 41 30.0070000  0  5 14 15 18 25 29
  -6000516.87400  22743686.44800                  -4605029.16540  22743690.71440
  10962558.84900  24488970.11200                  15496902.01540  24488975.44440
   -262115.05300  26733941.26900                   -152689.15240  26733946.92940
   7696099.53300  24013155.31500                   6128321.28340  24013158.94840
  -1806153.95200  23506309.80000                  -1339184.79840  23506313.16340
 96  9  6  1 42  0.0070000  0  5 14 15 18 25 29
  -5983735.96300  22746879.74500                  -4591953.13040  22746883.94040
  11109465.96800  24516925.70600                  15611375.05440  24516930.89740
   -287306.77100  26729148.41700                   -172318.95740  26729154.58140
   7823858.60700  24037467.03400                   6227873.79740  24037470.28040
  -1785097.78600  23510316.46400                  -1322777.38840  23510319.79240
 96  9  6  1 42 30.0070000  0  5 14 15 18 25 29
  -5966518.19500  22750156.34700                  -4578536.68640  22750160.61240
  11256740.49700  24544951.30000                  15726134.39140  24544956.50340
   -312395.09900  26724375.79200                   -191868.38540  26724376.97640
   7951963.49300  24061844.87000                   6327695.77740  24061848.16340
  -1763836.01900  23514362.62800                  -1306209.76840  23514366.00340
 96  9  6  1 43  0.0070000  0  5 14 15 18 25 29
  -5948857.04300  22753517.10400                  -4564774.75240  22753521.38240
  11404374.45400  24573044.85400                  15841173.79540  24573050.33940
   -337400.63900  26719618.02600                   -211353.18240  26719623.19440
   8080409.62900  24086287.24500                   6427783.66240  24086290.47940
  -1742364.73600  23518448.46400                  -1289478.89140  23518451.76940
 96  9  6  1 43 30.0070000  0  5 14 15 18 25 29
  -5930730.40500  22756966.55000                  -4550650.10340  22756970.73340
  11552368.26800  24601207.29200                  15956493.60140  24601212.87040
   -362320.76100  26714874.83100                   -230771.44140  26714883.65940
   8209220.72700  24110799.31500                   6528155.93940  24110802.69040
  -1720655.07300  23522579.46400                  -1272562.26240  23522583.03840
 96  9  6  1 44  0.0070000  0  5 14 15 18 25 29
  -5912107.31700  22760510.39400                  -4536138.60340  22760514.68340
  11700722.69600  24629438.51100                  16072094.40240  24629443.50340
   -387132.42600  26710152.97900                   -250105.17540  26710157.84340
   8338419.77200  24135384.69800                   6628830.50440  24135387.83940
  -1698689.64500  23526759.39400                  -1255446.33440  23526762.79240
 96  9  6  1 44 30.0070000  0  5 14 15 18 25 29
  -5892973.37000  22764151.54200                  -4521229.03140  22764155.70240
  11849425.03400  24657735.17500                  16187966.31040  24657740.42540
   -411847.13500  26705450.67500                   -269363.36540  26705457.80440
   8467989.14400  24160041.04200                   6729793.63940  24160044.56940
  -1676481.25300  23530985.39400                  -1238141.08440  23530988.58140
 96  9  6  1 45  0.0070000  0  5 14 15 18 25 29
  -5873300.74700  22767895.04200                  -4505899.71640  22767899.17940
  11998477.47300  24686099.32300                  16304111.02140  24686105.01940
   -436458.89900  26700766.78400                   -288541.29940  26700770.44040
   8597907.71300  24184763.84700                   6831028.87840  24184766.97640
  -1654040.11000  23535256.04200                  -1220654.46940  23535259.32340
 96  9  6  1 45 30.0070000  0  5 14 15 18 25 29
  -5853090.11100  22771740.98700                  -4490151.16740  22771744.97240
  12147877.23800  24714529.15900                  16420526.38440  24714534.63240
   -460966.21500  26696102.91700                   -307637.86140  26696106.31540
   8728153.27500  24209548.85400                   6932518.92640  24209552.51140
  -1631366.74000  23539570.55800                  -1202986.90040  23539573.83940
 96  9  6  1 46  0.0070000  0  5 14 15 18 25 29
  -5832371.98100  22775683.37000                  -4474007.17040  22775687.40140
  12297619.57300  24743024.10400                  16537208.66440  24743029.23740
   -485371.38100  26691457.83900                   -326654.85240  26691461.50740
   8858698.06200  24234390.76900                   7034242.12540  24234394.09740
  -1608470.28100  23543927.58900                  -1185145.49740  23543931.01140
 96  9  6  1 46 30.0070000  0  5 14 15 18 25 29
  -5811170.73200  22779717.83100                  -4457486.71040  22779722.15540
  12447699.59500  24771583.33100                  16654154.08740  24771588.22940
   -509690.44500  26686829.30800                   -345604.71140  26686833.49140
   8989527.17200  24259286.34700                   7136186.88140  24259289.78040
  -1585358.41400  23548325.45600                  -1167136.23540  23548328.77240
 96  9  6  1 47  0.0070000  0  5 14 15 18 25 29
  -5789500.68400  22783841.60400                  -4440600.95740  22783845.78840
  12598120.61300  24800207.60400                  16771365.22640  24800212.93640
   -533921.39400  26682218.56500                   -364485.94540  26682224.84740
   9120663.32100  24284240.71400                   7238370.88240  24284244.14740
  -1562019.44600  23552766.94000                  -1148950.01840  23552770.31540
 96  9  6  1 47 30.0070000  0  5 14 15 18 25 29
  -5767382.21300  22788050.60400                  -4423365.78640  22788054.64740
  12748877.02900  24828895.88600                  16888837.70640  24828901.64040
   -558062.02400  26677625.31500                   -383296.76240  26677631.64440
   9252123.51800  24309256.89400                   7340807.39040  24309260.26940
  -1538442.99300  23557253.25300                  -1130578.75140  23557256.49940
 96  9  6  1 48  0.0070000  0  5 14 15 18 25 29
  -5744829.24000  22792342.47900                  -4405792.04140  22792346.49940
  12899948.21400  24857643.26900                  17006555.46940  24857648.61240
   -582126.36100  26673046.15900                   -402048.19540  26673050.57740
   9383906.69300  24334334.38600                   7443495.56140  24334337.93640
  -1514658.62600  23561779.25300                  -1112045.47140  23561782.71040
 96  9  6  1 48 30.0070000  0  5 14 15 18 25 29
  -5721796.97000  22796725.33900                  -4387844.81540  22796729.45240
  13051343.39000  24886453.69000                  17124525.67940  24886458.64740
   -606099.13000  26668484.47900                   -420728.24640  26668491.18340
   9516032.32400  24359477.11200                   7546450.58540  24359480.66340
  -1490663.61800  23566345.55000                  -1093348.05640  23566348.90140
 96  9  6  1 49  0.0070000  0  5 14 15 18 25 29
  -5698266.59400  22801202.83900                  -4369509.45940  22801207.04640
  13203056.99100  24915323.39400                  17242744.02440  24915329.03040
   -629975.89100  26663940.95600                   -439333.43740  26663945.87840
   9648491.69000  24384683.13600                   7649665.66740  24384686.79240
  -1466462.65100  23570950.88600                  -1074490.15640  23570954.20240
 96  9  6  1 49 30.0070000  0  5 14 15 18 25 29
  -5674212.31400  22805780.31500                  -4350765.86440  22805784.47640
  13355097.10100  24944255.59700                  17361216.78240  24944260.54240
   -653749.13000  26659416.87000                   -457858.00840  26659421.21840
   9781285.44300  24409953.00300                   7753141.31440  24409956.56540
  -1442044.18500  23575597.28400                  -1055462.76940  23575600.65940
 96  9  6  1 50  0.0080000  0  5 14 15 18 25 29
  -5649635.50500  22810457.11700                  -4331615.09740  22810461.33640
  13507457.61000  24973248.95300                  17479939.21140  24973254.23840
   -677436.47600  26654909.18700                   -476315.63940  26654914.42640
   9914399.12700  24435283.77300                   7856866.26140  24435287.39440
  -1417424.87400  23580282.27300                  -1036278.88440  23580285.59040
 96  9  6  1 50 30.0080000  0  5 14 15 18 25 29
  -5624535.28000  22815233.33600                  -4312056.48340  22815237.40240
  13660124.00700  25002300.80500                  17598899.98240  25002305.75040
   -701045.31600  26650416.44500                   -494712.06140  26650420.30140
  10047811.74000  24460671.71900                   7960824.13140  24460674.88340
  -1392585.84700  23585009.11700                  -1016923.79540  23585012.64440
 96  9  6  1 51  0.0080000  0  5 14 15 18 25 29
  -5598928.61000  22820106.10200                  -4292103.23540  22820110.06240
  13813099.36500  25031410.88300                  17718101.50840  25031416.97740
   -724577.13000  26645938.24200                   -513048.51640  26645942.63740
  10181531.23900  24486117.60200                   8065021.12840  24486121.00040
  -1367514.17600  23589780.21900                   -997387.42240  23589783.43040
 96  9  6  1 51 30.0080000  0  5 14 15 18 25 29
  -5572846.35800  22825069.60900                  -4271779.39940  22825073.81640
  13966377.20100  25060578.47700                  17837538.74340  25060584.38340
   -748032.58500  26641474.31200                   -531325.42640  26641478.62540
  10315560.59900  24511622.46900                   8169459.58040  24511625.93740
  -1342214.23600  23594594.39800                   -977673.17840  23594597.82040
 96  9  6  1 52  0.0080000  0  5 14 15 18 25 29
  -5546296.22900  22830122.00800                  -4251090.98540  22830126.09840
  14119956.16600  25089803.93000                  17957210.61440  25089808.81640
   -771394.78400  26637029.17200                   -549529.69940  26637035.62940
  10449895.82700  24537185.64100                   8274136.37140  24537189.12140
  -1316680.18000  23599453.56200                   -957776.50840  23599456.75040
 96  9  6  1 52 30.0080000  0  5 14 15 18 25 29
  -5519261.98400  22835266.20300                  -4230025.33840  22835270.28140
  14273837.48000  25119086.36700                  18077118.06340  25119092.35540
   -794649.33400  26632603.82000                   -567650.05840  26632608.44940
  10584547.66100  24562808.81200                   8379059.87340  24562812.25840
  -1290899.67600  23604359.19500                   -937687.80440  23604362.57040
 96  9  6  1 53  0.0080000  0  5 14 15 18 25 29
  -5491750.07300  22840501.69500                  -4208587.48740  22840505.84440
  14428013.69400  25148425.20300                  18197255.31740  25148430.66440
   -817784.59600  26628201.36700                   -585677.45040  26628207.14440
  10719519.67300  24588493.07000                   8484232.86240  24588496.70340
  -1264891.28200  23609308.27300                   -917421.51540  23609311.84840
 96  9  6  1 53 30.0080000  0  5 14 15 18 25 29
  -5463733.42600  22845833.28100                  -4186756.33940  22845837.43040
  14582482.95500  25177819.96100                  18317620.91440  25177825.51640
   -840799.64700  26623821.59400                   -603611.18440  26623826.57440
  10854800.70700  24614236.45300                   8589646.64740  24614239.71140
  -1238645.40200  23614302.91400                   -896970.16840  23614306.38340
 96  9  6  1 54  0.0080000  0  5 14 15 18 25 29
  -5435181.45000  22851266.27300                  -4164508.04640  22851270.41040
  14737234.44000  25207268.30500                  18438206.44340  25207273.73040
   -863706.44200  26619463.00800                   -621460.60540  26619468.31640
  10990368.50200  24640033.75000                   8695283.87440  24640037.39440
  -1212166.11000  23619341.83600                   -876336.95040  23619344.96540
 96  9  6  1 54 30.0080000  0  5 14 15 18 25 29
  -5406072.57100  22856805.45300                  -4141825.80040  22856809.56640
  14892273.73400  25236771.07800                  18559016.23340  25236776.84440
   -886497.32100  26615125.04700                   -639219.67940  26615127.66040
  11126231.64700  24665887.90600                   8801151.25840  24665891.55140
  -1185457.02000  23624424.23400                   -855524.66040  23624427.52740
 96  9  6  1 55  0.0080000  0  5 14 15 18 25 29
  -5376422.87300  22862447.78900                  -4118722.13840  22862452.03140
  15047594.36900  25266327.47700                  18680045.22440  25266333.46540
   -909177.25000  26610809.68700                   -656892.28540  26610814.30540
  11262379.89600  24691796.15600                   8907240.79540  24691799.05140
  -1158516.85900  23629550.75800                   -834532.31940  23629554.20340
 96  9  6  1 55 30.0080000  0  5 14 15 18 25 29
  -5346238.95600  22868191.33600                  -4095202.20640  22868195.54340
  15203187.34100  25295936.19500                  18801286.45940  25295942.09040
   -931763.63200  26606511.22700                   -674492.02540  26606516.91040
  11398797.00900  24717755.93000                   9013539.82840  24717759.12940
  -1131354.74800  23634719.52300                   -813367.03840  23634722.73440
 96  9  6  1 56  0.0080000  0  5 14 15 18 25 29
  -5315538.25000  22874033.53900                  -4071279.57940  22874037.71140
  15359054.39900  25325596.25800                  18922741.23440  25325601.90640
   -954248.30600  26602233.43700                   -692012.45740  26602238.28940
  11535497.37500  24743769.03900                   9120059.58840  24743772.26240
  -1103982.40200  23639928.40600                   -792037.92740  23639931.69940
 96  9  6  1 56 30.0080000  0  5 14 15 18 25 29
  -5284342.45300  22879969.98400                  -4046971.16540  22879974.20340
  15515190.35800  25355308.66400                  19044405.56740  25355313.85540
   -976637.56900  26597972.46100                   -709458.57440  26597977.59440
  11672493.44900  24769838.33600                   9226809.77840  24769841.51240
  -1076392.41100  23645178.59400                   -770539.22440  23645181.91040
 96  9  6  1 57  0.0080000  0  5 14 15 18 25 29
  -5252652.76000  22886000.59400                  -4022277.90340  22886004.74240
  15671595.10800  25385071.44500                  19166279.34440  25385076.50840
   -998942.48700  26593727.67200                   -726838.97640  26593732.71140
  11809784.67500  24795963.94500                   9333789.95140  24795967.40240
  -1048571.67700  23650472.57000                   -748860.72640  23650475.75840
 96  9  6  1 57 30.0080000  0  5 14 15 18 25 29
  -5220458.50600  22892126.92200                  -3997191.46940  22892131.10540
  15828263.25500  25414884.22700                  19288358.36040  25414890.23840
  -1021173.53800  26589497.24200                   -744161.82240  26589501.50840
  11947370.26400  24822145.38300                   9440999.49040  24822148.54740
  -1020526.24100  23655809.44500                   -727007.13140  23655812.66840
 96  9  6  1 58  0.0080000  0  5 14 15 18 25 29
  -5187753.36600  22898350.24200                  -3971706.94340  22898354.43740
  15985187.26300  25444745.73400                  19410636.73440  25444751.91040
  -1043335.03600  26585280.64800                   -761430.47040  26585286.30940
  12085248.99800  24848383.02300                   9548437.46040  24848386.12940
   -992247.56000  23661190.84400                   -704971.79040  23661193.98440
 96  9  6  1 58 30.0080000  0  5 14 15 18 25 29
  -5154525.72100  22904673.37500                  -3945815.27340  22904677.43040
  16142365.92600  25474656.27300                  19533113.58040  25474661.60540
  -1065428.18500  26581075.63300                   -778645.83040  26581081.98440
  12223424.02300  24874676.91400                   9656106.30640  24874680.11340
   -963725.92500  23666618.24200                   -682747.13640  23666621.44140
 96  9  6  1 59  0.0080000  0  5 14 15 18 25 29
  -5120764.17500  22911098.04700                  -3919507.57540  22911102.25440
  16299792.19300  25504613.68700                  19655783.33140  25504618.90240
  -1087451.71300  26576884.75800                   -795806.96640  26576888.69540
  12361885.46700  24901025.30500                   9763998.33240  24901028.66840
   -934983.05200  23672087.99200                   -660350.08140  23672091.25040
 96  9  6  1 59 30.0080000  0  5 14 15 18 25 29
  -5086460.89500  22917625.85200                  -3892777.74940  22917629.98840
  16457461.14000  25534616.86700                  19778642.18740  25534622.37540
  -1109391.63500  26572710.60900                   -812902.93540  26572715.43740
  12500627.00600  24927426.87500                   9872108.61140  24927430.44940
   -906030.02600  23677597.49200                   -637789.27440  23677600.53940
 96  9  6  2  0  0.0080000  0  5 14 15 18 25 29
  -5051614.03100  22924256.72700                  -3865624.35340  22924260.68740
  16615377.95900  25564667.31200                  19901694.19240  25564673.10240
  -1131225.66100  26568555.01600                   -829916.40640  26568559.45740
  12639640.59100  24953880.01600                   9980430.88240  24953883.48440
   -876861.79800  23683147.84400                   -615060.77940  23683150.83240
 96  9  6  2  0 30.0080000  0  5 14 15 18 25 29
  -5016240.61800  22930988.24200                  -3838060.64840  22930992.35540
  16773534.32800  25594763.78100                  20024932.85240  25594769.44140
  -1152951.13600  26564420.75000                   -846845.27740  26564425.82440
  12778911.40500  24980382.66400                  10088953.59440  24980386.05140
   -847497.60400  23688735.62500                   -592179.57740  23688739.03540
 96  9  6  2  1  0.0080000  0  5 14 15 18 25 29
  -4980336.72700  22937820.62500                  -3810083.59540  22937824.64440
  16931925.93600  25624904.92200                  20148354.83140  25624910.44140
  -1174561.88600  26560308.00000                   -863684.74440  26560313.23840
  12918408.85300  25006927.91400                  10197652.89440  25006931.53540
   -817934.87500  23694361.43000                   -569143.67840  23694364.74640
 96  9  6  2  1 30.0080000  0  5 14 15 18 25 29
  -4943907.43600  22944752.64100                  -3781697.12940  22944756.81240
  17090556.97700  25655090.76600                  20271963.35840  25655096.74240
  -1196042.58000  26556220.64800                   -880422.88040  26556226.36740
  13058125.40900  25033515.40600                  10306522.93740  25033518.62940
   -788153.61400  23700028.67200                   -545937.48340  23700031.96540
 96  9  6  2  2  0.0080000  0  5 14 15 18 25 29
  -4906955.80400  22951784.35200                  -3752903.65440  22951788.51240
  17249425.56400  25685322.96900                  20395757.01640  25685328.84040
  -1217404.89100  26552155.11700                   -897068.77740  26552160.20340
  13198076.13100  25060146.95300                  10415575.44340  25060149.81240
   -758146.88900  23705738.62500                   -522555.61340  23705741.70740
 96  9  6  2  2 30.0080000  0  5 14 15 18 25 29
  -4869472.01200  22958917.20300                  -3723695.50940  22958921.42240
  17408517.83100  25715596.95300                  20519724.95840  25715602.26240
  -1238671.29400  26548107.85900                   -913639.92640  26548113.18040
  13338262.79400  25086823.96100                  10524811.80140  25086827.12540
   -727923.81500  23711489.77300                   -499005.15740  23711493.00840
 96  9  6  2  3  0.0090000  0  5 14 15 18 25 29
  -4831436.69100  22966155.21600                  -3694057.59740  22966159.41140
  17567835.98300  25745914.20800                  20643868.89840  25745919.78640
  -1259845.80400  26544078.59900                   -930139.46140  26544084.07140
  13478693.99700  25113547.08300                  10634238.69840  25113550.39940
   -697471.53800  23717284.70000                   -475276.10440  23717287.93540
 96  9  6  2  3 30.0090000  0  5 14 15 18 25 29
  -4792848.12800  22973498.51300                  -3663988.58440  22973502.63840
  17727372.58100  25776273.41900                  20768183.07840  25776279.31340
  -1280927.00600  26540067.59900                   -946566.31440  26540074.03240
  13619403.51700  25140322.84100                  10743882.48140  25140326.16940
   -666789.13600  23723123.32500                   -451367.72840  23723126.67740
 96  9  6  2  4  0.0090000  0  5 14 15 18 25 29
  -4753702.90700  22980947.27000                  -3633485.81540  22980951.36040
  17887124.55200  25806673.02800                  20892665.08940  25806678.27840
  -1301929.40300  26536071.49700                   -962931.73640  26536075.39940
  13760403.07300  25167154.07500                  10853752.25040  25167157.47440
   -635876.67500  23729005.94200                   -427280.09040  23729009.29440
 96  9  6  2  4 30.0090000  0  5 14 15 18 25 29
  -4714008.93000  22988500.96600                  -3602555.44140  22988504.95040
  18047086.12200  25837113.10600                  21017310.40540  25837118.26340
  -1322844.17700  26532090.61400                   -979228.91740  26532095.68840
  13901673.52900  25194037.20800                  10963833.12240  25194040.44240
   -604728.45900  23734933.02800                   -403008.74140  23734936.34540
 96  9  6  2  5  0.0090000  0  5 14 15 18 25 29
  -4673785.33700  22996155.49700                  -3571212.38040  22996159.45840
  18207260.20900  25867592.95800                  21142121.31340  25867599.53240
  -1343664.06800  26528129.24700                   -995452.14140  26528133.16140
  14043214.31600  25220971.60600                  11074124.64140  25220975.15740
   -573336.04600  23740906.71600                   -378547.10940  23740910.06740
 96  9  6  2  5 30.0090000  0  5 14 15 18 25 29
  -4633048.07200  23003907.30200                  -3539469.06240  23003911.45040
  18367643.43800  25898113.01300                  21267095.18740  25898119.35240
  -1364392.06800  26524184.55200                  -1011603.76140  26524189.86040
  14185022.52000  25247956.56700                  11184624.53940  25247959.80240
   -541698.04000  23746927.35600                   -353894.11040  23746930.54440
 96  9  6  2  6  0.0090000  0  5 14 15 18 25 29
  -4591798.00100  23011756.68500                  -3507326.15340  23011760.81040
  18528233.40400  25928672.22400                  21392230.16640  25928678.07140
  -1385026.60100  26520257.73900                  -1027682.56140  26520263.08340
  14327063.56900  25274986.14500                  11295305.86140  25274989.11040
   -509813.87500  23752994.78600                   -329049.29840  23752998.02040
 96  9  6  2  6 30.0090000  0  5 14 15 18 25 29
  -4550038.45000  23019703.57500                  -3474786.24840  23019707.59540
  18689025.74700  25959269.98900                  21517522.84840  25959275.89540
  -1405560.43100  26516349.86400                  -1043682.87740  26516354.82140
  14469331.62000  25302059.05200                  11406164.08140  25302062.61440
   -477694.85200  23759106.90300                   -304021.48440  23759110.20840
 96  9  6  2  7  0.0090000  0  5 14 15 18 25 29
  -4507766.03200  23027747.57500                  -3441846.70240  23027751.85240
  18850006.38700  25989903.52800                  21642962.24140  25989909.01340
  -1426006.35100  26512458.45000                  -1059614.71340  26512463.78240
  14611815.46900  25329172.84900                  11517190.45640  25329176.64540
   -445356.97300  23765260.44200                   -278823.12740  23765263.67740
 96  9  6  2  7 30.0090000  0  5 14 15 18 25 29
  -4464949.38900  23035895.38000                  -3408483.08540  23035899.62240
  19011186.79700  26020574.98100                  21768557.30740  26020580.40740
  -1446345.47700  26508588.48100                  -1075463.33340  26508595.49340
  14754521.82800  25356328.98100                  11628390.21840  25356332.13440
   -412784.10200  23771458.77800                   -253441.66340  23771461.96640
 96  9  6  2  8  0.0090000  0  5 14 15 18 25 29
  -4421574.28000  23044149.31000                  -3374684.30540  23044153.47040
  19172559.22800  26051283.83300                  21894301.97740  26051290.26740
  -1466580.81100  26504738.02800                  -1091231.09040  26504742.01340
  14897442.63800  25383525.77800                  11739757.07140  25383529.35240
   -379992.40000  23777699.00500                   -227889.68240  23777702.08740
 96  9  6  2  8 30.0090000  0  5 14 15 18 25 29
  -4377635.73100  23052510.49700                  -3340446.47640  23052514.68140
  19334115.49300  26082027.02800                  22020189.92640  26082032.46640
  -1486720.02900  26500906.06700                  -1106923.91440  26500911.73940
  15040592.57600  25410766.57500                  11851302.46540  25410769.35240
   -346987.15500  23783979.45000                   -202171.30540  23783982.66140
 96  9  6  2  9  0.0090000  0  5 14 15 18 25 29
  -4333124.13000  23060980.89500                  -3305762.11740  23060985.07940
  19495849.53600  26112803.38800                  22146216.36440  26112808.66140
  -1506774.23500  26497089.27000                  -1122550.51840  26497094.11040
  15183964.13800  25438049.09100                  11963020.56040  25438051.82140
   -313761.02000  23790302.45000                   -176280.81040  23790305.61440
 96  9  6  2  9 30.0090000  0  5 14 15 18 25 29
  -4288023.20800  23069563.37200                  -3270618.54040  23069567.61440
  19657769.55900  26143615.90300                  22272387.74240  26143621.73940
  -1526727.75300  26493292.72400                  -1138098.64040  26493297.18840
  15327575.96700  25465377.25500                  12074925.88140  25465380.26740
   -280306.83100  23796668.52000                   -150212.60340  23796671.68540
 96  9  6  2 10  0.0090000  0  5 14 15 18 25 29
  -4242339.09500  23078256.86400                  -3235020.53240  23078261.06040
  19819867.10200  26174462.13000                  22398697.44440  26174468.18840
  -1546575.18300  26489515.81700                  -1153564.10540  26489520.84540
  15471437.27400  25492753.18500                  12187025.59640  25492756.80640
   -246643.45600  23803074.43500                   -123981.40040  23803077.44640
 96  9  6  2 10 30.0090000  0  5 14 15 18 25 29
  -4196080.33600  23087059.65300                  -3198974.74740  23087063.64940
  19982136.92200  26205341.23900                  22525141.38740  26205346.91140
  -1566312.59300  26485759.85600                  -1168943.83740  26485765.06040
  15615546.19200  25520176.10600                  12299318.24740  25520179.51740
   -212760.26700  23809522.16900                    -97578.90640  23809525.19240
 96  9  6  2 11  0.0090000  0  5 14 15 18 25 29
  -4149247.16000  23095971.62200                  -3162481.36540  23095975.71240
  20144575.42500  26236252.68500                  22651716.79940  26236258.47440
  -1585933.00500  26482025.64500                  -1184232.41540  26482031.34140
  15759885.76300  25547643.43500                  12411790.63840  25547646.95040
   -178651.63400  23816012.81700                    -71000.74340  23816015.81740
 96  9  6  2 11 30.0090000  0  5 14 15 18 25 29
  -4101857.94500  23104989.46600                  -3125554.70640  23104993.70840
  20307172.60700  26267194.09100                  22778415.80940  26267200.74740
  -1605442.22800  26478313.37200                  -1199434.34340  26478319.00940
  15904453.61700  25575153.45800                  12524440.91440  25575157.09140
   -144338.86900  23822542.27800                    -44263.51740  23822545.46640
 96  9  6  2 12  0.0090000  0  5 14 15 18 25 29
  -4053920.64400  23114111.63800                  -3088200.96640  23114115.73940
  20469934.10800  26298165.92700                  22905242.88040  26298172.44240
  -1624846.50400  26474620.71600                  -1214554.52240  26474626.48140
  16049240.00600  25602705.52800                  12637261.47940  25602709.44240
   -109790.40400  23829116.74700                    -17342.63040  23829119.88840
 96  9  6  2 12 30.0090000  0  5 14 15 18 25 29
  -4005428.59800  23123339.53600                  -3050414.95840  23123343.62640
  20632856.98700  26329169.54400                  23032195.72440  26329175.02840
  -1644167.13800  26470944.04400                  -1229609.50440  26470949.36440
  16194215.93600  25630293.38800                  12750229.71940  25630296.89240
    -74978.61800  23835741.22400                      9783.44940  23835744.30640
 96  9  6  2 13  0.0090000  0  5 14 15 18 25 29
  -3956382.38800  23132672.50500                  -3012197.13140  23132676.67740
  20795934.11000  26360202.49700                  23159268.72540  26360208.32140
  -1663419.41100  26467280.70800                  -1244611.20740  26467286.80240
  16339376.01300  25657916.55200                  12863341.46140  25657920.11440
    -39917.31000  23842413.09100                     37103.95740  23842416.22040
 96  9  6  2 13 30.0090000  0  5 14 15 18 25 29
  -3906797.85600  23142108.06000                  -2973559.83440  23142112.10240
  20959155.47300  26391261.69200                  23286454.10140  26391267.21240
  -1682609.29600  26463628.66900                  -1259564.32740  26463633.90740
  16484721.75300  25685574.39500                  12976597.88140  25685577.97040
     -4622.64600  23849129.41100                     64606.30140  23849132.45840
 96  9  6  2 14  0.0090000  0  5 14 15 18 25 29
  -3856647.43600  23151651.32500                  -2934481.59140  23151655.55640
  21122523.91600  26422349.53600                  23413754.13140  26422355.88840
  -1701716.13700  26459992.63000                  -1274452.73440  26459997.35240
  16630255.96600  25713268.88000                  13090001.16640  25713272.93540
     30920.08200  23855893.11400                     92301.94040  23855896.16140
 96  9  6  2 14 30.0090000  0  5 14 15 18 25 29
  -3805904.16400  23161307.59100                  -2894941.38340  23161311.78640
  21286049.32400  26453467.77000                  23541176.45740  26453472.97440
  -1720717.53700  26456376.81000                  -1289258.96740  26456381.62640
  16776006.39000  25741004.23100                  13203572.91840  25741008.36840
     66692.03800  23862700.09900                    120176.19540  23862703.22740
 96  9  6  2 15  0.0090000  0  5 14 15 18 25 29
  -3754604.60700  23171069.54400                  -2854967.70540  23171073.68140
  21449707.82200  26484612.15300                  23668702.48440  26484617.82540
  -1739608.54400  26452782.54400                  -1303979.19340  26452787.33740
  16921980.33600  25768782.38800                  13317318.83540  25768785.90340
    102655.13800  23869543.83300                    148199.40440  23869547.03240
 96  9  6  2 15 30.0090000  0  5 14 15 18 25 29
  -3702735.28600  23180939.81700                  -2814550.04940  23180943.98940
  21613509.40200  26515782.34100                  23796340.00840  26515786.82940
  -1758357.88200  26449214.02800                  -1318589.03340  26449218.75140
  17068189.37300  25796605.63000                  13431247.94940  25796609.21640
    138836.15000  23876428.73100                    176392.41240  23876431.73140
 96  9  6  2 16  0.0100000  0  5 14 15 18 25 29
  -3650299.02400  23190918.22800                  -2773690.62840  23190922.24840
  21777444.53700  26546977.51800                  23924081.58340  26546982.74440
  -1776987.21400  26445669.29900                  -1333105.34940  26445674.58440
  17214614.19500  25824468.80700                  13545345.22140  25824472.14640
    175238.49100  23883355.70500                    204757.88640  23883358.82240
 96  9  6  2 16 30.0100000  0  5 14 15 18 25 29
  -3597322.03700  23200999.68900                  -2732409.85940  23201003.62740
  21941501.04600  26578196.67400                  24051917.76940  26578203.59240
  -1795502.72400  26442146.01800                  -1347532.96740  26442152.63940
  17361243.47600  25852371.22100                  13659601.80040  25852375.60340
    211871.54800  23890326.94700                    233303.14140  23890330.07640
 96  9  6  2 17  0.0100000  0  5 14 15 18 25 29
  -3543805.82300  23211183.04900                  -2690708.91540  23211187.03340
  22105679.27000  26609438.54100                  24179848.77240  26609443.70940
  -1813904.86300  26438644.04100                  -1361872.25340  26438648.02540
  17508066.34500  25880310.75200                  13774009.23940  25880313.96340
    248752.06600  23897344.96300                    262041.21840  23897348.24440
 96  9  6  2 17 30.0100000  0  5 14 15 18 25 29
  -3489725.56800  23221474.40000                  -2648568.45840  23221478.58440
  22269984.81700  26640704.87700                  24307879.01440  26640710.43240
  -1832206.83100  26435161.97800                  -1376133.50340  26435165.63540
  17655076.01100  25908285.99400                  13888562.22040  25908289.17040
    285880.62900  23904410.60300                    290972.57540  23904413.61540
 96  9  6  2 18  0.0100000  0  5 14 15 18 25 29
  -3435092.85900  23231870.58000                  -2605997.51740  23231874.74040
  22434404.89200  26671993.12700                  24435998.47340  26671999.38540
  -1850430.28400  26431693.82200                  -1390333.55740  26431698.54540
  17802257.74000  25936293.73600                  14003249.28140  25936297.56840
    323236.61600  23911518.82200                    320081.14640  23911521.84640
 96  9  6  2 18 30.0100000  0  5 14 15 18 25 29
  -3379904.29700  23242372.62700                  -2562993.44340  23242376.57640
  22598934.55900  26703302.30700                  24564203.33440  26703308.58840
  -1868568.08200  26428241.47100                  -1404466.88240  26428245.80740
  17949616.78000  25964335.43200                  14118074.50340  25964338.88940
    360799.41000  23918666.84600                    349350.86440  23918669.99840
 96  9  6  2 19  0.0100000  0  5 14 15 18 25 29
  -3324118.50900  23252988.29900                  -2519524.00240  23252992.42440
  22763589.41300  26734635.70500                  24692505.74440  26734639.66640
  -1886602.71400  26424809.99400                  -1418519.79140  26424815.30340
  18097167.02000  25992413.18200                  14233048.72140  25992416.06440
    398572.95100  23925854.90800                    378784.80040  23925858.03740
 96  9  6  2 19 30.0100000  0  5 14 15 18 25 29
  -3267743.36400  23263716.03300                  -2475595.31940  23263720.21740
  22928357.16300  26765990.15800                  24820896.12540  26765996.29940
  -1904551.90800  26421394.79100                  -1432506.13340  26421399.13940
  18244901.19200  26020526.11900                  14348166.26440  26020529.79940
    436552.26900  23933082.11900                    408379.08640  23933085.36540
 96  9  6  2 20  0.0100000  0  5 14 15 18 25 29
  -3210781.39300  23274555.48600                  -2431209.36740  23274559.78740
  23093231.44700  26797363.83000                  24949369.51340  26797368.89340
  -1922400.72700  26417997.47800                  -1446414.27240  26418001.18240
  18392810.79600  26048672.61100                  14463420.50040  26048676.37340
    474757.34500  23940352.35300                    438149.28240  23940355.44740
 96  9  6  2 20 30.0100000  0  5 14 15 18 25 29
  -3153233.47800  23285506.69700                  -2386366.84140  23285510.88140
  23258206.84600  26828757.39300                  25077921.68040  26828765.33040
  -1940144.51000  26414621.77500                  -1460240.56140  26414626.99040
  18540896.06200  26076851.86100                  14578811.61440  26076855.65840
    513198.51700  23947667.31400                    468103.44740  23947670.24440
 96  9  6  2 21  0.0100000  0  5 14 15 18 25 29
  -3095100.15400  23296569.18200                  -2341068.14940  23296573.22540
  23423286.59100  26860171.61900                  25206555.17540  26860178.01840
  -1957781.44600  26411265.01000                  -1473983.58840  26411269.62740
  18689156.68500  26105064.79100                  14694339.37140  26105068.21340
    551900.92900  23955032.39300                    498261.17340  23955035.39340
 96  9  6  2 21 30.0100000  0  5 14 15 18 25 29
  -3036402.27800  23307738.88500                  -2295329.54440  23307742.91640
  23588461.14500  26891603.37700                  25335262.54340  26891609.26040
  -1975311.17600  26407928.85300                  -1487643.07540  26407934.37340
  18837585.30300  26133310.33000                  14809998.04940  26133313.38940
    590864.93400  23962446.58800                    528622.74940  23962449.74040
 96  9  6  2 22  0.0100000  0  5 14 15 18 25 29
  -2977132.97900  23319017.40000                  -2249145.67940  23319021.57240
  23753729.41100  26923053.09600                  25464042.92440  26923060.33040
  -1992724.91800  26404614.90800                  -1501212.20040  26404620.29940
  18986186.57700  26161587.47100                  14925791.24040  26161590.77540
    630082.06400  23969909.47100                    559181.55840  23969912.77540
 96  9  6  2 22 30.0100000  0  5 14 15 18 25 29
  -2917299.28400  23330403.55700                  -2202522.01840  23330407.56440
  23919081.17100  26954518.20500                  25592888.37940  26954525.03740
  -2010037.38800  26401320.04100                  -1514702.37340  26401325.17440
  19134953.79600  26189897.46300                  15041713.75940  26189900.33440
    669527.44800  23977415.79900                    589918.23340  23977419.03340
 96  9  6  2 23  0.0100000  0  5 14 15 18 25 29
  -2856884.74600  23341899.99400                  -2155445.75940  23341904.13140
  24084519.76100  26986000.86100                  25721801.48640  26986006.49840
  -2027240.62400  26398047.12700                  -1528107.45640  26398052.62340
  19283888.70500  26218238.66600                  15157766.93840  26218242.41640
    709196.57400  23984964.32200                    620829.24740  23984967.45140
 96  9  6  2 23 30.0100000  0  5 14 15 18 25 29
  -2795888.74600  23353507.42400                  -2107916.41440  23353511.51440
  24250037.27100  27017497.36100                  25850776.07240  27017503.85340
  -2044335.11700  26394794.58000                  -1541427.78740  26394799.30340
  19432994.07300  26246612.18900                  15273952.95140  26246616.05740
    749075.25200  23992553.19700                    651903.54840  23992556.16240
 96  9  6  2 24  0.0100000  0  5 14 15 18 25 29
  -2734291.99700  23365228.55700                  -2059918.95140  23365232.56440
  24415637.70300  27049010.09600                  25979815.27240  27049015.58040
  -2061319.53600  26391562.37700                  -1554662.35040  26391567.12340
  19582276.65800  26275020.22100                  15390277.02940  26275023.90040
    789173.48900  24000183.61100                    683148.93540  24000186.62340
 96  9  6  2 24 30.0100000  0  6  4 14 15 18 25 29
      6166.59610  27968236.60300
  -2672104.16400  23377062.58000                  -2011460.89740  23377066.62340
  24581320.44800  27080538.63500                  26108918.62040  27080545.46740
  -2078189.48600  26388351.79100                  -1567807.71340  26388356.64340
  19731731.80800  26303460.12700                  15506735.58640  26303463.61940
    829498.26900  24007857.09600                    714570.85940  24007860.06040
 96  9  6  2 25  0.0100000  0  6  4 14 15 18 25 29
     23338.30300  27971503.82200
  -2609329.65000  23389008.06400                  -1962545.69540  23389012.28340
  24747078.71600  27112081.12700                  26238080.82740  27112087.81840
  -2094960.86900  26385160.11900                  -1580876.26840  26385164.09240
  19881358.77100  26331933.04900                  15623328.04440  26331936.72840
    870050.22700  24015574.02500                    746169.79940  24015576.96740
 96  9  6  2 25 30.0100000  0  6  4 14 15 18 25 29
     41010.68200  27974865.86900
  -2545978.85300  23401063.31400                  -1913181.43540  23401067.51040
  24912901.02900  27143636.55700                  26367292.93540  27143642.90840
  -2111650.21800  26381984.53300                  -1593880.92140  26381990.12340
  20031150.82600  26360437.31400                  15740049.13440  26360440.80740
    910829.71500  24023334.24400                    777946.03340  24023337.20940
 96  9  6  2 26  0.0100000  0  6  4 14 15 18 25 29
     59183.15700  27978322.87700                     11827.66650  27978325.33840
  -2482057.83400  23413227.17400                  -1863372.85540  23413231.32240
  25078777.50600  27175200.78300                  26496547.25140  27175205.57640
  -2128266.20100  26378822.54100                  -1606828.39940  26378827.63940
  20181090.43200  26388969.96300                  15856885.19340  26388973.81840
    951832.33700  24031136.72800                    809896.14040  24031139.71740
 96  9  6  2 26 30.0100000  0  6  4 14 15 18 25 29
     77867.78800  27981879.02500                     26387.22140  27981887.53740
  -2417560.65300  23425500.68200                  -1813115.31340  23425504.77140
  25244717.61500  27206779.28300                  26625851.16140  27206785.98640
  -2144794.99800  26375677.11100                  -1619707.92440  26375681.33040
  20331187.36600  26417532.69700                  15973843.83440  26417536.54140
    993066.83600  24038983.37700                    842026.93040  24038986.29540
 96  9  6  2 27  0.0100000  0  6  4 14 15 18 25 29
     97087.20600  27985537.50200
  -2352466.93500  23437887.39300                  -1762392.94040  23437891.41240
  25410728.42500  27238370.08000                  26755210.12240  27238376.64340
  -2161218.91300  26372551.10300                  -1632505.72240  26372555.52140
  20481449.99900  26446126.81400                  16090931.58740  26446129.88540
   1034548.31100  24046876.68900                    874350.16840  24046879.73640
 96  9  6  2 27 30.0100000  0  6  4 14 15 18 25 29
    116831.07400  27989294.45500
  -2286791.83700  23450384.92400                  -1711217.53440  23450388.96740
  25576796.45100  27269971.64300                  26884613.71640  27269978.95940
  -2177526.39300  26369448.28300                  -1645212.78640  26369452.12740
  20631856.80000  26474748.62700                  16208131.70640  26474751.69740
   1076271.00800  24054816.36100                    906861.37240  24054819.54940
 96  9  6  2 28  0.0100000  0  6  4 14 15 18 25 29
    137102.70900  27993152.68900
  -2220550.10700  23462990.52500                  -1659600.60540  23462994.56840
  25742908.91800  27301581.08800                  27014051.95140  27301588.19340
  -2193711.26700  26366368.75200                  -1657824.32540  26366373.19340
  20782382.71500  26503392.37700                  16325424.63740  26503396.47840
   1118219.30100  24062798.99400                    939548.35940  24062802.11140
 96  9  6  2 28 30.0110000  0  6  4 14 15 18 25 29
    157914.12200  27997112.05400                      8700.01950  27997117.31540
  -2153729.80500  23475706.08500                  -1607532.83740  23475710.22240
  25909079.19500  27333203.33500                  27143535.18140  27333208.29240
  -2209768.19600  26363313.18600                  -1670336.18440  26363317.86240
  20933046.37100  26532063.47600                  16442824.89740  26532066.88640
   1160412.46000  24070828.14000                    972426.15340  24070831.09340
 96  9  6  2 29  0.0110000  0  6  4 14 15 18 25 29
    179259.88900  28001172.72600                     25332.96640  28001185.21040
  -2086329.00600  23488531.91300                  -1555012.73340  23488536.07340
  26075287.33000  27364831.28000                  27273047.93040  27364837.25740
  -2225707.55600  26360279.65500                  -1682756.40640  26360284.53040
  21083831.27200  26560756.60800                  16560319.63240  26560760.19440
   1202850.47500  24078903.71800                   1005494.74840  24078906.63640
 96  9  6  2 29 30.0110000  0  6  4 14 15 18 25 29
    201111.92200  28005331.02200                     42360.61340  28005334.21040
  -2018365.52700  23501464.86600                  -1502054.17940  23501468.83940
  26241513.51400  27396463.52200                  27402574.73640  27396467.71840
  -2241565.93900  26357261.89000                  -1695113.52640  26357265.76840
  21234721.86400  26589470.56100                  16677896.72340  26589473.93640
   1245511.97700  24087021.98300                   1038737.48340  24087024.85440
 96  9  6  2 30  0.0110000  0  6  4 14 15 18 25 29
    223492.01700  28009590.28000                     59799.65440  28009597.21040
  -1949813.88400  23514509.96000                  -1448637.31340  23514514.07340
  26407776.25600  27428102.36600                  27532130.06140  27428107.21840
  -2257340.21900  26354260.21800                  -1707405.13140  26354264.95240
  21385752.45700  26618210.01500                  16795582.90840  26618213.41340
   1288415.40500  24095186.17100                   1072168.72740  24095188.90140
 96  9  6  2 30 30.0110000  0  6  4 14 15 18 25 29
    246370.28800  28013944.37400                     77626.90840  28013949.10840
  -1880683.05600  23527665.17100                  -1394769.13740  23527669.28440
  26574066.62100  27459746.05400                  27661706.87240  27459752.20640
  -2273054.05500  26351269.53800                  -1719649.63740  26351274.94040
  21536926.40200  26646977.40500                  16913380.77240  26646981.43640
   1331552.86800  24103395.05400                   1105782.34340  24103397.97240
 96  9  6  2 31  0.0110000  0  6  4 14 15 18 25 29
    269749.46000  28018393.03800                     95844.49240  28018393.58940
  -1810974.53800  23540930.10100                  -1340450.81340  23540934.09740
  26740385.52400  27491396.53800                  27791305.93040  27491401.64740
  -2288687.77400  26348295.02200                  -1731831.71140  26348298.90140
  21688248.47700  26675772.99100                  17031294.08540  26675776.92940
   1374913.30000  24111646.20200                   1139569.69840  24111649.20240
 96  9  6  2 31 30.0110000  0  6  4 14 15 18 25 29
    293626.06900  28022936.44400                    114449.65140  28022934.46440
  -1740703.31300  23554302.14700                  -1285694.01340  23554306.19040
  26906727.20000  27523049.55400                  27920922.73740  27523056.37440
  -2304229.62600  26345337.48300                  -1743942.19640  26345341.57340
  21839717.36500  26704597.00700                  17149321.79640  26704600.14740
   1418486.30000  24119937.85100                   1173522.69240  24119940.82740
 96  9  6  2 32  0.0110000  0  6  4 14 15 18 25 29
    318002.41500  28027573.81100                    133444.15340  28027576.12040
  -1669872.21600  23567781.17900                  -1230500.94940  23567785.14040
  27073087.60300  27554706.98300                  28050554.13640  27554712.38640
  -2319664.06000  26342400.19400                  -1755968.97240  26342404.65940
  21991320.18800  26733445.39000                  17267453.84140  26733448.56540
   1462272.38900  24128270.08500                   1207641.72740  24128273.02640
 96  9  6  2 32 30.0110000  0  6  4 14 15 18 25 29
    342887.89700  28032311.53000                    152835.39940  28032315.44440
  -1598481.06300  23581366.19400                  -1174871.48240  23581370.26140
  27239459.62100  27586366.64700                  28180194.61840  27586373.06940
  -2334972.49600  26339487.21000                  -1767897.57740  26339492.19040
  22143044.05900  26762317.85100                  17385680.24040  26762320.67540
   1506278.00400  24136644.06900                   1241931.82340  24136647.16340
 96  9  6  2 33  0.0110000  0  6  4 14 15 18 25 29
    368318.08000  28037150.68600                    172651.21540  28037160.79240
  -1526497.62200  23595064.33500                  -1118780.48640  23595068.51840
  27405853.38100  27618029.83500                  28309852.02840  27618035.78840
  -2350123.52500  26336603.59300                  -1779703.53840  26336607.97640
  22294898.42200  26791214.81100                  17504008.30440  26791217.91740
   1550521.50000  24145063.23300                   1276407.28540  24145066.17540
 96  9  6  2 33 30.0110000  0  6  4 14 15 18 25 29
    394306.65000  28042095.30400                    192902.00040  28042096.69840
  -1453901.77500  23608878.84300                  -1062212.29640  23608882.90940
  27572267.31400  27649697.93600                  28439525.16140  27649703.51540
  -2365122.79900  26333749.03000                  -1791391.24440  26333754.35140
  22446873.58800  26820134.89700                  17622430.50040  26820136.97240
   1595023.71600  24153531.73300                   1311084.34640  24153534.75740
 96  9  6  2 34  0.0110000  0  6  4 14 15 18 25 29
    420848.25800  28047144.84300                    213583.85440  28047149.95240
  -1380700.58700  23622808.64000                  -1005172.40640  23622812.61240
  27738687.01700  27681366.99100                  28569202.81040  27681371.76140
  -2379991.87600  26330919.98300                  -1802977.50240  26330923.97940
  22598961.92700  26849075.95200                  17740940.92340  26849080.72240
   1639772.65300  24162047.28000                   1345953.65440  24162050.22240
 96  9  6  2 34 30.0110000  0  6  4 14 15 18 25 29
    447938.72200  28052300.71000                    234693.28740  28052303.33540
  -1306899.28600  23636852.61600                   -947664.89940  23636856.68340
  27905110.45800  27713036.31900                  28698883.31340  27713045.51140
  -2394748.91400  26328111.81900                  -1814476.44840  26328116.51840
  22751170.62200  26878040.23300                  17859545.09540  26878043.90140
   1684754.03100  24170607.00700                   1381004.09040  24170609.91340
 96  9  6  2 35  0.0110000  0  6  4 14 15 18 25 29
    475570.63400  28057558.89000                    256224.64640  28057560.06140
  -1232502.22700  23651009.75700                   -889693.16540  23651013.82340
  28071536.63200  27744706.31900                  28828565.96640  27744714.58540
  -2409415.22000  26325321.01500                  -1825904.70040  26325325.67940
  22903493.35000  26907026.68600                  17978238.12140  26907030.06140
   1729956.11400  24179208.64000                   1416226.50340  24179211.38240
 96  9  6  2 35 30.0110000  0  6  4 14 15 18 25 29
    503739.99000  28062918.92900                    278174.77140  28062924.29640
  -1157530.28500  23665276.39700                   -831273.46940  23665280.52240
  28237966.18500  27776377.27200                  28958251.28440  27776383.34340
  -2424002.87000  26322545.21000                  -1837271.65640  26322549.19440
  23055928.13400  26936034.12400                  18097018.47140  26936037.53440
   1775391.64600  24187854.62400                   1451630.83040  24187857.58940
 96  9  6  2 36  0.0110000  0  6  4 14 15 18 25 29
    532427.39400  28068378.00700                    300528.61840  28068379.23740
  -1082000.35500  23679649.49100                   -772418.98040  23679653.44040
  28404393.77400  27808046.94400                  29087935.01840  27808052.92140
  -2438512.14100  26319784.20200                  -1848577.56040  26319788.18640
  23208468.46700  26965061.74900                  18215881.07340  26965065.38240
   1821049.23400  24196542.88200                   1487208.17940  24196545.84740
 96  9  6  2 36 30.0110000  0  6  4 14 15 18 25 29
    561633.45200  28073936.24100                    323286.62740  28073941.44440
  -1005907.50500  23694129.30400                   -713125.85240  23694133.27640
  28570818.90400  27839716.58500                  29217616.89640  27839722.24540
  -2452930.74000  26317040.14700                  -1859812.77740  26317044.83540
  23361104.47600  26994107.72600                  18334818.21240  26994109.89340
   1866942.21700  24205276.01500                   1522968.95640  24205279.08540
 96  9  6  2 37  0.0110000  0  6  4 14 15 18 25 29
    591366.08000  28079593.99100                    346454.87340  28079597.62440
   -929251.08300  23708716.59300                   -653393.57340  23708720.53040
  28737233.15700  27871384.15500                  29347290.26840  27871389.24140
  -2467243.04600  26314316.31900                  -1870965.19640  26314320.78440
  23513832.49500  27023170.89000                  18453827.07440  27023174.25340
   1913081.60600  24214056.21000                   1558921.74040  24214059.12840
 96  9  6  2 37 30.0110000  0  6  4 14 15 18 25 29
    621617.63300  28085351.18600                    370027.53540  28085358.00740
   -852035.72500  23723409.88200                   -593225.76340  23723413.93640
  28903627.63200  27903048.93600                  29476948.19640  27903051.80840
  -2481435.39900  26311615.59300                  -1882024.13140  26311619.36640
  23666652.28700  27052251.30400                  18572907.39740  27052253.83540
   1959467.73800  24222882.97600                   1595066.78940  24222885.94040
 96  9  6  2 38  0.0110000  0  6  4 14 15 18 25 29
    652408.50300  28091210.52200                    394020.44540  28091215.49140
   -774239.34400  23738214.33500                   -532605.20340  23738218.37840
  29070012.85200  27934709.85800                  29606598.96040  27934715.10840
  -2495486.56200  26308941.86600                  -1892973.05740  26308945.94440
  23819594.30200  27081354.49100                  18692083.02340  27081356.99940
   2006094.30900  24231755.61600                   1631399.19240  24231758.73340
 96  9  6  2 38 30.0110000  0  6  4 14 15 18 25 29
    683744.00900  28097172.64000                    418437.66940  28097179.88640
   -695873.60200  23753126.83500                   -471540.98740  23753130.79640
  29236376.23200  27966367.49100                  29736232.80640  27966372.62440
  -2509418.04500  26306290.85100                  -1903828.72840  26306295.74940
  23972660.51400  27110482.31100                  18811355.35840  27110486.26140
   2052943.25300  24240670.62400                   1667904.87740  24240673.65940
 96  9  6  2 39  0.0110000  0  6  4 14 15 18 25 29
    715617.08300  28103237.83500                    443273.85440  28103243.21440
   -616937.00900  23768147.87400                   -410031.95540  23768151.81140
  29402709.87600  27998020.17900                  29865843.29340  27998026.07340
  -2523252.03600  26303658.45200                  -1914608.44440  26303663.11640
  24125847.78200  27139632.97600                  18930722.06740  27139637.28840
   2100008.83500  24249627.16300                   1704579.36240  24249630.16340
 96  9  6  2 39 30.0110000  0  6  4 14 15 18 25 29
    748022.92600  28109404.58500                    468525.12240  28109411.85440
   -537411.45400  23783281.01500                   -348063.98540  23783285.03440
  29569015.60900  28029668.29600                  29995432.12540  28029676.85440
  -2536995.24500  26301043.49900                  -1925317.39740  26301048.35140
  24279157.17700  27168806.39700                  19050183.93440  27168811.31940
   2147297.68500  24258625.99100                   1741427.83340  24258628.80440
 96  9  6  2 40  0.0110000  0  6  4 14 15 18 25 29
    780961.98700  28115673.03800                    494191.91140  28115679.20240
   -457289.96600  23798527.85800                   -285631.65840  23798531.77240
  29735289.03800  28061308.13200                  30124995.70640  28061309.53840
  -2550654.25500  26298444.15500                  -1935960.73640  26298448.65540
  24432581.09100  27198001.37400                  19169735.02440  27198005.55840
   2194813.23500  24267667.76500                   1778452.94540  24267670.64740
 96  9  6  2 40 30.0110000  0  6  4 14 15 18 25 29
    814441.00000  28122043.88200                    520279.44840  28122047.47940
   -376547.30800  23813892.69400                   -222715.30040  23813896.80840
  29901537.98500  28092944.64700                  30254540.25040  28092952.66740
  -2564207.24400  26295864.47600                  -1946521.48840  26295868.84740
  24586112.41900  27227218.64000                  19289369.81940  27227223.18640
   2242589.54700  24276759.25700                   1815681.25040  24276762.19840
 96  9  6  2 41  0.0120000  0  6  4 14 15 18 25 29
    848442.98400  28128514.47300                    546774.50140  28128517.85940
   -295181.04400  23829375.99600                   -159313.01640  23829380.03940
  30067756.11600  28124574.48800                  30384060.80840  28124582.34440
  -2577644.83400  26293307.62100                  -1956992.29240  26293311.55940
  24739736.09100  27256451.83200                  19409076.57540  27256454.34040
   2290630.28100  24285901.19900                   1853115.59340  24285904.03540
 96  9  6  2 41 30.0120000  0  6  4 14 15 18 25 29
    882969.65700  28135084.74600                    573678.37040  28135090.76940
   -213209.00700  23844974.73000                    -95438.70440  23844978.94940
  30233930.99700  28156196.40200                  30513547.66340  28156204.04740
  -2590943.58600  26290776.97300                  -1967354.92640  26290781.53140
  24893437.75700  27285700.55900                  19528844.09940  27285704.56640
   2338926.51100  24295091.63700                   1890749.03040  24295094.51940
 96  9  6  2 42  0.0120000  0  6  4 14 15 18 25 29
    918026.25300  28141755.00400                    600995.22440  28141762.16840
   -130653.57600  23860684.65200                    -31109.80040  23860688.63740
  30400067.33900  28187809.28500                  30643004.45240  28187815.20340
  -2604102.66700  26288272.96500                  -1977608.72140  26288276.56240
  25047218.77100  27314963.93400                  19648673.46740  27314966.60540
   2387476.96900  24304330.37900                   1928580.56340  24304333.43740
 96  9  6  2 42 30.0120000  0  6  4 14 15 18 25 29
    953604.49800  28148525.13700                    628718.45940  28148529.57840
    -47528.06200  23876502.96500                     33663.32640  23876506.92640
  30566155.95100  28219416.81600                  30772424.10740  28219424.51940
  -2617145.35700  26285791.12900                  -1987771.81840  26285795.66440
  25201064.90100  27344240.03500                  19768553.56040  27344242.61340
   2436269.92300  24313615.48800                   1966601.05140  24313618.43040
 96  9  6  2 43  0.0120000  0  6  4 14 15 18 25 29
    989711.07500  28155397.48000                    656853.51440  28155398.47640
     36159.85300  23892428.36300                     98874.68740  23892432.38340
  30732202.81600  28251015.72300                  30901811.24440  28251023.37940
  -2630077.97400  26283329.96500                  -1997849.15340  26283333.71540
  25354976.31200  27373528.36300                  19888484.53940  27373531.18740
   2485305.81300  24322946.63700                   2004810.84640  24322949.75440
 96  9  6  2 43 30.0120000  0  7  4 14 15 18 19 25 29
   1026353.29100  28162370.41800                    685405.86840  28162375.45740
    120410.36500  23908460.58200                    164524.43740  23908464.49640
  30898208.51000  28282604.77700                  31031166.23640  28282609.91040
  -2642903.46100  26280889.09800                  -2007842.98240  26280893.79740
    -17207.85410  28347200.19900
  25508951.44900  27402828.55900                  20008465.13640  27402831.91040
   2534597.31200  24332326.45700                   2043219.81840  24332329.55140
 96  9  6  2 44  0.0120000  0  7  4 14 15 18 19 25 29
   1063536.48700  28169445.41800                    714379.74640  28169449.68440
    205234.66600  23924601.96500                    230621.29240  23924605.99640
  31064167.55200  28314185.95700                  31160484.86640  28314194.99640
  -2655634.50300  26278466.09000                  -2017763.24040  26278470.90640
    -47448.13100  28341444.91000
  25662993.89300  27432141.97300                  20128498.20940  27432146.81240
   2584150.40400  24341756.12100                   2081832.62640  24341759.08640
 96  9  6  2 44 30.0120000  0  7  4 14 15 18 19 25 29
   1101271.39400  28176626.61300                    743783.61240  28176632.22640
    290652.10400  23940856.27700                    297180.33840  23940860.29740
  31230072.16000  28345755.88700                  31289761.04440  28345759.47340
  -2668262.33400  26276063.11300                  -2027603.06140  26276067.48440
    -77524.59300  28335722.15200
  25817105.21900  27461467.95700                  20248584.98040  27461471.14440
   2633963.44200  24351234.98800                   2120647.99340  24351237.91840
 96  9  6  2 45  0.0120000  0  7  4 14 15 18 19 25 29
   1139572.37000  28183915.29300                    773628.53240  28183919.41840
    376662.32300  23957223.61300                    364201.28140  23957227.72640
  31395917.60300  28377316.17600                  31418991.25140  28377320.81640
  -2680756.64900  26273686.04300                  -2037338.84140  26273690.33240
   -107438.21800  28330029.48000
  25971296.88600  27490809.62100                  20368734.31440  27490813.62940
   2684042.64600  24360764.85500                   2159670.75940  24360768.04340
 96  9  6  2 45 30.0120000  0  7  4 14 15 18 19 25 29
   1178446.57400  28191312.79300                    803920.10040  28191317.46940
    463268.09000  23973704.19900                    431686.29340  23973708.19540
  31561697.64400  28408863.44900                  31548170.34440  28408872.58240
  -2693118.59400  26271333.41000                  -2046971.48040  26271337.71140
   -137201.55700  28324366.11300
  26125585.70500  27520169.16000                  20488959.36140  27520173.40240
   2734379.22900  24370343.54300                   2198894.08340  24370346.63740
 96  9  6  2 46  0.0120000  0  7  4 14 15 18 19 25 29
   1217889.94500  28198818.55900                    834655.18240  28198824.48840
    550454.45200  23990295.19900                    499623.71740  23990299.18440
  31727398.83700  28440395.42600                  31677288.13740  28440399.94940
  -2705365.31000  26269003.22300                  -2056514.31940  26269007.61740
   -166826.68800  28318728.80900
  26279975.14500  27549549.05900                  20609262.81240  27549552.02340
   2784947.82900  24379966.43400                   2238298.19740  24379969.42240
 96  9  6  2 46 30.0120000  0  7  4 14 15 18 19 25 29
   1257903.98200  28206433.73000                    865834.99140  28206438.85140
    638227.15600  24006997.59800                    568018.03240  24007001.67640
  31893035.69600  28471914.07400                  31806355.69040  28471918.82040
  -2717487.26800  26266696.21500                  -2065959.94240  26266700.30540
   -196288.19600  28313122.98800                    -19121.22950  28313131.59440
  26434470.30800  27578949.09000                  20729648.64340  27578953.15640
   2835767.15700  24389637.12100                   2277897.68540  24389640.14440
 96  9  6  2 47  0.0120000  0  6  4 14 18 19 25 29
   1298450.96400  28214148.76900                    897430.00640  28214152.23840
    726567.96000  24023808.39400                    636855.02040  24023812.37940
  -2729514.80500  26264407.37900                  -2075331.99340  26264411.85540
   -225595.54000  28307545.59800                    -41958.08440  28307553.53540
  26589050.02600  27608365.01200                  20850100.39240  27608370.26240
   2886818.05800  24399351.80100                   2317677.61840  24399354.89440
 96  9  6  2 47 30.0120000  0  6  4 14 18 19 25 29
   1339518.03400  28221962.46500                    929430.35940  28221968.25440
    815485.17100  24040728.82400                    706141.16340  24040732.93740
  -2741461.31000  26262133.70700                  -2084640.89640  26262137.64440
   -254742.40800  28301998.51900                    -64669.70940  28302007.65240
  26743708.32700  27637794.88700                  20970613.34540  27637799.77340
   2938089.06700  24409108.46500                   2357629.06740  24409111.27740
 96  9  6  2 48  0.0120000  0  6  4 14 18 19 25 29
   1381098.19500  28229875.98800                    961830.45940  28229879.22340
    904978.27100  24057758.67600                    775876.03340  24057762.69540
  -2753304.10000  26259879.95700                  -2093869.00340  26259884.43440
   -283723.30300  28296483.41800                    -87252.12440  28296488.63340
  26898431.79400  27667238.97300                  21091177.07240  27667243.61340
   2989584.59200  24418907.60500                   2397755.45040  24418910.54740
 96  9  6  2 48 30.0120000  0  6  4 14 18 19 25 29
   1423168.61500  28237881.40200                    994612.60040  28237886.60540
    995051.24900  24074898.87900                    846062.77740  24074903.00440
  -2765032.98200  26257647.97300                  -2103008.33540  26257652.51940
   -312550.52400  28290997.26200                   -109714.70140  28291005.28140
  27053204.05100  27696690.73800                  21211778.82940  27696693.31640
   3041284.92200  24428745.77700                   2438041.43940  24428748.70740
 96  9  6  2 49  0.0120000  0  6  4 14 18 19 25 29
   1465739.58600  28245981.63700                   1027784.80140  28245986.98040
   1085709.79800  24092150.71500                    916705.79840  24092154.89840
  -2776622.71200  26255442.79300                  -2112039.22440  26255447.57440
   -341227.24000  28285539.85500                   -132060.07940  28285546.72640
  27208035.64600  27726153.98800                  21332426.82340  27726157.59840
   3093172.34000  24438619.77700                   2478473.20040  24438622.55540
 96  9  6  2 49 30.0120000  0  6  4 14 18 19 25 29
   1508837.84800  28254183.62100                   1061367.89940  28254190.66840
   1176945.99200  24109512.48800                    987798.93640  24109516.55540
  -2788058.23700  26253266.96500                  -2120949.97040  26253270.73840
   -369753.88600  28280112.16000                   -154288.46740  28280118.76940
  27362939.83500  27755630.74600                  21453131.40640  27755634.26240
   3145267.93600  24448533.15200                   2519067.18340  24448536.00040
 96  9  6  2 50  0.0120000  0  6  4 14 18 19 25 29
   1552491.03700  28262491.12900                   1095383.31240  28262495.37140
   1268767.31000  24126985.43400                   1059348.01040  24126989.30140
  -2799328.23400  26251122.03500                  -2129731.73540  26251125.65640
   -398118.35600  28274713.63700                   -176390.46640  28274721.62140
  27517929.70900  27785124.57400                  21573902.71440  27785127.36340
   3197604.35400  24458492.37100                   2559848.81140  24458495.17240
 96  9  6  2 50 30.0120000  0  6  4 14 18 19 25 29
   1596710.58300  28270905.25400                   1129840.10640  28270911.98040
   1361183.92100  24144571.84800                   1131360.95540  24144575.94940
  -2810455.69800  26249004.55100                  -2138402.43340  26249008.95740
   -426313.56900  28269348.11300                   -198360.55940  28269354.32440
  27673009.05600  27814634.55900                  21694743.73640  27814638.97640
   3250203.80900  24468501.62100                   2600835.40840  24468504.60940
 96  9  6  2 51  0.0120000  0  6  4 14 18 19 25 29
   1641505.45700  28279428.97300                   1164745.24540  28279434.28140
   1454168.69200  24162266.25400                   1203816.61840  24162270.30940
  -2821482.15000  26246906.01200                  -2146994.42140  26246910.16040
   -454346.52900  28264013.82400                   -220204.31040  28264019.37940
  27828152.70800  27844157.77700                  21815634.89040  27844161.35140
   3303086.44900  24478565.03500                   2642042.67240  24478568.03540
 96  9  6  2 51 30.0120000  0  6  4 14 18 19 25 29
   1686878.05200  28288064.01200                   1200100.48940  28288066.77740
   1547724.86800  24180069.48800                   1276717.53540  24180073.56640
  -2832416.33400  26244825.72300                  -2155514.53340  26244830.07040
   -482212.46400  28258712.08200                   -241917.87440  28258718.43440
  27983354.72700  27873691.40200                  21936571.56940  27873694.29740
   3356277.38100  24488687.05900                   2683490.15940  24488689.87140
 96  9  6  2 52  0.0120000  0  6  4 14 18 19 25 29
   1732814.51400  28296804.70700                   1235895.10740  28296807.87140
   1641864.21300  24197983.55900                   1350072.86340  24197987.49640
  -2843242.55800  26242765.14400                  -2163950.50540  26242768.87140
   -509894.31700  28253443.64400                   -263487.95240  28253450.44140
  28138607.82900  27903235.37100                  22057548.02040  27903239.02740
   3409770.69400  24498866.51200                   2725173.26940  24498869.28940
 96  9  6  2 52 30.0120000  0  6  4 14 18 19 25 29
   1779293.75400  28305649.00400                   1272112.76040  28305654.99240
   1736587.67600  24216008.75400                   1423883.35540  24216012.75040
  -2853955.49500  26240726.66800                  -2172298.21540  26240730.17240
   -537386.50900  28248211.71500                   -284910.31140  28248218.82040
  28293912.14800  27932789.11300                  22178564.37840  27932792.44140
   3463553.55600  24509100.79300                   2767082.00440  24509103.73440
 96  9  6  2 53  0.0120000  0  6  4 14 18 19 25 29
   1826309.45100  28314596.60500
   1831888.76200  24234144.05100                   1498143.94340  24234147.95340
  -2864521.53100  26238715.85500                  -2180531.44540  26238719.46540
   -564695.13600  28243015.29300                   -306189.61640  28243019.14840
  28449266.54500  27962352.06600                  22299619.75640  27962354.76240
   3517598.57000  24519385.18400                   2809195.01140  24519387.99640
 96  9  6  2 53 30.0130000  0  6  4 14 18 19 25 29
   1873824.44600  28323639.74300
   1927756.36100  24252386.82100                   1572845.97240  24252390.67740
  -2874934.72800  26236734.72700                  -2188645.58940  26236738.47740
   -591837.59700  28237850.11000                   -327339.40340  28237853.33340
  28604666.43900  27991923.92300                  22420710.62440  27991926.89940
   3571870.00300  24529712.82100                   2851484.44840  24529715.61040
 96  9  6  2 54  0.0130000  0  6  4 14 18 19 25 29
   1921851.03500  28332777.86800
   2024197.12700  24270739.08700                   1647994.61940  24270743.14240
  -2885181.34400  26234784.15700                  -2196629.92740  26234788.10640
   -618797.99200  28232719.56300                   -348347.38440  28232726.31340
  28760116.10300  28021505.11800                  22541840.21640  28021508.77440
   3626373.49700  24540084.36000                   2893954.71440  24540087.26740
 96  9  6  2 54 30.0130000  0  6  4 14 18 19 25 29
   1970409.12200  28342017.00100
   2121217.14400  24289201.33700                   1723594.63140  24289205.33340
  -2895277.88600  26232862.61800                  -2204497.32540  26232867.15340
   -645589.76700  28227620.85200                   -369223.96840  28227628.40340
  28915619.26300  28051096.50100                  22663011.49840  28051099.71240
   3681103.88200  24550499.33700                   2936601.77640  24550502.27840
 96  9  6  2 55  0.0130000  0  6  4 14 18 19 25 29
   2019510.13900  28351361.44600                     12797.27150  28351365.89940
   2218805.55000  24307771.79000                   1799637.54540  24307775.75140
  -2905218.10100  26230971.29000                  -2212242.91340  26230975.60240
   -672212.20700  28222554.51700                   -389968.61840  28222560.03640
  29071173.30400  28080697.35200                  22784222.46340  28080701.95840
   3736081.84500  24560961.35200                   2979441.75640  24560964.16540
 96  9  6  2 55 30.0130000  0  6  4 14 18 19 25 29
   2069164.58900  28360810.49300                     51489.03540  28360813.18840
   2316966.49700  24326451.25100                   1876126.59540  24326455.28240
  -2915017.85000  26229106.54000                  -2219879.04240  26229110.19640
   -698651.43500  28217523.43100                   -410570.44340  28217530.82940
  29226787.06800  28110309.72700                  22905479.98140  28110313.07940
   3791335.09400  24571475.61000                   3022496.24440  24571478.43440
 96  9  6  2 56  0.0130000  0  6  4 14 18 19 25 29
   2119397.19300  28370369.51700                     90631.35840  28370371.87240
   2415713.00400  24345242.34500                   1953071.92640  24345246.36440
  -2924670.16000  26227270.08700                  -2227400.29640  26227273.67340
   -724898.66300  28212528.38400                   -431022.73240  28212535.86440
  29382469.94700  28139934.69600                  23026791.29540  28139937.74340
   3846872.22900  24582044.19600                   3065771.94240  24582046.84540
 96  9  6  2 56 30.0130000  0  6  4 14 18 19 25 29
   2170193.20400  28380035.12600                    130212.69140  28380039.90740
   2515034.23300  24364142.14900                   2030465.09340  24364146.14540
  -2934179.85300  26225460.54800                  -2234810.41040  26225464.41540
   -750957.29700  28207569.30600                   -451328.02340  28207573.18440
  29538218.27200  28169572.15700                  23148153.63140  28169577.57140
   3902679.53200  24592663.76700                   3109258.16140  24592666.52040
 96  9  6  2 57  0.0130000  0  6  4 14 18 19 25 29
   2221538.41500  28389805.82900                    170221.88540  28389809.70840
   2614922.78800  24383150.28200                   2108300.32540  24383154.38440
  -2943551.41800  26223676.82900                  -2242112.90140  26223680.67340
   -776827.56500  28202646.39900                   -471486.58340  28202653.85640
  29694027.65100  28199222.04800                  23269563.53940  28199227.07540
   3958757.46600  24603334.93100                   3152955.26340  24603337.77840
 96  9  6  2 57 30.0130000  0  6  4 14 18 19 25 29
   2273429.85800  28399680.50100                    210656.76140  28399685.86840
   2715388.52900  24402268.53200                   2186585.31940  24402272.51740
  -2952811.27200  26221914.60200                  -2249328.34340  26221918.98540
   -802521.88500  28197756.86800                   -491508.03940  28197764.99340
  29849888.95900  28228880.48500                  23391013.88840  28228883.13440
   4015074.41300  24614051.69600                   3196838.60340  24614054.47440
 96  9  6  2 58  0.0130000  0  6  4 14 18 19 25 29
   2325857.95800  28409657.05600                    251509.79340  28409662.70440
   2816428.78600  24421495.64900                   2265317.98340  24421499.65740
  -2961966.90600  26220172.44600                  -2256462.57640  26220176.81740
   -828042.26200  28192900.57100                   -511393.96540  28192908.53240
  30005794.16400  28258549.20400                  23512498.44740  28258553.96240
   4071623.98300  24624812.65700                   3240903.21540  24624815.39940
 96  9  6  2 58 30.0130000  0  6  4 14 18 19 25 29
   2378810.92800  28419735.10200                    292771.88340  28419739.55640
   2918038.75100  24440831.61000                   2344494.57840  24440835.46640
  -2971026.22300  26218448.39200                  -2263521.74740  26218452.30640
   -853393.03700  28188076.43800                   -531147.69440  28188082.53240
  30161734.59200  28288223.92300                  23634010.45140  28288226.44240
   4128418.76700  24635620.25100                   3285158.90140  24635622.98140
 96  9  6  2 59  0.0130000  0  6  4 14 18 19 25 29
   2432299.28600  28429912.64200                    334451.05640  28429917.97440
   3020224.05000  24460276.61800                   2424119.48240  24460280.50940
  -2979988.14000  26216742.87600                  -2270505.01440  26216747.05940
   -878576.63100  28183283.86000                   -550771.24840  28183290.86040
  30317702.77000  28317904.47000                  23755544.10540  28317907.80940
   4185470.80000  24646476.96200                   3329615.04040  24646479.82140
 96  9  6  2 59 30.0130000  0  6  4 14 18 19 25 29
   2486323.55500  28440192.53200                    376547.90340  28440197.30240
   3122991.80400  24479832.79000                   2504198.24840  24479836.61040
  -2988834.49400  26215059.72000                  -2277398.26040  26215063.55240
   -903577.40600  28178526.47700                   -570252.27640  28178530.83740
  30473705.24200  28347591.03200                  23877104.53740  28347593.31740
   4242801.78200  24657386.77400                   3374288.54340  24657389.62240
 96  9  6  3  0  0.0130000  0  6  4 14 18 19 25 29
   2540884.79900  28450575.83700                    419063.14140  28450577.80640
   3226331.70600  24499497.64200                   2584722.84540  24499501.59140
  -2997534.71600  26213403.94600                  -2284177.60840  26213407.95440
   -928383.31600  28173806.03200                   -589581.50340  28173811.79840
  30629742.85100  28377283.75100                  23998692.28140  28377286.15340
   4300426.76400  24668352.33700                   3419191.13840  24668355.20840
 96  9  6  3  0 30.0130000  0  6  4 14 18 19 25 29
   2595981.96400  28461061.19600                    461995.98640  28461065.28640
   3330248.19900  24519272.16500                   2665696.72940  24519276.27840
  -3006069.45500  26211779.79800                  -2290828.03040  26211783.39540
   -952999.82400  28169120.65700                   -608763.11840  28169127.30240
  30785802.94200  28406980.39900                  24120297.57940  28406984.55940
   4358334.16600  24679371.83700                   3464313.79940  24679374.52040
 96  9  6  3  1  0.0130000  0  6  4 14 18 19 25 29
   2651617.69200  28471647.10200                    505348.47840  28471650.00940
   3434731.99900  24539155.10200                   2747112.67540  24539158.98140
  -3014435.94000  26210187.57900                  -2297347.33240  26210191.24740
   -977423.84200  28164474.19600                   -627794.72840  28164479.64540
  30941881.39900  28436681.40700                  24241917.16440  28436683.47040
   4416512.76600  24690442.91500                   3509647.78440  24690445.69240
 96  9  6  3  1 30.0130000  0  6  4 14 18 19 25 29
   2707787.54700  28482335.97000                    549117.23240  28482342.66140
   3539775.71300  24559144.07100                   2828964.92040  24559148.09140
  -3022628.60700  26208628.72000                  -2303731.19240  26208632.84540
  -1001649.11800  28159863.87600                   -646671.44740  28159870.73540
  31097973.81000  28466384.64200                  24363547.66740  28466388.25140
   4474947.88600  24701562.68800                   3555181.65840  24701565.59540
 96  9  6  3  2  0.0130000  0  6  4 14 18 19 25 29
   2764505.02300  28493129.82100                    593312.67040  28493135.47040
   3645378.82300  24579239.70400                   2911253.05940  24579243.73540
  -3030650.68800  26207101.70400                  -2309982.12640  26207105.95840
  -1025685.86200  28155289.43800                   -665401.31640  28155293.36440
  31254072.01600  28496089.21200                  24485182.64440  28496093.30240
   4533621.44200  24712727.66500                   3600901.32440  24712730.54840
 96  9  6  3  2 30.0130000  0  6  4 14 18 19 25 29
   2821786.55600  28504029.90700                    637947.59740  28504032.97740
   3751558.71500  24599445.03200                   2993990.63140  24599449.05240
  -3038504.52100  26205607.33700                  -2316101.95940  26205611.34540
  -1049527.49200  28150752.50100                   -683979.07340  28150757.62240
  31410196.10900  28525798.65700                  24606837.74440  28525803.59140
   4592548.13300  24723941.11800                   3646818.23340  24723943.96640
 96  9  6  3  3  0.0130000  0  6  4 14 18 19 25 29
   2879611.82100  28515033.79000                    683006.19440  28515037.13040
   3858278.95100  24619753.34500                   3077149.25640  24619757.34140
  -3046233.11000  26204136.71200                  -2322124.19440  26204140.80240
  -1073196.29800  28146247.90700                   -702422.20940  28146254.77840
  31566334.08500  28555510.26700                  24728503.77940  28555515.42340
   4651716.87700  24735200.64900                   3692923.76340  24735203.57940
 96  9  6  3  3 30.0130000  0  6  4 14 18 19 25 29
   2937984.41000  28526140.75900                    728491.31540  28526146.32540
   3965558.41200  24640167.90700                   3160743.63740  24640171.72740
  -3053825.18200  26202692.22700                  -2328040.06340  26202696.18840
  -1096683.68200  28141778.46200                   -720723.96440  28141784.47440
  31722507.80500  28585229.25100                  24850197.59740  28585233.42340
   4711153.19700  24746510.85200                   3739237.78740  24746513.75940
 96  9  6  3  4  0.0130000  0  6  4 14 18 19 25 29
   2996906.31600  28537353.47000                    774404.49240  28537357.25540
   4073411.30200  24660691.47000                   3244784.85340  24660695.32540
  -3061283.00000  26201273.24300                  -2333851.31740  26201276.84140
  -1119987.80600  28137343.97000                   -738882.88940  28137349.64240
  31878732.50900  28614957.36800                  24971931.15440  28614962.34940
   4770890.19800  24757878.42300                   3785786.11240  24757881.43440
 96  9  6  3  4 30.0130000  0  6  4 14 18 19 25 29
   3056359.02300  28548668.41500                    820731.21440  28548669.83340
   4181843.06200  24681325.43800                   3329277.13640  24681329.55240
  -3068613.67700  26199878.07100                  -2339563.50740  26199881.62240
  -1143111.01800  28132943.29800                   -756900.87840  28132950.74340
  32035010.77700  28644696.13400                  25093706.45640  28644696.75540
   4830939.91400  24769305.64200                   3832578.10740  24769308.57140
 96  9  6  3  5  0.0130000  0  6  4 14 18 19 25 29
   3116325.08900  28560078.94600                    867458.02240  28560085.59140
   4290851.95300  24702069.25900                   3414219.12240  24702073.27840
  -3075814.57600  26198507.93100                  -2345174.55140  26198511.57540
  -1166050.79900  28128578.68100                   -774775.88940  28128583.81340
  32191333.10400  28674443.29800                  25215516.04640  28674447.41140
   4891301.59400  24780792.17300                   3879613.19640  24780794.79840
 96  9  6  3  5 30.0130000  0  6  4 14 18 19 25 29
   3176790.48900  28571584.22000
   4400433.38100  24722921.86800                   3499607.24640  24722925.91140
  -3082882.09200  26197162.77400                  -2350681.66940  26197166.68840
  -1188820.68000  28124245.12600                   -792518.53640  28124250.98540
  32347675.61400  28704195.11000                  25337341.36340  28704198.16940
   4951956.33500  24792334.47000                   3926876.64240  24792337.02440
 96  9  6  3  6  0.0140000  0  6  4 14 18 19 25 29
   3237754.52500  28583185.23200
   4510579.79500  24743881.91200                   3585435.61740  24743885.94340
  -3089823.41200  26195841.79500                  -2356090.46140  26195845.63940
  -1211430.74700  28119942.70100                   -810136.67840  28119947.00240
                  28733945.27100
   5012876.15500  24803926.82600                   3974346.64440  24803929.66240
 96  9  6  3  6 30.0140000  0  5  4 14 18 19 29
   3299225.99600  28594884.70900                     20804.14550  28594890.10040
   4621264.58500  24764944.60000                   3671683.50440  24764948.56040
  -3096616.92600  26194549.07600                  -2361384.07340  26194552.97840
  -1233872.53100  28115671.86500                   -827623.65640  28115677.27940
   5074036.50000  24815565.34200                   4022004.06440  24815568.24840
 96  9  6  3  7  0.0140000  0  5  4 14 18 19 29
   3361226.86900  28606682.16200                     69116.46240  28606687.21340
   4732468.12000  24786105.94300                   3758335.61040  24786109.81040
  -3103254.16600  26193285.88100                  -2366555.91240  26193289.40840
  -1256125.81800  28111437.83400                   -844963.80740  28111443.34240
   5135432.77700  24827248.86500                   4069845.32540  24827251.68940
 96  9  6  3  7 30.0140000  0  5  4 14 18 19 29
   3423788.07100  28618586.75600                    117865.43240  28618591.20940
   4844191.44800  24807366.12300                   3845392.74540  24807370.01440
  -3109730.57200  26192053.33400                  -2371602.43340  26192057.09640
  -1278177.17600  28107240.82600                   -862146.55740  28107246.90840
   5197063.30900  24838976.56000                   4117869.12840  24838979.36140
 96  9  6  3  8  0.0140000  0  5  4 14 18 19 29
   3486934.46300  28630604.02100                    167070.38840  28630608.24040
   4956455.65100  24828729.06000                   3932871.34840  24828733.18540
  -3116027.91200  26190854.96700                  -2376509.41340  26190858.47140
  -1299990.83500  28103091.24800                   -879144.08640  28103096.29940
   5258956.62500  24850754.43500                   4166097.69840  24850757.40040
 96  9  6  3  8 30.0140000  0  5  4 14 18 19 29
   3550662.08200  28642730.70100                    216728.22240  28642735.06040
   5069255.30700  24850194.32600                   4020767.18140  24850198.36940
  -3122138.64600  26189692.40400                  -2381270.99340  26189696.23640
  -1321566.57600  28098984.52900                   -895956.30840  28098991.23240
   5321126.14800  24862585.21700                   4214541.48840  24862588.10040
 96  9  6  3  9  0.0140000  0  5  4 14 18 19 29
   3614954.87800  28654964.31800                    266826.47740  28654968.92440
   5182607.71900  24871764.63100                   4109093.73540  24871768.66240
  -3128077.10000  26188562.20900                  -2385898.31840  26188565.94740
  -1342916.49000  28094921.54500                   -912592.51040  28094926.12740
   5383581.85200  24874469.91200                   4263208.28140  24874472.66640
 96  9  6  3  9 30.0140000  0  5  4 14 18 19 29
   3679786.11300  28667301.19300                    317344.24140  28667305.58840
   5296527.74600  24893443.09200                   4197862.58840  24893446.86540
  -3133844.78400  26187464.64600                  -2390392.57740  26187468.42040
  -1364070.81900  28090895.99000                   -929076.33940  28090900.99440
   5446329.49800  24886410.24800                   4312102.55940  24886412.96740
 96  9  6  3 10  0.0140000  0  5  4 14 18 19 29
   3745129.69300  28679736.49800                    368261.32340  28679741.51440
   5411011.39700  24915228.43500                   4287070.62940  24915232.37340
  -3139430.89900  26186401.41200                  -2394745.35840  26186405.11540
  -1385049.38300  28086903.66200                   -945423.17940  28086909.33440
   5509377.55000  24898407.98200                   4361230.92140  24898410.79540
 96  9  6  3 10 30.0140000  0  5  4 14 18 19 29
   3810982.06500  28692268.26400                    419574.82740  28692272.11940
   5526048.12900  24937119.31800                   4376709.64040  24937123.20940
  -3144839.02100  26185372.21700                  -2398959.44840  26185376.17840
  -1405862.87900  28082942.28700                   -961641.43540  28082947.56040
   5572714.71000  24910460.31000                   4410584.56140  24910463.20540
 96  9  6  3 11  0.0140000  0  5  4 14 18 19 29
   3877333.43900  28704894.60000                    471277.11940  28704896.86140
   5641637.71600  24959115.01400                   4466779.44340  24959119.02140
  -3150095.55300  26184371.92800                  -2403055.41440  26184375.59640
  -1426512.06900  28079013.10000                   -977731.65040  28079018.95940
   5636331.70700  24922566.35000                   4460156.25540  24922569.12740
 96  9  6  3 11 30.0140000  0  5  4 14 18 19 29
   3944184.95400  28717615.40400                    523369.19640  28717620.87740
   5757769.87900  24981214.16200                   4557272.04340  24981218.07640
  -3155206.38000  26183399.65400                  -2407037.84040  26183403.00640
  -1446983.80400  28075117.35700                   -993683.52440  28075124.08440
   5700221.12200  24934724.22500                   4509940.22340  24934727.02540
 96  9  6  3 12  0.0140000  0  5  4 14 18 19 29
   4011552.39600  28730434.63900                    575863.28740  28730439.33840
   5874445.82200  25003416.99800                   4648188.36340  25003421.12340
  -3160171.75900  26182454.53700                  -2410906.93640  26182458.00640
  -1467251.88400  28071260.81800                  -1009476.75140  28071267.05340
   5764385.68300  24946934.40400                   4559938.59740  24946937.18240
 96  9  6  3 12 30.0140000  0  5  4 14 18 19 29
   4079450.78700  28743355.84200                    628771.15540  28743359.17040
   5991683.75000  25025726.57600                   4739542.59340  25025730.71340
  -3165000.55300  26181535.78700                  -2414669.59840  26181539.31440
  -1487300.12300  28067445.72500                  -1025098.71040  28067451.52540
   5828831.52300  24959198.01400                   4610156.14140  24959200.90840
 96  9  6  3 13  0.0140000  0  5  4 14 18 19 29
   4147866.97500  28756375.81000                    682082.42640  28756380.46340
   6109484.68000  25048143.31000                   4831335.52440  25048147.36540
  -3169690.24700  26180643.14600                  -2418323.87940  26180646.93240
  -1507132.14600  28063671.66200                  -1040552.12540  28063676.31440
   5893566.19600  24971516.56800                   4660598.75540  24971519.21740
 96  9  6  3 13 30.0140000  0  5  4 14 18 19 29
   4216798.47500  28769491.13900                    735795.26640  28769494.12740
   6227827.04900  25070663.16200                   4923550.35740  25070667.13540
  -3174218.95800  26179781.52900                  -2421852.71540  26179785.04540
  -1526754.52100  28059937.88100                  -1055842.22040  28059943.42440
   5958583.96000  24983889.01400                   4711261.95740  24983891.74440
 96  9  6  3 14  0.0140000  0  5  4 14 18 19 29
   4286252.37300  28782708.54500                    789915.19440  28782712.60040
   6346716.91900  25093287.18500                   5016191.81440  25093291.10040
  -3178562.88800  26178954.68500                  -2425237.56640  26178958.13140
  -1546171.72000  28056242.52900                  -1070972.41440  28056248.07240
   6023888.06100  24996315.98200                   4762148.27840  24996318.54940
 96  9  6  3 14 30.0140000  0  5  4 14 18 19 29
   4356222.28000  28796023.98200                    844437.15940  28796025.91640
   6466139.94600  25116012.67800                   5109248.71940  25116016.61540
  -3182720.20300  26178163.68500                  -2428477.00140  26178167.44740
  -1565396.13900  28052584.94300                  -1085952.40340  28052590.14640
   6089464.71700  25008794.74000                   4813246.98240  25008797.45940
 96  9  6  3 15  0.0140000  0  5  4 14 18 19 29
   4426702.99700  28809435.37300                    899357.24540  28809439.12340
   6586072.17700  25138834.93500                   5202702.39940  25138838.85040
  -3186674.30900  26177411.06000                  -2431558.09440  26177414.84640
  -1584424.11000  28048964.36500                  -1100779.33040  28048968.86540
   6155305.26800  25021323.77100                   4864551.31440  25021326.51440
 96  9  6  3 15 30.0140000  0  5  4 14 18 19 29
   4497708.13600  28822947.99000                    954685.88240  28822951.24840
   6706519.99500  25161755.67800                   5296557.84240  25161759.75640
  -3190426.45700  26176697.10000                  -2434481.81340  26176700.88540
  -1603245.21000  28045382.19300                  -1115445.02840  28045386.07240
   6221413.91300  25033903.86500                   4916064.55940  25033906.59640
 96  9  6  3 16  0.0140000  0  5  4 14 18 19 29
   4569245.12300  28836560.60700                   1010429.00140  28836565.42440
   6827503.92000  25184777.82600                   5390831.02440  25184781.83440
  -3193990.07600  26176018.87300                  -2437258.63940  26176022.45940
  -1621851.85700  28041841.11500                  -1129943.61040  28041844.83040
   6287803.22700  25046537.32600                   4967796.50040  25046540.02140
 96  9  6  3 16 30.0140000  0  5  4 14 18 19 29
   4641309.54900  28850273.69300                   1066583.09240  28850277.91240
   6949010.94900  25207899.90400                   5485511.82440  25207903.86540
  -3197385.84700  26175372.66200                  -2439904.66840  26175376.08440
  -1640241.94900  28038340.95100                  -1144273.48640  28038345.70940
   6354480.27600  25059225.55300                   5019752.65140  25059228.26040
 96  9  6  3 17  0.0140000  0  5  4 14 18 19 29
   4713890.95800  28864085.20900                   1123140.00240  28864090.56440
   7071044.85700  25231122.17000                   5580603.18440  25231126.23640
  -3200626.43000  26174756.20900                  -2442429.76040  26174759.47840
  -1658417.29100  28034882.61500                  -1158436.00040  28034888.45140
   6421454.94400  25071970.24800                   5071940.71840  25071972.93240
 96  9  6  3 17 30.0140000  0  5  4 14 18 19 29
   4786990.12500  28877995.98200                   1180100.39940  28878001.53740
   7193605.40900  25254444.71700                   5676104.90640  25254448.78340
  -3203727.25000  26174166.06000                  -2444845.95740  26174169.68240
  -1676390.95700  28031462.15400                  -1172441.38040  28031468.01440
   6488727.95300  25084771.97500                   5124361.24540  25084774.86940
 96  9  6  3 18  0.0150000  0  5  4 14 18 19 29
   4860605.35800  28892003.55800                   1237462.91940  28892007.34340
   7316685.84100  25277866.22900                   5772011.73940  25277870.29640
  -3206680.56900  26173604.05800                  -2447147.21640  26173607.42140
  -1694169.96600  28028079.08100                  -1186295.06940  28028084.36640
   6556300.69200  25097630.55000                   5177015.33840  25097633.49140
 96  9  6  3 18 30.0150000  0  5  4 14 18 19 29
   4934721.53400  28906107.73700                   1295215.79040  28906112.53040
   7440285.68600  25301386.48700                   5868323.30240  25301390.54240
  -3209463.60300  26173074.31500                  -2449315.78140  26173078.20640
  -1711749.16500  28024733.80000                  -1199993.03540  28024739.39040
   6624176.95800  25110546.97900                   5229905.94340  25110549.64040
 96  9  6  3 19  0.0150000  0  5  4 14 18 19 29
   5009341.66100  28920308.30000                   1353361.32640  28920313.78440
   7564416.41200  25325007.88600                   5965048.53540  25325011.75340
  -3212061.37800  26172580.01100                  -2451339.99040  26172583.86640
  -1729128.62800  28021426.93300                  -1213535.38140  28021431.80840
   6692355.11800  25123521.12800                   5283031.79040  25123523.92940
 96  9  6  3 19 30.0150000  0  5  4 14 18 19 29
   5084473.62800  28934605.66700                   1411905.72640  28934612.17140
   7689079.57100  25348730.38600                   6062188.65840  25348734.40540
  -3214459.28100  26172123.56500                  -2453208.45140  26172127.52640
  -1746302.35200  28018158.30800                  -1226917.41540  28018162.63240
   6760834.06300  25136551.91700                   5336392.01840  25136554.72940
 96  9  6  3 20  0.0150000  0  5  4 14 18 19 29
   5160109.74700  28948997.69800                   1470842.96540  28949003.94440
   7814296.28200  25372558.26800                   6159760.11940  25372562.15940
                  26171706.49500
  -1763259.30100  28014931.59700                  -1240130.56440  28014937.06940
   6829618.94300  25149641.19800                   5389990.63240  25149644.03440
 96  9  6  3 20 30.0150000  0  5  4 14 18 19 29
   5236241.91500  28963485.60400                   1530166.74840  28963493.33140
   7940051.98500  25396488.95600                   6257751.57140  25396492.99940
     -1925.57500  26171326.87000
  -1780021.29300  28011742.18300                  -1253191.78940  28011747.36240
   6898690.04600  25162785.10400                   5443812.28040  25162787.77640
 96  9  6  3 21  0.0150000  0  5  4 14 18 19 29
   5312894.10500  28978072.62000                   1589895.71140  28978075.38640
   8066337.12900  25420519.87800                   6356155.58040  25420523.94440
     -3723.20000  26170984.97200                      -360.17250  26170988.73340
  -1796578.65600  28008591.22900                  -1266093.53640  28008596.17540
   6968046.33500  25175983.19800                   5497856.15140  25175985.96440
 96  9  6  3 21 30.0150000  0  5  4 14 18 19 29
   5390056.34200  28992755.72200                   1650022.12140  28992760.06940
   8193132.57200  25444648.57300                   6454957.21540  25444652.59340
     -5335.02200  26170678.29200                     -1616.10540  26170681.78440
  -1812934.52500  28005478.13600                  -1278838.28240  28005483.57340
   7037681.24400  25189233.85400                   5552117.13140  25189236.74940
 96  9  6  3 22  0.0150000  0  5  4 14 18 19 29
   5467735.60600  29007537.46400                   1710551.38340  29007543.30040
   8320424.64800  25468871.62000                   6554145.83940  25468875.69840
     -6770.67400  26170405.32300                     -2734.76740  26170408.60440
  -1829099.10200  28002402.73700                  -1291434.00140  28002407.80040
   7107590.79800  25202537.47200                   5606592.11140  25202540.28440
 96  9  6  3 22 30.0150000  0  4  4 14 19 29
   5545934.18800  29022418.07300                   1771485.36740  29022421.46040
   8448188.81000  25493184.07300                   6653702.32940  25493188.08140
  -1845075.67300  27999361.98700                  -1303883.17640  27999367.00340
   7177773.60800  25215892.72200                   5661280.02540  25215895.49940
 96  9  6  3 23  0.0150000  0  5  4 14 18 19 29
   5624639.13800  29037394.69000                   1832813.87140  29037400.73740
   8576424.60000  25517586.53400                   6753626.31140  25517590.57740
      -825.18610  26169954.58100
  -1860850.92600  27996360.07300                  -1316175.55140  27996365.13640
   7248239.30200  25229302.13600                   5716188.36340  25229304.89040
 96  9  6  3 23 30.0150000  0  5  4 14 18 19 29
   5703841.02800  29052467.22200                   1894529.61540  29052472.40140
   8705141.24800  25542080.51800                   6853924.99640  25542084.58540
     -1761.89200  26169776.26800                      -522.63950  26169779.90140
  -1876431.07700  27993394.85400                  -1328315.84440  27993400.94840
   7318992.70000  25242765.67500                   5771320.89440  25242768.39340
 96  9  6  3 24  0.0150000  0  5  4 14 18 19 29
   5783548.14700  29067634.37800                   1956639.02840  29067639.32340
   8834357.44900  25566669.19800                   6954612.93840  25566673.37040
     -2518.87100  26169632.01100                     -1112.46840  26169635.79640
  -1891815.87600  27990467.42500                  -1340303.94040  27990472.60440
   7390046.51100  25256287.00300                   5826687.50640  25256289.69840
 96  9  6  3 24 30.0150000  0  5  4 14 18 19 29
   5863742.93900  29082895.22200                   2019128.47740  29082900.29640
   8964077.20500  25591354.40100                   7055693.26840  25591358.37440
     -3082.83800  26169524.64300                     -1551.90540  26169528.03040
  -1906988.69500  27987580.33100                  -1352126.84840  27987585.18340
   7461406.60000  25269866.39300                   5882292.78140  25269869.12440
 96  9  6  3 25  0.0150000  0  5  4 14 18 19 29
   5944425.71300  29098248.62800                   2081998.21240  29098251.86240
   9094304.97100  25616136.08900                   7157169.44740  25616139.92140
     -3439.87200  26169456.99500                     -1830.09640  26169460.58140
  -1921945.84800  27984734.08900                  -1363781.70840  27984739.69040
   7533082.82900  25283506.01800                   5938144.39240  25283508.74940
 96  9  6  3 25 30.0150000  0  5  4 14 18 19 29
   6025601.13000  29113695.94800                   2145251.76640  29113700.68340
   9225043.99100  25641014.56500                   7259044.00740  25641018.53840
     -3590.47600  26169428.24500                     -1947.42640  26169431.77240
  -1936690.77000  27981929.03400                  -1375271.16340  27981934.70640
   7605069.59400  25297204.58900                   5994237.98840  25297207.30840
 96  9  6  3 26  0.0150000  0  5  4 14 18 19 29
   6107275.37900  29129238.05800                   2208893.97740  29129244.72540
   9356287.47600  25665989.94800                   7361311.65640  25665993.96840
     -3538.66600  26169438.24500                     -1907.03240  26169441.69040
  -1951212.51000  27979164.80800                  -1386586.76640  27979170.18640
   7677376.08100  25310964.09700                   6050580.71140  25310966.68640
 96  9  6  3 26 30.0150000  0  5  4 14 18 19 29
   6189437.32500  29144873.66700                   2272916.32240  29144877.42940
   9488030.36200  25691059.22200                   7463968.44740  25691063.37040
     -3290.53300  26169485.44000                     -1713.65840  26169489.17940
  -1965506.58000  27976444.29200                  -1397724.93640  27976449.67140
   7749992.82000  25324782.58100                   6107165.19640  25324785.33540
 96  9  6  3 27  0.0150000  0  5  4 14 18 19 29
   6272091.92100  29160601.60400                   2337322.40840  29160605.62440
   9620277.38800  25716225.02600                   7567018.06740  25716229.03440
     -2864.12300  26169566.55800                     -1381.37640  26169569.97940
  -1979579.34700  27973766.53400                  -1408690.67140  27973771.96040
   7822912.29100  25338658.66700                   6163985.56640  25338661.40940
 96  9  6  3 27 30.0150000  0  5  4 14 18 19 29
   6355246.77900  29176425.28400                   2402118.39840  29176434.66340
   9753029.16200  25741486.94000                   7670461.00240  25741490.81940
     -2259.29200  26169681.69000                      -910.05840  26169685.11240
  -1993431.08800  27971131.05000                  -1419484.17340  27971136.72240
   7896121.22500  25352589.97900                   6221031.49440  25352592.52240
 96  9  6  3 28  0.0150000  0  5  4 14 18 19 29
   6438900.17100  29192343.63600                   2467302.88240  29192348.18340
   9886278.33700  25766843.22200                   7774291.52640  25766847.22940
     -1457.73700  26169834.25300                      -285.45040  26169837.76840
  -2007051.68200  27968538.69800                  -1430097.56140  27968544.28840
   7969625.41900  25366577.15900                   6278307.50040  25366580.03040
 96  9  6  3 28 30.0150000  0  5  4 14 18 19 29
   6523032.29500  29208354.43300                   2532860.34340  29208359.30840
  10020020.96000  25792293.76800                   7878506.55440  25792297.87040
      -454.26800  26170025.08100                       496.49240  26170028.59740
  -2020452.96900  27965987.95600                  -1440540.05040  27965994.34340
   8043406.28300  25380617.13600                   6335799.08540  25380619.93640
 96  9  6  3 29  0.0150000  0  5  4 14 18 19 29
   6607641.94400  29224454.47900                   2598789.92440  29224458.95640
  10154234.81300  25817833.82300                   7983088.77040  25817837.87840
       752.76600  26170254.73700                      1437.05940  26170258.13640
  -2033655.16900  27963476.44000                  -1450827.42540  27963481.43340
   8117477.54900  25394712.49500                   6393516.96140  25394715.22540
 96  9  6  3 29 30.0150000  0  5  4 14 18 19 29
   6692716.46500  29240644.36200                   2665081.79640  29240647.45640
  10288911.08900  25843462.23700                   8088031.31440  25843466.33940
      2166.70000  26170523.60400                      2538.85140  26170527.17940
  -2046670.22300  27960999.80800                  -1460968.97940  27961004.44840
   8191845.99800  25408864.25300                   6451466.40840  25408866.90140
 96  9  6  3 30  0.0150000  0  5  4 14 18 19 29
   6778251.35500  29256920.43300                   2731732.28240  29256924.90940
  10424065.34800  25869181.06500                   8193346.30940  25869185.20240
      3791.94600  26170832.90900                      3805.28440  26170836.50740
  -2059485.26600  27958561.08100                  -1470954.64740  27958565.53440
   8266541.58400  25423078.50300                   6509670.76640  25423081.32740
 96  9  6  3 30 30.0160000  0  5  4 14 18 19 29
   6864246.39800  29273285.06200                   2798741.37140  29273290.38340
  10559700.84800  25894991.65600                   8299036.30240  25894995.72340
      5625.36200  26171181.80500                      5233.93840  26171185.19140
  -2072114.85100  27956157.55500                  -1480795.82140  27956162.39440
   8341572.52300  25437356.45300                   6568136.43540  25437359.09040
 96  9  6  3 31  0.0160000  0  5  4 14 18 19 29
   6950701.90100  29289736.03100                   2866109.27740  29289741.78540
  10695804.73600  25920891.28900                   8405091.27440  25920895.14440
      7656.64000  26171568.36700                      6816.76640  26171571.78940
  -2084559.12000  27953789.52300                  -1490492.58440  27953794.25840
   8416933.18500  25451697.16400                   6626859.03640  25451699.81240
 96  9  6  3 31 30.0160000  0  5  4 14 18 19 29
   7037621.55900  29306277.57800                   2933838.84040  29306280.03940
  10832393.73700  25946883.11700                   8511524.25840  25946887.10140
      9888.82100  26171993.13300                      8556.14440  26171996.66040
  -2096794.69400  27951461.06200                  -1500026.73540  27951465.76240
   8492601.29200  25466096.32800                   6685821.20740  25466098.97640
 96  9  6  3 32  0.0160000  0  5  4 14 18 19 29
   7125011.56300  29322907.28100                   3001934.90540  29322909.96540
  10969459.15100  25972965.77300                   8618328.47040  25972969.75840
     12340.71500  26172459.61700                     10466.72740  26172462.88740
  -2108814.84700  27949173.20300                  -1509393.03640  27949177.72640
   8568566.28500  25480552.06200                   6745014.71240  25480554.67640
 96  9  6  3 32 30.0160000  0  5  4 14 18 19 29
   7212878.54200  29339627.79700                   3070402.68240  29339633.38740
  11106994.43400  25999137.83600                   8725498.81440  25999141.98440
     15016.94100  26172968.92200                     12552.11240  26172972.07440
  -2120618.97800  27946926.96100                  -1518591.00040  27946931.70740
   8644813.25800  25495061.16400                   6804427.94040  25495063.78940
 96  9  6  3 33  0.0160000  0  5  4 14 18 19 29
   7301220.49500  29356439.68700                   3139240.55840  29356441.79740
  11244989.96800  26025397.68000                   8833027.79740  26025401.68740
     17897.32400  26173517.03900                     14796.59240  26173520.01640
  -2132201.27700  27944723.13300                  -1527616.10840  27944727.63340
   8721325.47000  25509621.06200                   6864047.85540  25509623.72340
 96  9  6  3 33 30.0160000  0  5  4 14 18 19 29
   7390044.52500  29373340.88300                   3208454.06040  29373345.19540
  11383454.04300  26051746.46900                   8940921.87440  26051750.62940
     21013.90400  26174110.07800                     17225.11340  26174113.09040
  -2143550.82400  27942563.85100                  -1536459.85340  27942568.55140
   8798127.21900  25524235.92200                   6923893.37940  25524238.62940
 96  9  6  3 34  0.0160000  0  5  4 14 18 19 29
   7479336.32900  29390332.05500                   3278032.05940  29390339.40640
  11522371.49900  26078181.64100                   9049169.23740  26078185.57840
     24353.21600  26174745.50800                     19827.19640  26174748.93040
  -2154686.07000  27940444.30500                  -1545136.59440  27940448.50040
   8875229.63400  25538908.03900                   6983973.19040  25538910.66440
 96  9  6  3 34 30.0160000  0  5  4 14 18 19 29
   7569103.03800  29407414.49200                   3347980.09340  29407419.07440
  11661756.55600  26104705.83600                   9157780.96740  26104709.85540
     27898.91600  26175420.29700                     22590.09740  26175423.94140
  -2165595.93700  27938368.17200                  -1553637.73740  27938373.32840
   8952654.11300  25553641.24200                   7044303.96040  25553644.11340
 96  9  6  3 35  0.0160000  0  5  4 14 18 19 29
   7659336.57400  29424586.07000                   3418291.90140  29424591.20340
  11801601.15400  26131317.04700                   9266750.77640  26131321.20740
     31652.28400  26176134.59400                     25514.81740  26176138.14440
  -2176289.30100  27936333.24200                  -1561970.16540  27936338.37540
   9030404.83200  25568436.85900                   7104888.93740  25568439.49640
 96  9  6  3 35 30.0160000  0  5  4 14 18 19 29
   7750001.96600  29441839.64800                   3488940.24540  29441846.31640
  11941893.61500  26158013.75000                   9376069.57640  26158017.75840
     35605.84900  26176886.73400                     28595.53840  26176890.14440
  -2186786.15200  27934335.60900                  -1570149.47140  27934339.30140
   9108468.08900  25583291.91400                   7165717.45640  25583294.42240
 96  9  6  3 36  0.0160000  0  5  4 14 18 19 29
   7841122.08400  29459178.09400                   3559942.93040  29459182.18340
  12082644.98900  26184798.05500                   9485745.96040  26184802.20340
     39743.18200  26177673.91400                     31819.45840  26177677.28940
  -2197073.33700  27932377.66400                  -1578165.40440  27932382.56240
   9186852.28900  25598207.71100                   7226796.05640  25598210.35940
 96  9  6  3 36 30.0160000  0  5  4 14 18 19 29
   7932697.11100  29476604.30500                   3631300.06540  29476609.51940
  12223863.52600  26211671.23400                   9595786.36940  26211675.32440
     44078.30200  26178498.96100                     35197.49040  26178502.45340
  -2207140.61200  27930462.07000                  -1586010.00140  27930467.25040
   9265549.93200  25613183.32000                   7288118.90040  25613185.84040
 96  9  6  3 37  0.0160000  0  5  4 14 18 19 29
   8024699.04300  29494110.94500                   3702989.86840  29494115.26940
  12365536.93200  26238631.10900                   9706181.22840  26238634.91840
     48624.00400  26179363.90600                     38739.62440  26179367.38740
  -2217000.49900  27928585.82800                  -1593692.95840  27928590.28140
   9344537.07700  25628214.07800                   7349667.33440  25628216.65640
 96  9  6  3 37 30.0160000  0  5  4 14 18 19 29
   8117135.51300  29511702.11700                   3775018.28540  29511707.16840
  12507669.87800  26265677.76600                   9816934.16740  26265681.66840
     53383.50500  26180269.54700                     42448.34440  26180273.05140
  -2226644.57000  27926750.71900                  -1601207.77840  27926755.88740
   9423812.55400  25643299.74200                   7411440.43940  25643302.54340
 96  9  6  3 38  0.0160000  0  5  4 14 18 19 29
   8210019.43000  29529377.78900                   3847395.32640  29529382.41840
  12650248.10400  26292809.57800                   9928034.08140  26292813.65640
     58365.14300  26181217.72600                     46330.16140  26181221.13740
  -2236070.19300  27924956.74200                  -1608552.35040  27924962.34440
   9503383.98700  25658441.67200                   7473444.16040  25658444.55540
 96  9  6  3 38 30.0160000  0  5  4 14 18 19 29
   8303340.27700  29547136.69500                   3920112.88940  29547138.89840
  12793278.96300  26320027.35100                  10039486.69240  26320031.21940
     63596.10600  26182213.21900                     50406.25540  26182216.53540
  -2245265.37600  27923207.03100                  -1615717.38640  27923211.66040
   9583264.07800  25673642.28900                   7535688.38840  25673644.93740
 96  9  6  3 39  0.0160000  0  5  4 14 18 19 29
   8397112.00500  29564979.48400                   3993181.74540  29564983.17640
  12936752.04600  26347328.97600                  10151283.90040  26347332.97340
     69062.30600  26183253.29700                     54665.64940  26183256.47340
  -2254241.95900  27921499.14100                  -1622712.07040  27921504.64840
   9663477.20300  25688906.44500                   7598192.12940  25688909.04740
 96  9  6  3 39 30.0160000  0  5  4 14 18 19 29
   8491350.02500  29582911.09400                   4066613.96240  29582915.32440
  13080653.43600  26374712.82000                  10263414.83940  26374716.86340
     74744.77100  26184334.29700                     59093.56140  26184337.63740
  -2263011.27100  27919830.19500                  -1629545.24940  27919835.51640
   9744037.26800  25704236.70300                   7660966.20840  25704239.29340
 96  9  6  3 40  0.0160000  0  5  4 14 18 19 29
   8586053.69300  29600933.14800                   4140409.07340  29600938.51640
  13224982.28900  26402177.56200                  10375878.88140  26402181.48840
     80653.36200  26185458.86700                     63697.67640  26185462.14840
  -2271574.22500  27918200.80500                  -1636217.63540  27918205.28140
   9824957.68400  25719635.28100                   7724021.08740  25719637.76640
 96  9  6  3 40 30.0160000  0  5  4 14 18 19 29
   8681217.57900  29619043.09400                   4214562.62940  29619046.60940
  13369736.61000  26429723.57000                  10488674.44540  26429727.64840
     86783.05600  26186625.39100                     68474.08040  26186628.55540
  -2279946.22600  27916607.54700                  -1642741.19940  27916612.12940
   9906221.35800  25735099.06200                   7787343.43240  25735101.74640
 96  9  6  3 41  0.0160000  0  5  4 14 18 19 29
   8776849.56600  29637241.86700                   4289081.01840  29637246.81240
  13514911.46900  26457349.29700                  10601797.70940  26457353.12940
     93145.11300  26187836.25000                     73431.54440  26187839.32040
  -2288121.41700  27915052.03900                  -1649111.41040  27915056.44540
   9987813.19800  25750625.36700                   7850921.49740  25750628.19140
 96  9  6  3 41 30.0160000  0  5  4 14 18 19 29
   8872913.36700  29655521.82800                   4363935.95140  29655524.84040
  13660492.28900  26485052.53900                  10715237.30740  26485056.40640
     99749.53700  26189092.77300                     78577.86540  26189095.91440
  -2296109.63100  27913532.00800                  -1655335.93540  27913536.14440
  10069692.13400  25766206.40600                   7914723.26740  25766208.96140
 96  9  6  3 42  0.0160000  0  5  4 14 18 19 29
   8969393.73300  29673881.37500                   4439115.53740  29673884.17640
  13806483.70200  26512833.32800                  10828996.84240  26512837.27740
    106609.72100  26190398.14100                     83923.47940  26190401.45740
  -2303897.04600  27912049.90600                  -1661403.99640  27912054.61740
  10151845.34800  25781839.73400                   7978738.76540  25781842.43040
 96  9  6  3 42 30.0170000  0  5  4 14 18 19 29
   9066278.72600  29692318.75500                   4514610.22540  29692323.27840
  13952891.24300  26540693.90300                  10943080.63240  26540698.02840
    113719.84900  26191751.27800                     89463.85840  26191754.74740
  -2311477.28100  27910606.84100                  -1667310.61640  27910611.82140
  10234274.63700  25797525.53600                   8042969.38640  25797528.19640
 96  9  6  3 43  0.0170000  0  5  4 14 18 19 29
   9163568.03400  29710831.91900                   4590420.15140  29710836.40740
  14099721.47100  26568635.07500                  11057493.78740  26568639.22440
    121090.47200  26193153.75500                     95207.21240  26193157.09540
  -2318823.88600  27909208.65300                  -1673035.20240  27909213.47040
  10317013.12200  25813270.42700                   8107440.93140  25813272.97040
 96  9  6  3 43 30.0170000  0  5  4 14 18 19 29
   9261249.93000  29729419.88800                   4666535.84040  29729422.93440
  14246963.77400  26596654.44200                  11172228.04640  26596658.43840
    128693.84900  26194600.54400                    101131.94240  26194603.98940
  -2325958.37800  27907851.76300                  -1678594.49240  27907856.75540
  10400069.57400  25829075.25500                   8172160.25240  25829077.70440
 96  9  6  3 44  0.0170000  0  5  4 14 18 19 29
   9359338.02400  29748085.80900                   4742968.13140  29748088.08340
  14394618.65100  26624752.01300                  11287283.78840  26624756.09140
    136514.65100  26196088.68400                    107226.09040  26196092.11840
  -2332872.30600  27906535.58300                  -1683981.90440  27906540.72740
  10483457.05300  25844943.45800                   8237137.51440  25844946.04840
 96  9  6  3 44 30.0170000  0  5  4 14 18 19 29
   9457864.97300  29766834.86400                   4819742.33340  29766840.61840
  14542702.09600  26652931.47400                  11402673.47940  26652935.39940
    144573.64100  26197622.45000                    113505.84140  26197625.62640
  -2339546.13000  27905265.59900                  -1689182.23740  27905270.35640
  10567202.41300  25860879.65300                   8302393.63940  25860882.31340
 96  9  6  3 45  0.0170000  0  5  4 14 18 19 29
   9556833.22200  29785667.14500                   4896860.39740  29785671.37640
  14691202.91400  26681190.14500                  11518388.39740  26681194.37640
    152869.75400  26199201.06700                    119970.36240  26199204.43140
  -2345995.08700  27904038.55200                  -1694207.35640  27904043.02840
  10651285.34100  25876879.85600                   8367912.80740  25876882.58740
 96  9  6  3 45 30.0170000  0  5  4 14 18 19 29
   9656238.46500  29804583.43400                   4974319.04640  29804586.03640
  14840117.07000  26709527.55200                  11634425.38840  26709531.64140
    161400.36300  26200824.38800                    126617.60840  26200827.69240
  -2352231.88400  27902851.46600                  -1699067.15140  27902856.15340
  10735675.06300  25892938.92700                   8433671.03740  25892941.54040
 96  9  6  3 46  0.0170000  0  5  4 14 18 19 29
   9756085.19100  29823584.75500                   5052121.63640  29823589.97040
  14989458.56500  26737946.50500                  11750795.37540  26737950.53640
    170183.50700  26202495.82500                    133461.62540  26202499.24740
  -2358245.60700  27901706.67700                  -1703753.13140  27901711.04840
  10820378.54600  25909057.26300                   8499673.74740  25909059.97040
 96  9  6  3 46 30.0170000  0  5  4 14 18 19 29
   9856358.06700  29842665.51300                   5130256.39740  29842669.87240
  15139217.63800  26766444.70800                  11867490.76240  26766448.54040
    179213.74100  26204214.15300                    140498.18840  26204217.57540
  -2364039.61300  27900604.48100                  -1708267.88340  27900609.60240
  10905395.20300  25925235.41900                   8565920.49840  25925238.23140
 96  9  6  3 47  0.0170000  0  5  4 14 18 19 29
   9957037.04900  29861824.24700                   5208707.47940  29861829.23940
  15289384.97100  26795020.41900                  11984504.25540  26795024.26340
    188487.20300  26205979.06700                    147724.27940  26205982.29040
  -2369612.07600  27899544.02000                  -1712610.01640  27899548.36840
  10990727.74200  25941473.87200                   8632413.38940  25941476.60240
 96  9  6  3 47 30.0170000  0  5  4 14 18 19 29
  10058117.00900  29881058.65300                   5287471.10440  29881064.81740
  15439962.04100  26823674.53600                  12101837.04140  26823678.64940
    198003.24900  26207789.60600                    155139.39640  26207793.00540
  -2374943.39700  27898529.50500                  -1716764.25040  27898534.21640
  11076396.74300  25957776.03600                   8699168.46140  25957778.59140
 96  9  6  3 48  0.0170000  0  5  4 14 18 19 29
  10159595.50300  29900368.75500                   5366545.22740  29900378.77840
  15590942.85800  26852405.27800                  12219484.42240  26852409.00540
    207775.50000  26209649.41900                    162754.15340  26209652.89940
  -2380015.58100  27897564.51300                  -1720716.55840  27897568.94240
  11162422.04200  25974145.98900                   8766201.16640  25974148.67340
 96  9  6  3 48 30.0170000  0  5  4 14 18 19 29
  10261451.95300  29919751.00500                   5445913.87340  29919755.51640
  15742300.07100  26881207.37200                  12337425.09940  26881211.21640
    217794.67900  26211555.91900                    170561.32240  26211559.34140
  -2384846.83100  27896644.90300                  -1724481.10940  27896649.95440
  11248781.57500  25990579.80900                   8833494.31140  25990582.45840
 96  9  6  3 49  0.0170000  0  5  4 14 18 19 29
  10363691.42900  29939207.46600                   5525580.93740  29939214.30940
  15894038.57200  26910082.48100                  12455662.87840  26910086.48940
    228075.93400  26213512.09100                    178572.69940  26213515.72440
  -2389448.82600  27895769.02000                  -1728067.03440  27895774.15340
  11335476.14800  26007077.05900                   8901048.52240  26007079.70840
 96  9  6  3 49 30.0170000  0  5  4 14 18 19 29
  10466318.28200  29958738.23100                   5605549.90140  29958741.95840
  16046157.58600  26939029.46600                  12574197.16640  26939033.29840
    238613.92600  26215517.45000                    186784.13440  26215520.70840
  -2393840.28800  27894933.51300                  -1731488.91040  27894937.72040
  11422486.76900  26023634.59100                   8968849.00440  26023637.38040
 96  9  6  3 50  0.0170000  0  5  4 14 18 19 29
  10569344.22400  29978343.10600                   5685829.79640  29978348.22740
  16198662.78000  26968050.23900                  12693032.38040  26968054.11840
    249414.66900  26217572.55900                    195200.31540  26217575.85240
  -2398024.38700  27894137.37200                  -1734749.18340  27894142.10640
  11509813.18000  26040252.54400                   9036895.56440  26040255.08740
 96  9  6  3 50 30.0170000  0  5  4 14 18 19 29
  10672762.58800  29998020.71600                   5766415.55440  29998026.08340
  16351542.44300  26997142.31700                  12812159.37540  26997146.11440
    260451.82000  26219673.45800                    203800.70440  26219676.79840
  -2402027.47200  27893375.23100                  -1737868.42640  27893379.96640
  11597444.39300  26056927.97400                   9105179.63440  26056930.64540
 96  9  6  3 51  0.0170000  0  5  4 14 18 19 29
  10776588.42400  30017779.09100                   5847318.74140  30017782.40740
  16504812.92000  27026309.30900                  12931590.91540  27026313.17740
    271726.71700  26221818.59900                    212586.35440  26221821.69240
  -2405823.77300  27892652.83300                  -1740826.53240  27892657.26340
  11685397.15100  26073664.95000                   9173714.25140  26073667.50540
 96  9  6  3 51 30.0170000  0  5  4 14 18 19 29
  10880807.29300  30037611.38800                   5928528.23340  30037615.24340
  16658468.18100  27055548.61400                  13051322.27640  27055552.64540
    283224.87200  26224006.66900                    221545.97040  26224009.85640
  -2409410.30100  27891970.16900                  -1743621.18440  27891974.55240
  11773666.22300  26090461.88800                   9242495.34840  26090464.54840
 96  9  6  3 52  0.0170000  0  5  4 14 18 19 29
  10985418.33400  30057518.57500                   6010043.27740  30057522.18440
  16812506.35100  27084860.94200                  13171352.01340  27084865.06740
    294966.60300  26226241.02800                    230695.38340  26226244.38040
  -2412783.58100  27891328.05200                  -1746249.66140  27891333.26640
  11862278.72900  26107324.38000                   9311544.06240  26107326.91140
 96  9  6  3 52 30.0170000  0  5  4 14 18 19 29
  11090404.40200  30077496.01300                   6091850.56140  30077501.73140
  16966916.87200  27114244.17700                  13291671.89040  27114248.20840
    306958.93600  26228523.15300                    240040.06940  26228526.39940
  -2415957.83100  27890724.63800                  -1748723.05540  27890729.44240
  11951222.90300  26124249.75500                   9380851.21340  26124252.30940
 96  9  6  3 53  0.0170000  0  5  4 14 18 19 29
  11195751.66900  30097543.61400                   6173939.37940  30097550.47440
  17121704.06600  27143699.49700                  13412285.27640  27143703.20040
    319218.55300  26230856.10600                    249593.03340  26230859.32940
  -2418923.76500  27890160.05200                  -1751034.11640  27890164.00140
  12040485.27900  26141236.02000                   9450406.31540  26141238.55240
 96  9  6  3 53 30.0170000  0  5  4 14 18 19 29
  11301458.73100  30117659.84100                   6256308.50740  30117664.88040
  17276870.48500  27173226.72400                  13533194.16840  27173230.93140
    331771.37600  26233244.63000                    259374.46340  26233247.87640
  -2421693.68600  27889633.00500                  -1753192.43340  27889637.58740
  12130073.79200  26158284.15300                   9520215.54740  26158286.77840
 96  9  6  3 54  0.0170000  0  5  4 14 18 19 29
  11407532.42200  30137844.54400                   6338963.27940  30137850.11040
  17432410.73400  27202824.38800                  13654394.36440  27202828.46640
    344635.00900  26235692.52000                    269398.09240  26235695.77840
  -2424259.12500  27889144.56700                  -1755191.41940  27889149.31340
  12219990.66100  26175394.66100                   9590280.64440  26175397.27440
 96  9  6  3 54 30.0180000  0  6  3  4 14 18 19 29
     -5405.29210  30149737.19700
  11513963.37700  30158097.54100                   6421896.41440  30158102.15840
  17588323.74000  27232494.33800                  13775885.00940  27232498.53340
    357790.90100  26238196.18900                    279649.44640  26238199.22440
  -2426607.93400  27888697.61100                  -1757021.61140  27888702.12340
  12310213.63400  26192563.56400                   9660584.25840  26192566.28340
 96  9  6  3 55  0.0180000  0  6  3  4 14 18 19 29
    -12346.59500  30148416.43900
  11620761.45000  30178419.76700                   6505115.73640  30178422.93240
  17744583.33400  27262229.52500                  13897645.72440  27262233.61540
    371222.12900  26240751.98600                    290115.35440  26240755.15040
  -2428727.11800  27888294.32200                  -1758672.86340  27888298.57640
  12400747.78800  26209791.68200                   9731130.35340  26209794.27140
 96  9  6  3 55 30.0180000  0  6  3  4 14 18 19 29
    -19163.24800  30147119.00200                     -1231.80250  30147122.78740
  11727946.93000  30198816.98600                   6588636.89740  30198824.02140
  17901176.97300  27292027.97800                  14019666.73840  27292032.03340
    384926.34800  26243359.58000                    300793.98040  26243362.89640
  -2430607.74200  27887936.22100                  -1760138.23240  27887940.14640
  12491620.13800  26227083.88500                   9801939.97840  26227086.47440
 96  9  6  3 56  0.0180000  0  6  3  4 14 18 19 29
    -25863.14400  30145843.87700                     -6452.47640  30145843.22140
  11835521.92700  30219286.90000                   6672461.53240  30219293.04140
  18058095.63000  27321888.94700                  14141941.00640  27321892.69740
    398880.74500  26246015.37700                    311667.54440  26246018.68240
  -2432236.06000  27887626.70500                  -1761407.00640  27887631.38140
  12582820.45200  26244439.01700                   9873005.16040  26244441.61940
 96  9  6  3 56 30.0180000  0  5  3 14 18 19 29
    -32434.65600  30144593.58800                    -11573.09640  30144600.06840
  18215340.78100  27351811.98600                  14264469.68440  27351816.04140
    413080.13300  26248717.08800                    322732.01640  26248720.26440
  -2433616.47200  27887363.92400                  -1762482.61740  27887367.97840
  12674350.84900  26261856.51000                   9944327.54940  26261859.14640
 96  9  6  3 57  0.0180000  0  5  3 14 18 19 29
    -38861.46100  30143370.18200                    -16580.96240  30143373.80340
  18372920.82400  27381797.64200                  14387259.32240  27381801.76740
    427545.15500  26251469.59600                    334003.46740  26251472.77140
  -2434750.10900  27887147.83000                  -1763365.92040  27887152.17840
  12766232.78700  26279341.02500                  10015923.86040  26279343.61540
 96  9  6  3 57 30.0180000  0  5  3 14 18 19 29
    -45164.89500  30142170.49400                    -21492.58840  30142177.64640
  18530844.68200  27411850.24400                  14510316.86340  27411854.65040
    442284.02500  26254274.54900                    345488.31640  26254277.78340
  -2435658.15000  27886974.64200                  -1764073.43540  27886979.33040
  12858444.92000  26296888.54900                  10087777.46640  26296891.15040
 96  9  6  3 58  0.0180000  0  5  3 14 18 19 29
    -51339.12800  30140994.95500                    -26303.82140  30141002.31840
  18689130.85000  27441971.01700                  14633656.72740  27441975.50640
    457303.49100  26257132.75200                    357191.80940  26257135.99840
  -2436344.49500  27886844.25200                  -1764608.21140  27886848.96340
  12950976.66300  26314496.52500                  10159880.12340  26314499.10340
 96  9  6  3 58 30.0180000  0  5  3 14 18 19 29
    -57382.55300  30139846.18900                    -31012.89640  30139849.16640
  18847771.63900  27472158.81400                  14757272.92340  27472162.96340
    472614.40100  26260046.40800                    369122.40340  26260049.53740
  -2436824.86800  27886753.15800                  -1764982.47640  27886757.40040
  13043828.88900  26332165.58000                  10232232.50740  26332168.24040
 96  9  6  3 59  0.0180000  0  5  3 14 18 19 29
    -63290.46900  30138722.17400                    -35616.48040  30138724.79940
  19006773.12600  27502416.36100                  14881170.16440  27502420.13540
    488229.45700  26263017.57200                    381289.98940  26263020.81840
  -2437091.19200  27886702.38500                  -1765189.97040  27886706.47440
  13137012.00600  26349897.82200                  10304842.72240  26349900.48240
 96  9  6  3 59 30.0180000  0  5  3 14 18 19 29
    -69052.34700  30137625.18900                    -40106.30540  30137627.87340
  19166132.94000  27532741.10300                  15005346.64840  27532745.40440
    504147.06400  26266046.61100                    393693.33440  26266049.86940
  -2437145.54900  27886691.91600                  -1765232.26740  27886696.29940
  13230529.43500  26367693.80700                  10377713.45040  26367696.17440
 96  9  6  4  0  0.0180000  0  5  3 14 18 19 29
    -74652.18100  30136560.58800                    -44469.69940  30136564.22140
  19325840.15100  27563132.75200                  15129793.81340  27563136.52540
    520360.12700  26269131.65800                    406326.90340  26269135.01040
  -2436994.51600  27886720.89200                  -1765114.54340  27886725.29940
  13324396.86800  26385556.15800                  10450856.90240  26385558.68940
 96  9  6  4  0 30.0180000  0  5  3 14 18 19 29
    -80091.90500  30135524.85300                    -48708.51140  30135529.70540
  19485882.71000  27593588.01700                  15254502.29040  27593592.16640
    536859.33300  26272271.66600                    419183.43640  26272274.73640
  -2436658.57400  27886784.77500                  -1764852.72340  27886789.07640
  13418619.12300  26403486.01700                  10524276.83940  26403488.57240
 96  9  6  4  1  0.0180000  0  5  3 14 18 19 29
    -85352.43500  30134524.29900                    -52807.62340  30134528.27140
  19646264.57600  27624107.12700                  15379475.16640  27624110.84240
    553645.10500  26275465.84600                    432263.27540  26275468.98640
  -2436119.48400  27886887.02500                  -1764432.60840  27886891.27940
  13513215.03100  26421487.12700                  10597987.94140  26421489.65840
 96  9  6  4  1 30.0180000  0  5  3 14 18 19 29
    -90446.23600  30133554.62700                    -56776.73640  30133558.35340
  19806964.71400  27654687.64200                  15504696.04240  27654691.67440
    570691.95300  26278709.58000                    445546.54340  26278712.70940
  -2435387.72200  27887026.46300                  -1763862.38040  27887030.75240
  13608170.66800  26439556.52500                  10671979.34440  26439559.03340
 96  9  6  4  2  0.0180000  0  5  3 14 18 19 29
    -95377.92700  30132615.54900                    -60619.55540  30132622.87740
  19967973.97000  27685326.54900                  15630157.79540  27685330.49840
    587998.78300  26282003.22100                    459032.39440  26282006.36140
  -2434447.35300  27887205.40000                  -1763129.56940  27887209.40840
  13703482.24900  26457693.61900                  10746248.11040  26457696.26740
 96  9  6  4  2 30.0180000  0  5  3 14 18 19 29
   -100142.19000  30131709.68200                    -64331.95140  30131713.13940
  20129288.77500  27716024.17400                  15755857.63840  27716028.75640
    605583.55100  26285349.40000                    472734.81740  26285352.52940
  -2433268.46600  27887429.87700                  -1762210.93240  27887433.96740
  13799150.30000  26475898.56400                  10820794.64240  26475901.26040
 96  9  6  4  3  0.0180000  0  5  3 14 18 19 29
   -104747.01500  30130832.17400                    -67920.17340  30130836.36940
  20290885.70500  27746774.15800                  15881777.31840  27746778.36540
    623448.16700  26288748.68200                    486655.31240  26288751.85740
  -2431849.75700  27887699.57200                  -1761105.39840  27887703.12340
  13895153.94400  26494167.43900                  10895602.67940  26494170.13540
 96  9  6  4  3 30.0180000  0  5  3 14 18 19 29
   -109202.78100  30129985.26700                    -71392.08140  30129988.78340
  20452772.83300  27777581.19700                  16007923.12940  27777585.89640
    641598.34600  26292202.58800                    500798.32140  26292205.72840
  -2430198.89900  27888013.32200                  -1759818.98140  27888017.40040
  13991477.36300  26512497.20500                  10970659.88840  26512499.77140
 96  9  6  4  4  0.0180000  0  5  3 14 18 19 29
   -113492.36600  30129168.71300                    -74734.64440  30129168.39640
  20614963.18600  27808444.57200                  16134305.21540  27808448.25240
    660059.32000  26295715.68200                    515183.50240  26295718.82240
  -2428313.43800  27888372.37700                  -1758349.76840  27888376.42040
  14088131.12000  26530889.86100                  11045974.50440  26530892.48640
 96  9  6  4  4 30.0180000  0  5  3 14 18 19 29
   -117604.58500  30128385.43900                    -77938.91540  30128391.89640
  20777475.13100  27839369.21300                  16260937.88640  27839373.59640
    678853.45700  26299292.30700                    529828.29440  26299295.34240
  -2426197.72200  27888775.36900                  -1756701.12640  27888779.74040
  14185121.69400  26549346.72800                  11121551.57440  26549349.26040
 96  9  6  4  5  0.0180000  0  5  3 14 18 19 29
   -121555.58100  30127633.73600                    -81017.58940  30127640.42840
  20940312.14400  27870356.43900                  16387823.86840  27870360.31840
    697961.10200  26302928.14200                    544717.37440  26302931.13140
  -2423876.95400  27889216.52500                  -1754892.70040  27889220.41640
  14282428.03500  26567863.45500                  11197374.69540  26567865.76440
 96  9  6  4  5 30.0180000  0  5  3 14 18 19 29
   -125331.86200  30126915.76700                    -83960.18640  30126919.56440
  21103480.49700  27901406.14200                  16514968.02840  27901410.61940
    717381.22900  26306623.68900                    559849.94840  26306626.79540
  -2421345.31800  27889698.81400                  -1752919.95840  27889702.81040
  14380058.56200  26586441.95500                  11273450.42840  26586444.33440
 96  9  6  4  6  0.0180000  0  5  3 14 18 19 29
   -128919.81000  30126232.43200                    -86755.95740  30126237.56440
  21266970.58000  27932517.45500                  16642362.88940  27932521.58040
    737122.53500  26310380.30700                    575232.79140  26310383.18940
  -2418603.92800  27890219.76700                  -1750783.77540  27890224.08040
  14478008.39600  26605081.11900                  11349774.97640  26605083.70940
 96  9  6  4  6 30.0190000  0  5  3 14 18 19 29
   -132316.66700  30125585.98300                    -89402.84740  30125590.57740
  21430776.41500  27963688.30400                  16770003.79340  27963691.76140
    757181.56900  26314197.49100                    590863.21240  26314200.26840
  -2415654.34400  27890781.22500                  -1748485.38440  27890785.26840
  14576262.83200  26623778.46800                  11426336.87340  26623780.97540
 96  9  6  4  7  0.0190000  0  5  3 14 18 19 29
   -135517.38800  30124976.60800                    -91896.86640  30124981.91740
  21594868.79200  27994914.42100                  16897867.97940  27994918.88640
    777536.03800  26318070.74900                    606723.84840  26318073.57340
  -2412493.15700  27891382.78800                  -1746022.08340  27891387.34740
  14674816.04800  26642532.42100                  11503131.58340  26642535.10440
 96  9  6  4  7 30.0190000  0  5  3 14 18 19 29
   -138500.86800  30124409.71800                    -94221.63440  30124414.25340
  21759239.69400  28026193.42900                  17025949.18640  28026197.51840
    798198.41900  26322002.81900                    622824.41340  26322005.80740
  -2409109.32200  27892026.60000                  -1743385.29240  27892030.99540
  14773696.80800  26661348.95200                  11580181.52540  26661351.91740
 96  9  6  4  8  0.0190000  0  5  3 14 18 19 29
   -141287.89800  30123879.49100                    -96393.35540  30123882.09340
  21923876.93700  28057522.46000                  17154237.95140  28057526.50340
    819159.26300  26325991.53800                    639157.54440  26325994.65540
  -2405514.18700  27892710.92900                  -1740583.85040  27892715.33540
  14872897.74700  26680226.20200                  11657480.95340  26680228.69840
 96  9  6  4  8 30.0190000  0  5  3 14 18 19 29
   -143870.30700  30123388.13200                    -98405.56840  30123391.39040
  22088792.38900  28088905.35800                  17282743.48340  28088909.36640
    840418.84900  26330037.02200                    655723.46140  26330040.02240
  -2401683.11200  27893439.77200                  -1737598.55540  27893443.93240
  14972457.66000  26699171.73300                  11735060.10740  26699174.41740
 96  9  6  4  9  0.0190000  0  5  3 14 18 19 29
   -146260.52500  30122932.85800                   -100268.08140  30122936.58540
  22253982.19200  28120339.56900                  17411462.80240  28120343.31940
    861972.65900  26334138.41300                    672518.65040  26334141.33140
  -2397625.66100  27894211.74900                  -1734436.86140  27894215.88640
  15072395.61700  26718189.14000                  11812933.83840  26718191.78840
 96  9  6  4  9 30.0190000  0  5  3 14 18 19 29
   -148457.87200  30122515.53800                   -101980.27740  30122517.82340
  22419456.52500  28151828.25700                  17540403.83540  28151832.18240
    883832.88800  26338298.24900                    689552.60640  26338301.22540
  -2393352.43000  27895024.87400                  -1731107.02340  27895029.28040
  15172713.99000  26737279.10000                  11891103.99540  26737281.64340
 96  9  6  4 10  0.0190000  0  5  3 14 18 19 29
   -150462.95500  30122133.10800                   -103542.63040  30122138.28840
  22585220.03400  28183372.41300                  17669570.20340  28183376.45640
    905999.63000  26342516.53000                    706825.40240  26342519.60040
  -2388860.21100  27895879.74100                  -1727606.54640  27895883.76140
  15273402.87700  26756439.46800                  11969562.86540  26756442.04640
 96  9  6  4 10 30.0190000  0  5  3 14 18 19 29
   -152257.92700  30121790.67100                   -104941.27340  30121795.45240
  22751273.39800  28214971.06900                  17798962.42540  28214975.13640
    928483.37900  26346795.02200                    724345.21340  26346798.08140
  -2384140.25200  27896777.60000                  -1723928.62840  27896781.72540
  15374465.83600  26775671.15500                  12048313.22240  26775673.74540
 96  9  6  4 11  0.0190000  0  5  3 14 18 19 29
   -153836.71500  30121491.22500                   -106171.53140  30121495.43240
  22917596.37800  28246621.03000                  17928564.73740  28246624.92140
    951279.30600  26351132.91300                    742108.27940  26351135.98340
  -2379212.44600  27897715.56100                  -1720088.74740  27897719.44040
  15475879.13500  26794969.37400                  12127336.57340  26794971.78840
 96  9  6  4 11 30.0190000  0  5  3 14 18 19 29
   -155203.50700  30121231.28800                   -107236.52140  30121236.63240
  23084162.07200  28278317.58500                  18058356.17740  28278321.39340
    974373.10700  26355527.40500                    760103.45340  26355530.47540
  -2374073.62800  27898693.42100                  -1716084.43640  27898697.38240
  15577615.23700  26814329.07700                  12206611.45140  26814331.77240
 96  9  6  4 12  0.0190000  0  5  3 14 18 19 29
   -156344.90000  30121014.02200                   -108125.90240  30121017.44440
  23250978.21800  28310061.83500                  18188342.77840  28310065.81940
    997780.50600  26359981.70200                    778342.99840  26359984.78440
  -2368696.60200  27899716.78000                  -1711894.49840  27899720.84740
  15679686.09500  26833752.85800                  12286147.18540  26833755.44840
 96  9  6  4 12 30.0190000  0  5  3 14 18 19 29
   -157260.01700  30120839.63200                   -108838.95840  30120843.81540
  23418052.77300  28341855.23300                  18318530.73640  28341859.40540
   1021510.57300  26364497.51500                    796833.96940  26364500.73740
  -2363091.49600  27900783.15500                  -1707526.84340  27900787.37440
  15782098.88800  26853241.18600                  12365949.35940  26853243.82340
 96  9  6  4 13  0.0190000  0  5  3 14 18 19 29
   -157947.58700  30120708.36600                   -109374.69840  30120712.08140
  23585388.56200  28373697.56900                  18448922.24840  28373701.41340
   1045575.54300  26369076.92100                    815585.90340  26369080.20240
  -2357264.40300  27901891.89000                  -1702986.21740  27901896.01540
  15884862.04800  26872796.39700                  12446024.54440  26872799.05740
 96  9  6  4 13 30.0190000  0  5  3 14 18 19 29
   -158425.73900  30120617.93600                   -109747.24140  30120622.89340
  23752995.02600  28405592.15500                  18579524.67640  28405596.29240
   1069981.82000  26373721.07700                    834603.78540  26373724.19440
  -2351214.95600  27903043.39700                  -1698272.32840  27903047.85040
  15987972.57000  26892417.81900                  12526370.40040  26892420.46840
 96  9  6  4 14  0.0190000  0  5  3 14 18 19 29
   -158694.54100  30120566.53800                   -109956.67640  30120571.09740
  23920886.28200  28437540.81900                  18710349.01840  28437544.68640
   1094744.36300  26378433.39000                    853899.28240  26378436.53040
  -2344953.66200  27904234.58500                  -1693393.36140  27904239.02640
  16091437.12800  26912106.44400                  12606992.13540  26912109.09340
 96  9  6  4 14 30.0190000  0  5  3 14 18 19 29
   -158743.04000  30120557.02200                   -109994.44340  30120560.26840
  24089050.21100  28469541.35800                  18841385.84940  28469545.51840
   1119864.86200  26383213.61600                    873473.70240  26383216.66340
  -2338489.99200  27905464.51500                  -1688356.70140  27905468.95640
  16195255.80700  26931862.54600                  12687889.80040  26931865.28840
 96  9  6  4 15  0.0190000  0  5  3 14 18 19 29
   -158566.13500  30120589.99100                   -109856.58440  30120593.13240
  24257465.63200  28501589.58500                  18972618.61640  28501593.74540
   1145331.01600  26388059.72500                    893317.46340  26388062.76140
  -2331825.43400  27906732.69400                  -1683163.50540  27906736.70240
  16299413.68800  26951683.27200                  12769051.78040  26951685.75740
 96  9  6  4 15 30.0190000  0  5  3 14 18 19 29
   -158158.60900  30120668.12400                   -109538.99340  30120671.31140
  24426129.72600  28533685.46800                  19104045.19140  28533690.24940
   1171130.12100  26392969.13200                    913420.66840  26392972.03840
  -2324955.47500  27908040.28000                  -1677810.26940  27908044.04240
  16403898.12800  26971565.68600                  12850468.22240  26971568.40540
 96  9  6  4 16  0.0190000  0  5  3 14 18 19 29
   -157511.15500  30120791.64700                   -109034.42140  30120796.45240
  24595027.44600  28565825.88200                  19235653.79740  28565830.54640
   1197258.96400  26397941.39000                    933780.81640  26397944.27240
  -2317880.10700  27909386.38200                  -1672296.95540  27909390.48340
  16508708.38100  26991510.34300                  12932138.54440  26991512.96840
 96  9  6  4 16 30.0190000  0  5  3 14 18 19 29
   -156602.57400  30120964.21800                   -108326.44340  30120969.08140
  24764159.09500  28598010.78000                  19367444.66940  28598015.22240
   1223728.98500  26402978.21000                    954406.80740  26402981.02240
  -2310584.48500  27910774.80400                  -1666612.02440  27910778.55440
  16613848.88000  27011517.89700                  13014066.19740  27011520.49940
 96  9  6  4 17  0.0190000  0  6  3 14 18 19 27 29
   -155449.55100  30121184.54600                   -107427.94440  30121187.51140
  24933525.37300  28630239.75700                  19499418.39940  28630243.68240
   1250540.64200  26408080.41300                    975299.01240  26408083.49540
  -2303068.90700  27912204.98300                  -1660755.70140  27912208.85040
                  30974174.28800
  16719313.65400  27031587.01500                  13096246.53640  27031589.44040
 96  9  6  4 17 30.0190000  0  6  3 14 18 19 27 29
   -154048.28800  30121450.33500                   -106336.04940  30121455.50340
  25103139.96800  28662516.10000                  19631585.61540  28662520.23740
   1277712.20000  26413250.90500                    996471.66240  26413253.91740
  -2295311.32600  27913681.32700                  -1654710.79940  27913685.21840
    -16277.00400  30970971.15500
  16825117.76000  27051721.24100                  13178691.29240  27051723.91340
 96  9  6  4 18  0.0190000  0  6  3 14 18 19 27 29
   -152385.85700  30121766.66300                   -105040.58240  30121770.29640
  25273010.92700  28694841.40500                  19763952.58940  28694845.46040
   1305259.92000  26418493.10800                   1017937.42540  26418496.13240
  -2287303.55000  27915205.02200                  -1648470.94040  27915209.07740
    -33049.42000  30967779.77200
  16931280.20200  27071923.42100                  13261415.26740  27071925.95240
 96  9  6  4 18 30.0200000  0  6  3 14 18 19 27 29
   -150474.38800  30122130.06600                   -103551.13840  30122136.94940
  25443120.69300  28727212.69100                  19896505.64040  28727217.03940
   1333147.40300  26423800.01900                   1039667.93340  26423803.23040
  -2279072.33800  27916771.07400                  -1642056.97640  27916775.34040
    -49755.29200  30964600.23000                     -5634.69750  30964601.28540
  17037780.23900  27092189.59800                  13344402.29840  27092192.30540
 96  9  6  4 19  0.0200000  0  6  3 14 18 19 27 29
   -148317.55000  30122542.62100                   -101870.46840  30122546.73440
  25613458.82800  28759626.71500                  20029236.65240  28759630.74640
   1361347.56400  26429166.12900                   1061642.09440  26429169.23440
  -2270631.27200  27918377.39400                  -1635479.50040  27918381.14440
    -66389.45300  30961433.60500                    -18596.33840  30961439.20740
  17144616.30800  27112519.77700                  13427651.17940  27112522.56640
 96  9  6  4 19 30.0200000  0  6  3 14 18 19 27 29
   -145890.28400  30123002.72300                    -99979.07840  30123006.28540
  25784026.06000  28792084.12100                  20162146.18540  28792088.65640
   1389854.00700  26434590.93300                   1083854.91640  26434593.82840
  -2261981.55800  27920023.48000                  -1628739.42840  27920027.32440
    -82933.13100  30958286.09800                    -31487.38040  30958293.88340
  17251794.06800  27132914.93300                  13511166.31840  27132917.50040
 96  9  6  4 20  0.0200000  0  6  3 14 18 19 27 29
   -143186.58900  30123517.25400                    -97872.26740  30123521.37940
  25954805.48500  28824583.05800                  20295221.05440  28824587.32440
   1418653.10200  26440071.05100                   1106295.77540  26440074.02740
  -2253134.50000  27921707.11300                  -1621845.59040  27921711.01540
    -99388.72200  30955154.61300                    -44309.80840  30955162.50440
  17359315.45600  27153375.67600                  13594949.21440  27153378.31240
 96  9  6  4 20 30.0200000  0  6  3 14 18 19 27 29
   -140209.13800  30124083.53500                    -95552.18940  30124086.99240
  26125776.66800  28857117.98000                  20428445.34240  28857121.77740
   1447748.62000  26445607.98000                   1128967.60740  26445610.95740
  -2244094.77700  27923427.19100                  -1614801.62440  27923431.08240
   -115777.09900  30952036.00400                    -57079.91840  30952041.05540
  17467181.59500  27173901.83200                  13679000.74040  27173904.62140
 96  9  6  4 21  0.0200000  0  6  3 14 18 19 27 29
   -136951.80100  30124704.39400                    -93013.94840  30124707.39440
  26296942.22400  28889689.34000                  20561821.09040  28889693.23040
   1477179.80400  26451208.06600                   1151901.00140  26451211.00840
  -2234836.44900  27925188.81600                  -1607587.31340  27925192.75440
   -132090.34900  30948931.09000                    -69791.47540  30948934.75840
  17575423.03400  27194499.58200                  13763344.71640  27194502.39440
 96  9  6  4 21 30.0200000  0  6  3 14 18 19 27 29
   -133431.32300  30125373.23800                    -90270.72040  30125377.29340
  26468275.01000  28922293.05800                  20695327.15540  28922296.76240
   1506955.41500  26456874.41800                   1175102.78540  26456877.59440
  -2225353.45400  27926993.39400                  -1600197.93740  27926997.30840
   -148329.40700  30945840.98800                    -82445.17440  30945844.48040
  17684022.68800  27215165.50400                  13847967.82040  27215168.16440
 96  9  6  4 22  0.0200000  0  6  3 14 18 19 27 29
   -129645.31900  30126094.84000                    -87320.53940  30126097.46540
  26639790.53500  28954931.58200                  20828975.61140  28954935.33240
   1537099.01400  26462610.55800                   1198591.30740  26462613.61740
  -2215632.66500  27928843.26900                  -1592623.26740  27928846.83240
   -164485.53200  30942767.29300                    -95034.22140  30942773.72640
  17792993.14800  27235901.81600                  13932879.86240  27235904.51240
 96  9  6  4 22 30.0200000  0  6  3 14 18 19 27 29
   -125592.93300  30126865.68300                    -84162.83940  30126869.70340
  26811501.55500  28987606.77700                  20962776.39740  28987610.98440
   1567630.27100  26468420.65200                   1222381.90240  26468423.60540
  -2205671.60700  27930738.55800                  -1584861.37940  27930742.61340
   -180547.57600  30939710.34800                   -107550.02240  30939714.57840
  17902324.37000  27256706.91800                  14018073.01740  27256709.53140
 96  9  6  4 23  0.0200000  0  6  3 14 18 19 27 29
   -121249.16600  30127692.02700                    -80778.11940  30127695.95340
  26983449.71100  29020327.24600                  21096761.97340  29020331.75840
   1598565.83400  26474307.29300                   1246487.54740  26474310.18740
  -2195443.95200  27932684.90200                  -1576891.73840  27932688.80540
   -196484.58000  30936678.48800                   -119968.35840  30936682.48440
  18012020.71300  27277581.44900                  14103550.67940  27277584.09840
 96  9  6  4 23 30.0200000  0  6  3 14 18 19 27 29
   -116608.64100  30128575.45700                    -77162.08640  30128576.53540
  27155636.81900  29053093.65200                  21230933.74740  29053098.31640
   1629884.60800  26480266.98800                   1270891.79040  26480270.05840
  -2184975.52900  27934677.19100                  -1568734.49840  27934681.50440
   -212322.65000  30933664.11300                   -132309.68640  30933669.07040
  18122054.61800  27298520.18300                  14189291.37840  27298522.85540
 96  9  6  4 24  0.0200000  0  6  3 14 18 19 27 29
   -111678.13700  30129513.16000                    -73320.10740  30129514.22640
  27328048.56900  29085902.68300                  21365280.56540  29085906.73840
   1661567.65900  26486296.16800                   1295579.89240  26486299.14440
  -2174300.21600  27936708.64400                  -1560416.03640  27936712.26540
   -228096.39200  30930663.39400                   -144600.82540  30930669.68740
  18232411.39000  27319520.26200                  14275283.66240  27319522.85140
 96  9  6  4 24 30.0200000  0  6  3 14 18 19 27 29
   -106447.66700  30130509.40200                    -69244.36740  30130513.94940
  27500673.58600  29118752.26900                  21499793.56140  29118755.77340
   1693610.75700  26492393.70700                   1320548.54040  26492396.57840
  -2163411.75900  27938780.74600                  -1551931.48740  27938784.48440
   -243810.16200  30927672.54300                   -156845.19440  30927676.44540
  18343104.39100  27340584.40200                  14361537.93740  27340586.99240
 96  9  6  4 25  0.0200000  0  7  3 14 18 19 27 29 31
   -100916.73600  30131561.47300                    -64934.49940  30131565.28140
  27673489.04400  29151637.34000                  21634454.95940  29151641.73440
   1725998.84300  26498556.88700                   1345786.01140  26498559.79340
  -2152321.94100  27940891.01200                  -1543290.05140  27940895.18340
   -259491.87000  30924688.61300                   -169064.61640  30924694.44940
  18454143.10200  27361714.51200                  14448061.59840  27361716.97340
    -19597.63910  30777627.23800
 96  9  6  4 25 30.0200000  0  7  3 14 18 19 27 29 31
    -95098.33600  30132668.30800                    -60400.68740  30132670.99240
  27846456.84100  29184552.12100                  21769235.06840  29184556.21140
   1758719.18800  26504783.32400                   1371282.39240  26504786.39440
  -2141064.00800  27943033.10500                  -1534517.60940  27943037.19540
   -275155.79700  30921707.16000                   -181270.20440  30921713.34840
  18565521.38400  27382909.26900                  14534849.87140  27382911.75440
    -45195.15000  30772758.11300
 96  9  6  4 26  0.0200000  0  7  3 14 18 19 27 29 31
    -88997.28100  30133829.11300                    -55646.59040  30133831.84440
  28019573.05000  29217495.54300                  21904130.80740  29217499.41040
   1791786.02700  26511075.95700                   1397048.75740  26511078.94540
  -2129617.42200  27945211.01200                  -1525598.16740  27945214.86740
   -290776.75400  30918735.48800                   -193442.30240  30918740.18740
  18677252.38600  27404170.91800                  14621912.97640  27404173.48440
    -70817.01100  30767882.75400                     -4660.24650  30767887.45340
 96  9  6  4 26 30.0200000  0  7  3 14 18 19 27 29 31
    -82604.30200  30135046.23800                    -50665.05940  30135048.50040
  28192842.80100  29250467.71500                  22039146.17340  29250471.59440
   1825209.76600  26517436.23800                   1423093.22940  26517439.15640
  -2117966.04900  27947428.65200                  -1516519.15240  27947432.36740
   -306339.73600  30915773.49600                   -205569.24640  30915777.05840
  18789337.25300  27425499.73800                  14709251.82840  27425502.15240
    -96456.34200  30763002.78500                    -24638.89240  30763001.36740
 96  9  6  4 27  0.0200000  0  7  3 14 18 19 27 29 31
    -75914.37200  30136318.23800                    -45452.10040  30136322.15240
  28366281.44200  29283471.01900                  22174293.18440  29283475.10940
   1858995.38600  26523865.35500                   1449419.68940  26523868.29740
  -2106112.65900  27949684.24600                  -1507282.72240  27949688.18340
   -321826.63100  30912825.68300                   -217636.83540  30912831.62540
  18901762.30800  27446893.59800                  14796855.76440  27446896.12940
   -122102.36700  30758122.11300                    -44622.69540  30758126.26240
 96  9  6  4 27 30.0200000  0  7  3 14 18 19 27 29 31
    -68922.90400  30137650.27700                    -40004.18540  30137654.80140
  28539901.38500  29316510.41800                  22309581.44040  29316514.82440
   1893149.27200  26530364.69900                   1476033.11440  26530367.75840
  -2094037.19400  27951981.59000                  -1497873.23840  27951985.56240
   -337210.18800  30909897.92600                   -229623.98040  30909901.34840
  19014528.75000  27468352.24600                  14884725.71140  27468354.88340
   -147752.36300  30753240.97300                    -64609.66940  30753237.43340
 96  9  6  4 28  0.0200000  0  7  3 14 18 19 27 29 31
    -61623.55600  30139038.09800                    -34316.35440  30139040.58240
  28713709.50200  29349584.90200                  22445016.34240  29349589.75440
   1927669.23700  26536933.45700                   1502931.79440  26536936.55140
  -2081718.22300  27954326.19100                  -1488274.01640  27954330.01240
   -352496.33400  30906990.18300                   -241535.21040  30906996.00840
  19127640.07900  27489876.44100                  14972864.40640  27489879.16040
   -173420.10300  30748356.16800                    -84610.59240  30748358.38340
 96  9  6  4 28 30.0200000  0  7  3 14 18 19 27 29 31
    -54007.85200  30140486.05800                    -28382.01040  30140491.08640
  28887709.32900  29382696.12900                  22580600.61440  29382700.25440
   1962559.46500  26543572.90200                   1530118.98940  26543575.87940
  -2069155.32600  27956716.57400                  -1478484.72640  27956720.45340
   -367690.83800  30904098.23000                   -253375.05140  30904101.31240
  19241102.71700  27511468.06600                  15061276.84440  27511470.75040
   -199101.14200  30743470.37900                   -104621.62040  30743476.19140
 96  9  6  4 29  0.0200000  0  7  3 14 18 19 27 29 31
    -46075.26800  30141995.86300                    -22200.79040  30141999.60140
  29061901.58500  29415843.58200                  22716334.83140  29415848.17640
   1997831.90000  26550285.04300                   1557604.00840  26550287.99640
  -2056347.59300  27959153.80100                  -1468504.65540  27959157.56240
   -382797.51600  30901223.43300                   -265146.41440  30901228.63740
  19354921.28400  27533126.97300                  15149966.62440  27533129.55140
   -224784.59600  30738582.90200                   -124634.74940  30738586.57040
 96  9  6  4 29 30.0200000  0  7  3 14 18 19 27 29 31
    -37831.60100  30143565.19900                    -15777.11340  30143568.48040
  29236272.46800  29449025.31600                  22852208.25140  29449030.57840
   2033493.53100  26557071.24600                   1585392.29740  26557074.22340
  -2043299.21300  27961637.04300                  -1458337.06440  27961640.68740
   -397836.59500  30898362.13700                   -276865.14840  30898366.55540
  19469095.91400  27554854.08200                  15238933.86540  27554856.54340
   -250471.48500  30733695.16800                   -144650.57540  30733693.96140
 96  9  6  4 30  0.0200000  0  7  3 14 18 19 27 29 31
    -29281.06900  30145192.55100                     -9114.32640  30145195.29340
  29410805.14200  29482237.49600                  22988207.71440  29482241.77340
   2069542.32100  26563931.11300                   1613482.27340  26563934.21940
  -2030036.31400  27964160.69900                  -1448002.31640  27964164.34440
   -412829.28500  30895509.30100                   -288547.66940  30895512.62940
  19583612.08900  27576645.36300                  15328167.24940  27576647.96540
   -276162.63100  30728805.37100                   -164669.50240  30728806.74240
 96  9  6  4 30 30.0210000  0  7  3 14 18 19 27 29 31
    -20428.29100  30146877.27400                     -2216.05640  30146881.97340
  29585496.86800  29515480.07100                  23124331.15940  29515484.41940
   2105985.76100  26570866.20400                   1641879.76240  26570869.18140
  -2016578.20100  27966721.59500                  -1437515.45640  27966725.38040
   -427771.20800  30892665.21200                   -300190.69740  30892668.51640
  19698468.52900  27598502.11000                  15417665.76340  27598504.63040
   -301833.11000  30723919.01600                   -184672.49640  30723925.25140
 96  9  6  4 31  0.0210000  0  7  3 14 18 19 27 29 31
    -11262.26600  30148621.11000                      4926.30540  30148624.39140
  29760325.76500  29548749.39100                  23260561.45140  29548753.55240
   2142813.56200  26577874.07100                   1670576.75440  26577877.10640
  -2002938.59100  27969317.43100                  -1426887.16440  27969321.57940
   -442658.72000  30889831.88400                   -311791.29440  30889835.85640
  19813647.11600  27620419.65700                  15507415.30840  27620422.22340
   -327485.42300  30719037.91500                   -204661.32940  30719041.58340
 96  9  6  4 31 30.0210000  0  7  3 14 18 19 27 29 31
     -1767.33500  30150428.76600                     12324.99740  30150432.55240
  29935310.70200  29582048.37600                  23396913.33640  29582052.57140
   2180021.42100  26584954.57100                   1699569.89340  26584957.58340
  -1989114.52300  27971947.89900                  -1416115.13940  27971951.94240
   -457470.37300  30887013.14900                   -323332.83940  30887016.27840
  19929167.98200  27642402.44600                  15597431.56140  27642405.02440
   -353117.77700  30714161.48500                   -224634.54040  30714162.04840
 96  9  6  4 32  0.0210000  0  7  3 14 18 19 27 29 31
      8041.82600  30152294.89900                     19968.47840  30152297.72340
  30110428.20800  29615371.78200                  23533368.53940  29615375.75540
   2217591.58100  26592103.98500                   1728845.34740  26592107.04440
  -1975110.71700  27974612.61000                  -1405203.06440  27974616.20840
   -472199.73600  30884211.32900                   -334810.19940  30884216.36840
  20045024.99300  27664449.00100                  15687709.74540  27664451.68440
   -378735.23300  30709285.58700                   -244596.17140  30709289.67740
 96  9  6  4 32 30.0210000  0  8  3 14 18 19 27 28 29 31
     18178.81600  30154223.97700                     27867.46640  30154227.32940
  30285697.79100  29648724.76600                  23669942.21140  29648729.44240
   2255547.58000  26599326.64100                   1758421.45440  26599329.52440
  -1960904.88900  27977315.78200                  -1394133.55940  27977319.45040
   -486822.86800  30881427.90700                   -346204.81640  30881432.57140
                  30985568.18800
  20161231.98000  27686562.45400                  15778260.64240  27686565.23140
   -404330.15400  30704416.20400                   -264540.23540  30704422.19240
 96  9  6  4 33  0.0210000  0  7  3 14 18 19 27 29 31
     28654.03900  30156216.54000                     36029.97440  30156218.94240
  30461121.92200  29682106.13400                  23806636.35240  29682111.27840
   2293888.85200  26606623.00900                   1788297.77040  26606625.84540
  -1946479.26000  27980061.12600                  -1382892.79640  27980064.91140
   -501345.78300  30878664.10200                   -357521.32640  30878668.61440
  20277787.95800  27708742.47000                  15869083.47040  27708745.22340
   -429922.44300  30699545.57100                   -284482.24340  30699547.92740
 96  9  6  4 33 30.0210000  0  7  3 14 18 19 27 29 31
     39471.02900  30158275.49300                     44458.82640  30158278.82140
  30636704.20600  29715518.93800                  23943453.71340  29715523.21640
   2332624.71900  26613994.13400                   1818481.57140  26613997.02840
  -1931822.51300  27982850.25100                  -1371471.93040  27982853.94240
   -515777.39600  30875917.61000                   -368766.70540  30875922.93140
  20394701.71300  27730990.47700                  15960185.09340  27730993.12640
   -455501.18000  30694677.88400                   -304413.78840  30694681.62240
 96  9  6  4 34  0.0210000  0  7  3 14 18 19 27 29 31
     50640.92000  30160401.34500                     53162.65040  30160405.27040
  30812434.42600  29748959.00100                  24080386.33640  29748963.40740
   2371773.79700  26621443.66500                   1848987.35140  26621446.57140
  -1916915.18900  27985687.21200                  -1359855.81140  27985690.90340
   -530140.63000  30873184.85200                   -379958.81240  30873188.81340
  20511972.72300  27753306.41500                  16051565.09540  27753309.22740
   -481045.99000  30689816.72000                   -324318.74040  30689820.63440
 96  9  6  4 34 30.0210000  0  7  3 14 18 19 27 29 31
     62172.41600  30162595.07100                     62148.25540  30162597.83740
  30988306.16800  29782426.91500                  24217429.25640  29782431.86040
   2411332.28500  26628971.69600                   1879812.15340  26628974.79040
  -1901769.96800  27988569.12600                  -1348054.32640  27988572.91140
   -544477.02900  30870456.74300                   -391129.99740  30870460.77440
  20629589.41800  27775688.07100                  16143214.46140  27775690.82540
   -506559.75400  30684961.54000                   -344199.58640  30684965.75940
 96  9  6  4 35  0.0210000  0  7  3 14 18 19 27 29 31
     74051.01600  30164856.83700                     71404.31640  30164859.81340
  31164293.57300  29815915.93800                  24354562.28240  29815920.54440
   2451270.39800  26636571.54800                   1910932.76340  26636574.38440
  -1886396.07000  27991494.43800                  -1336074.63640  27991498.48140
   -558809.64800  30867729.04800                   -402298.21240  30867732.21240
  20747545.79900  27798134.66500                  16235128.51440  27798137.17340
   -532035.67300  30680113.57100                   -364050.95040  30680115.72740
 96  9  6  4 35 30.0210000  0  7  3 14 18 19 27 29 31
     86282.44300  30167182.19600                     80935.31440  30167186.36840
  31340413.72800  29849429.68800                  24491798.76240  29849434.31740
   2491615.30100  26644248.50100                   1942370.35440  26644251.61840
  -1870778.97100  27994466.08700                  -1323905.45340  27994469.81340
   -573103.11400  30865008.82100                   -413435.96440  30865014.29440
  20865872.00900  27820651.50100                  16327330.74540  27820654.31340
   -557434.32200  30675280.22000                   -383842.06540  30675284.87240
 96  9  6  4 36  0.0210000  0  7  3 14 18 19 27 29 31
     98839.57500  30169572.14900                     90720.10640  30169576.09840
  31516644.54100  29882965.22700                  24629121.47740  29882970.22040
   2532359.14200  26652002.11800                   1974118.80240  26652005.23540
  -1854928.19000  27997482.59500                  -1311554.18540  27997486.30940
   -587351.81200  30862297.35200                   -424538.82040  30862303.30640
  20984559.39900  27843236.95400                  16419814.41140  27843239.69640
   -582767.54900  30670459.12600                   -403582.25340  30670463.16940
 96  9  6  4 36 30.0210000  0  7  3 14 18 19 27 29 31
    111725.44900  30172024.30600                    100761.08240  30172028.36040
  31692990.62900  29916523.00100                  24766534.01040  29916527.45440
   2573491.52600  26659829.59500                   2006170.01740  26659832.60640
  -1838860.33000  28000540.22700                  -1299033.74840  28000543.68440
   -601510.90900  30859603.00900                   -435571.83540  30859607.41540
  21103603.54800  27865890.26600                  16512576.08440  27865892.88040
   -608043.44100  30665650.31300                   -423277.79440  30665655.22340
 96  9  6  4 37  0.0210000  0  7  3 14 18 19 27 29 31
    124947.83200  30174540.44600                    111064.25440  30174544.53640
  31869459.51100  29950103.93100                  24904042.25040  29950108.31340
   2615009.60100  26667729.95400                   2038521.76840  26667732.81340
  -1822582.09000  28003637.69600                  -1286349.38640  28003641.41140
   -615530.91200  30856934.54000                   -446496.42340  30856939.32140
  21223004.00600  27888611.46200                  16605615.39240  27888614.12240
   -633267.81800  30660849.41500                   -442933.09240  30660850.71640
 96  9  6  4 37 30.0210000  0  7  3 14 18 19 27 29 31
    138531.04900  30177126.64900                    121648.60040  30177130.44640
  32046054.38100  29983709.97700                  25041648.61340  29983712.97740
   2656927.42500  26675706.86000                   2071185.00840  26675709.72040
  -1806098.97100  28006774.43800                  -1273505.38140  28006778.31740
   -629411.03400  30854293.13400                   -457312.06240  30854297.39940
  21342745.97700  27911397.22000                  16698920.81740  27911399.91540
   -658444.45100  30656059.40700                   -462551.22840  30656066.63040
 96  9  6  4 38  0.0210000  0  7  3 14 18 19 27 29 31
    152498.88100  30179783.32100                    132532.63640  30179786.41540
  32222757.01800  30017335.22700                  25179338.96240  30017339.22340
   2699234.68000  26683757.65700                   2104151.70040  26683760.65740
  -1789425.43200  28009947.26600                  -1260513.00240  28009950.91140
   -643166.49000  30851675.45400                   -468030.58140  30851679.54440
  21462808.07000  27934244.18100                  16792475.68640  27934246.71240
   -683573.12000  30651277.54000                   -482132.00440  30651280.31740
 96  9  6  4 38 30.0210000  0  7  3 14 18 19 27 29 31
    166887.53400  30182521.50900                    143744.56940  30182523.64140
  32399583.60500  30050984.13400                  25317125.92540  30050986.47740
   2741940.76900  26691884.03200                   2137429.18140  26691887.04440
  -1772554.07800  28013158.00100                  -1247366.47240  28013161.85640
   -656789.76400  30849083.82100                   -478646.04540  30849089.07140
  21583200.15600  27957154.19600                  16886287.69740  27957156.72740
   -708633.20500  30646507.90700                   -501659.31540  30646509.79440
 96  9  6  4 39  0.0210000  0  7  3 14 18 19 27 29 31
    181676.95600  30185336.10200                    155268.82940  30185340.33340
  32576514.40800  30084652.06300                  25454994.10240  30084655.53240
   2785046.05500  26700086.91500                   2171017.71740  26700089.88040
  -1755486.37000  28016405.70400                  -1234066.94440  28016409.19640
   -670332.18600  30846507.01600                   -489198.58040  30846510.36840
  21703918.19000  27980126.10200                  16980353.68840  27980128.72740
   -733629.76800  30641751.59500                   -521137.13740  30641756.15340
 96  9  6  4 39 30.0210000  0  7  3 14 18 19 27 29 31
    196846.60000  30188223.61000                    167089.33240  30188229.08340
  32753529.51500  30118337.65700                  25592927.95440  30118341.17340
   2828551.23500  26708365.51600                   2204917.85940  26708368.56340
  -1738211.73200  28019693.14900                  -1220606.17440  28019696.66540
   -683836.13800  30843937.50100                   -499721.10740  30843940.81740
  21824966.88700  28003161.14100                  17074677.34140  28003163.67340
   -758560.92800  30637007.14900                   -540564.01040  30637011.38040
 96  9  6  4 40  0.0210000  0  7  3 14 18 19 27 29 31
    212386.81400  30191178.93100                    179198.63240  30191182.78640
  32930645.97500  30152041.44600                  25730940.78940  30152045.86440
   2872455.69600  26716720.42300                   2239129.12840  26716723.43440
  -1720721.87600  28023021.02400                  -1206977.69240  28023024.92740
   -697288.40900  30841376.61000                   -510203.34940  30841381.08740
  21946374.06400  28026263.97000                  17169280.32440  28026266.72340
   -783415.41000  30632277.98500                   -559931.11640  30632280.88040
 96  9  6  4 40 30.0210000  0  7  3 14 18 19 27 29 31
    228273.16100  30194203.20400                    191577.62440  30194206.33340
  33107875.64600  30185767.60200                  25869041.80440  30185772.16140
   2916752.94200  26725149.73500                   2273646.46240  26725152.85240
  -1703008.17800  28026391.80600                  -1193174.79540  28026395.70840
   -710701.15500  30838824.56300                   -520654.80140  30838827.76340
  22068138.74700  28049435.15700                  17264161.88140  28049437.77040
   -808208.44300  30627560.14900                   -579250.37040  30627563.09140
 96  9  6  4 41  0.0210000  0  7  3 14 18 19 27 29 31
    244501.11000  30197292.41500                    204222.79340  30197295.05240
  33285222.30500  30219514.93800                  26007234.02140  30219518.50140
   2961448.88400  26733655.22700                   2308474.47640  26733658.20440
  -1685064.47500  28029806.27400                  -1179192.67240  28029809.93140
   -724076.79300  30836279.17300                   -531077.37040  30836284.69240
  22190254.89800  28072673.39100                  17359317.31840  28072675.82940
   -832937.21300  30622854.25900                   -598519.49540  30622858.02040
 96  9  6  4 41 30.0210000  0  7  3 14 18 19 27 29 31
    261091.32800  30200448.25100                    217150.24840  30200450.55940
  33462704.22600  30253288.64100                  26145531.60140  30253292.29840
   3006556.05700  26742238.89100                   2343622.92440  26742241.68140
  -1666874.94000  28033267.93100                  -1165018.99140  28033271.29440
   -737379.02100  30833748.96200                   -541442.66040  30833754.09540
  22312726.50000  28095979.20400                  17454749.72440  28095981.54840
   -857582.17600  30618163.75100                   -617723.34840  30618166.79840
 96  9  6  4 42  0.0210000  0  7  3 14 18 19 27 29 31
    278040.09400  30203674.07100                    230357.09640  30203676.40340
  33640296.43800  30287083.37600                  26283915.14640  30287088.21640
   3052068.44600  26750899.33700                   2379087.12540  26750902.36040
  -1648468.09000  28036770.37600                  -1150675.97740  28036774.25540
   -750611.50900  30831228.94600                   -551753.66640  30831233.43440
  22435525.96500  28119346.92300                  17550437.60640  28119349.27840
   -882160.73000  30613486.45400                   -636875.44540  30613492.33740
 96  9  6  4 42 30.0220000  0  7  3 14 18 19 27 29 31
    295374.54500  30206972.49000                    243864.49340  30206976.68540
  33817996.18000  30320898.38900                  26422382.46140  30320902.70140
   3098017.62800  26759643.31000                   2414891.68840  26759646.35740
  -1629825.09100  28040318.18500                  -1136148.94040  28040321.97140
   -763751.84900  30828729.24000                   -561992.82540  30828735.04140
  22558669.22200  28142780.15400                  17646393.38840  28142782.69740
   -906661.29900  30608824.44300                   -655966.77940  30608827.32640
 96  9  6  4 43  0.0220000  0  7  3 14 18 19 27 29 31
    313101.35000  30210345.45900                    257677.59240  30210349.58440
  33995765.47200  30354726.90400                  26560903.97640  30354732.06040
   3144408.22500  26768471.04500                   2451040.20740  26768474.05640
  -1610963.55300  28043907.40400                  -1121451.62040  28043911.13140
   -776799.75100  30826246.66200                   -572159.97440  30826251.67840
  22682145.71200  28166276.84200                  17742608.83240  28166279.49040
   -931080.95600  30604177.47400                   -674995.03640  30604180.93140
 96  9  6  4 43 30.0220000  0  7  3 14 18 19 27 29 31
    331219.80200  30213793.27900                    271795.91340  30213796.29140
  34173590.05800  30388565.69300                  26699468.59540  30388570.70940
   3191238.84300  26777382.66200                   2487531.60140  26777385.69740
  -1591904.51900  28047534.03700                  -1106600.41540  28047537.52940
   -789765.81300  30823778.69300                   -582263.37540  30823783.58040
  22805965.07300  28189839.00600                  17839091.43440  28189841.66640
   -955428.42500  30599544.60700                   -693967.10040  30599550.99440
 96  9  6  4 44  0.0220000  0  7  3 14 18 19 27 29 31
    349755.49400  30217319.94300                    286239.31240  30217323.88140
  34351474.92100  30422416.44300                  26838080.13140  30422420.31040
   3238516.03400  26786379.44300                   2524370.96740  26786382.54940
  -1572639.91800  28051200.14600                  -1091589.02240  28051203.73240
   -802644.53700  30821327.65400                   -592298.70240  30821332.45940
  22930150.69700  28213470.63100                  17935859.44340  28213473.12740
   -979690.87100  30594927.23200                   -712872.88340  30594932.28340
 96  9  6  4 44 30.0220000  0  7  3 14 18 19 27 29 31
    368704.96400  30220927.01400                    301005.13540  30220930.08440
  34529425.25200  30456278.95900                  26976742.74340  30456283.91640
   3286221.29600  26795457.31000                   2561543.90540  26795460.33440
  -1553176.43400  28054903.92000                  -1076422.65140  28054907.61140
   -815443.05600  30818893.13900                   -602271.51740  30818896.85340
  23054693.03300  28237170.45100                  18032905.40740  28237173.07640
  -1003873.23400  30590325.61500                   -731716.24040  30590329.52940
 96  9  6  4 45  0.0220000  0  7  3 14 18 19 27 29 31
    388071.00200  30224611.02100                    316095.58940  30224614.22140
  34707450.31100  30490155.84900                  27115463.55940  30490160.43140
   3334352.99500  26804616.59200                   2599049.12940  26804619.41640
  -1533513.47500  28058645.60700                  -1061100.84540  28058649.21740
   -828166.25900  30816471.39600                   -612185.63340  30816476.68140
  23179587.35400  28260936.76400                  18130225.64740  28260939.45940
  -1027966.29800  30585741.26400                   -750490.04040  30585744.77940
 96  9  6  4 45 30.0220000  0  7  3 14 18 19 27 29 31
    407845.74400  30228376.04500
  34885548.07700  30524046.33400                  27254241.04140  30524052.36940
   3382893.85500  26813853.75600                   2636873.17740  26813856.69740
  -1513644.50700  28062426.45100                  -1045618.52040  28062430.06040
   -840813.19500  30814064.28700                   -622040.34040  30814068.49440
  23304829.14100  28284769.56000                  18227816.63940  28284772.16240
  -1051964.33600  30581174.06000                   -769189.77940  30581177.54140
 96  9  6  4 46  0.0220000  0  7  3 14 18 19 27 29 31
    428019.49500  30232213.59900
  35063729.79600  30557953.13900                  27393083.89840  30557958.63540
   3431841.87200  26823167.94300                   2675014.48640  26823170.88540
  -1493553.58700  28066249.54500                  -1029963.24140  28066252.96740
   -853386.10600  30811671.58400                   -631837.39340  30811678.31040
  23430408.55700  28308666.36500                  18325670.72040  28308669.18940
  -1075872.59300  30576624.19300                   -787819.60540  30576628.64640
 96  9  6  4 46 30.0220000  0  7  3 14 18 19 27 29 31
    448585.00100  30236126.84200
  35241996.99600  30591877.36500                  27531993.40340  30591882.27540
   3481213.09400  26832563.04500                   2713485.56540  26832566.10340
  -1473235.36600  28070116.22400                  -1014130.84340  28070119.72840
   -865873.50900  30809295.84900                   -641567.77540  30809300.64240
  23556323.10100  28332627.30300                  18423785.94340  28332629.92840
  -1099672.38000  30572095.78700                   -806364.87640  30572098.21340
 96  9  6  4 47  0.0220000  0  7  3 14 18 19 27 29 31
    469543.50500  30240114.63900                     15250.75550  30240119.05640
  35420351.54900  30625816.92000                  27670970.94640  30625822.35740
   3531023.20100  26842041.49000                   2752298.64040  26842044.54940
  -1452678.28200  28074027.95900                   -998112.32440  28074031.55640
   -878273.77100  30806935.81800                   -651230.28940  30806940.24840
  23682584.16000  28356653.99000                  18522171.17540  28356656.92040
  -1123339.30100  30567591.57600                   -824806.58540  30567594.09640
 96  9  6  4 47 30.0220000  0  7  3 14 18 19 27 29 31
    490884.07400  30244177.07600                     31879.77540  30244180.69740
  35598781.32200  30659771.47400                  27810007.10040  30659776.32640
   3581264.74000  26851602.16200                   2791447.89440  26851605.05640
  -1431904.30200  28077980.97400                   -981924.79040  28077984.39640
   -890598.15100  30804590.51400                   -660833.64140  30804595.29540
  23809178.43500  28380743.94300                  18620816.05140  28380746.48640
  -1146877.45200  30563112.60700                   -843147.99140  30563115.51440
 96  9  6  4 48  0.0220000  0  7  3 14 18 19 27 29 31
    512615.24000  30248311.51400                     48813.18640  30248315.15840
  35777282.75800  30693738.63100                  27949099.11340  30693743.43540
   3631943.75000  26861246.17800                   2830938.02840  26861249.11940
  -1410920.59000  28081974.30300                   -965573.83740  28081977.88940
   -902838.95800  30802261.44300                   -670371.89540  30802265.96740
  23936105.26200  28404897.50600                  18719720.05940  28404900.21340
  -1170281.97900  30558659.04500                   -861385.28640  30558663.77940
 96  9  6  4 48 30.0220000  0  7  3 14 18 19 27 29 31
    534763.19100  30252526.19300                     66071.35640  30252529.73240
  35955849.92700  30727718.71700                  28088242.38040  30727724.37740
   3683057.08900  26870972.73200                   2870766.60840  26870975.65040
  -1389736.39700  28086005.42800                   -949066.65640  28086009.07240
   -914981.50500  30799950.24000                   -679833.56340  30799953.72140
  24063364.11500  28429113.85700                  18818882.79340  28429116.44740
  -1193521.90300  30554236.62300                   -879494.32140  30554240.44340
 96  9  6  4 49  0.0220000  0  7  3 14 18 19 27 29 31
    557329.68000  30256819.92800                     83655.62240  30256823.52540
  36134482.28600  30761710.59900                  28227436.41740  30761714.01040
   3734591.21200  26880779.29500                   2910923.06840  26880782.15440
  -1368356.64600  28090073.67000                   -932407.09540  28090077.44340
   -927037.29000  30797656.48200                   -689227.60340  30797660.80640
  24190961.30500  28453395.01400                  18918309.16940  28453397.68540
  -1216612.06300  30549842.84200                   -897486.61340  30549847.31840
 96  9  6  4 49 30.0220000  0  7  3 14 18 19 27 29 31
    580312.77100  30261193.89600                    101564.56240  30261197.70540
  36313164.59900  30795712.41200                  28366669.33540  30795716.42040
   3786529.56300  26890662.65400                   2951394.51040  26890665.74840
  -1346787.68800  28094178.30300                   -915600.10240  28094182.01740
   -939001.38900  30795380.01400                   -698550.21940  30795385.45140
  24318895.67300  28477740.01400                  19017998.27840  28477742.63940
  -1239566.23700  30545475.42000                   -915372.96640  30545480.82240
 96  9  6  4 50  0.0220000  0  7  3 14 18 19 27 29 31
    603730.39600  30265649.68500                    119812.07740  30265653.27140
  36491903.61400  30829725.82600                  28505946.52240  30829730.95940
   3838875.45800  26900623.89600                   2992183.52340  26900626.93140
  -1324997.53200  28098324.59900                   -898620.74040  28098328.17440
   -950862.06800  30793122.81800                   -707792.27140  30793126.42840
  24447179.84000  28502151.50600                  19117959.96440  28502154.40040
  -1262369.08400  30541135.70100                   -933141.42840  30541139.39240
 96  9  6  4 50 30.0220000  0  7  3 14 18 19 27 29 31
    627571.44400  30270185.97400                    138389.54140  30270190.14640
  36670685.63100  30863747.36500                  28645257.17240  30863751.23240
   3891625.35100  26910661.74800                   3033287.33640  26910664.78340
  -1302993.24600  28102511.77100                   -881474.53340  28102515.25240
   -962652.64400  30790879.03700                   -716979.67240  30790883.66640
  24575802.17900  28526627.52900                  19218185.15040  28526630.27140
  -1285038.42100  30536821.09900                   -950805.82140  30536824.15840
 96  9  6  4 51  0.0220000  0  7  3 14 18 19 27 29 31
    651829.14400  30274802.61500                    157291.66640  30274806.24840
  36849498.61900  30897774.81800                  28784591.96940  30897778.99040
   3944799.39800  26920780.52100                   3074721.65840  26920783.48640
  -1280761.28900  28106742.52100                   -864150.91540  28106746.33040
   -974379.59000  30788647.06800                   -726117.49740  30788651.55640
  24704765.26200  28551168.48200                  19318675.85640  28551171.40040
  -1307579.67700  30532532.28700                   -968370.42840  30532535.52140
 96  9  6  4 51 30.0220000  0  7  3 14 18 19 27 29 31
    676526.39500  30279502.42800                    176536.28740  30279505.68540
  37028332.95200  30931805.89600                  28923943.35040  30931808.46340
   3998416.40700  26930983.74000                   3116501.14740  26930986.55340
  -1258291.29600  28111018.22400                   -846641.81440  28111022.01040
   -986038.84500  30786428.39600                   -735202.58040  30786432.88540
  24834058.02300  28575772.05300                  19419423.45340  28575775.05340
  -1329971.70900  30528271.02900                   -985818.73240  30528272.99840
 96  9  6  4 52  0.0220000  0  7  3 14 18 19 27 29 31
    701684.13800  30284289.82600                    196139.74140  30284293.33040
  37207193.80400  30965841.67800                  29063315.46140  30965844.98240
   4052500.04900  26941275.27900                   3158644.24440  26941278.13940
  -1235585.87100  28115338.98200                   -828949.25740  28115342.49840
   -997634.76600  30784222.54500                   -744238.32440  30784227.46740
  24963675.94600  28600437.97400                  19520424.41940  28600440.77540
  -1352203.15600  30524041.10700                  -1003141.91340  30524044.24840
 96  9  6  4 52 30.0220000  0  7  3 14 18 19 27 29 31
    727307.19300  30289167.40400                    216105.77740  30289170.41640
  37386072.38200  30999880.69300                  29202701.34440  30999887.55340
   4107060.49600  26951658.01400                   3201158.87740  26951660.95540
  -1212660.09600  28119701.92800                   -811085.00840  28119705.58440
  -1009169.90700  30782026.66200                   -753226.70740  30782031.23240
  25093619.10600  28625165.22400                  19621678.82840  28625168.15440
  -1374285.92000  30519838.49000                  -1020349.26340  30519841.76040
 96  9  6  4 53  0.0220000  0  7  3 14 18 19 27 29 31
    753386.63300  30294129.19300                    236427.45140  30294131.99440
  37564961.63000  31033922.45900                  29342095.56840  31033928.98640
   4162079.44200  26962127.50600                   3244030.78240  26962130.47140
  -1189528.99100  28124103.56000                   -793060.75940  28124107.28740
  -1020635.47100  30779844.47400                   -762160.84140  30779848.98640
  25223878.29100  28649952.79500                  19723179.48140  28649955.37340
  -1396231.09600  30515662.42000                  -1037449.37140  30515666.70940
 96  9  6  4 53 30.0220000  0  7  3 14 18 19 27 29 31
    779933.43300  30299180.58400                    257113.28240  30299182.64640
  37743886.63600  31067970.59200                  29481517.62340  31067975.22140
   4217551.87600  26972683.59200                   3287256.05840  26972686.52140
  -1166186.67600  28128545.36500                   -774871.93040  28128548.99840
  -1032010.69700  30777680.18500                   -771024.58340  30777685.62340
  25354471.65400  28674803.68500                  19824940.53240  28674806.35740
  -1418033.75800  30511513.52900                  -1054438.43440  30511516.52940
 96  9  6  4 54  0.0220000  0  7  3 14 18 19 27 29 31
    806937.09900  30304319.13900                    278155.09740  30304321.44740
  37922869.56900  31102030.33400                  29620984.86240  31102035.87740
   4273479.34100  26983326.36500                   3330835.89740  26983329.23640
  -1142625.97600  28133028.45900                   -756512.93740  28133031.90440
  -1043288.45400  30775533.68500                   -779812.40840  30775538.66640
  25485424.88100  28699723.15400                  19926981.99440  28699725.94340
  -1439685.10300  30507393.13100                  -1071309.62140  30507396.90440
 96  9  6  4 54 30.0230000  0  7  3 14 18 19 27 29 31
    834370.19700  30309539.79200                    299531.56140  30309543.26140
  38101902.10200  31136099.17500                  29760490.72940  31136104.19040
   4329850.43900  26994053.23700                   3374761.42840  26994056.28440
  -1118847.08100  28137553.57300                   -737983.91540  28137557.32340
  -1054484.86600  30773403.11200                   -788536.84140  30773408.43240
  25616731.00400  28724710.16700                  20029298.44440  28724712.85040
  -1461197.65400  30503299.12800                  -1088072.59040  30503303.10040
